[[{"header":{"parameterUnit":"m.s-1","parameterCategory":1,"la1":30.6,"la2":29.2853,"lo1":-89.7004,"lo2":-87.6739,"dy":0.0162,"dx":0.0183,"nx":112,"ny":82,"refTime":"2023-10-21T18:00:00:Z","depth":0,"parameterNumber":2,"parameterNumberName":"U-component_of_WINDS"},"data":[0.0,0.0,0.0,0.0,0.0,0.0,0.0,0.0,0.0,0.0,0.0,0.0,0.0,0.0,0.0,0.0,0.0,0.0,0.0,0.0,0.0,0.0,0.0,0.0,0.0,0.0,0.0,0.0,0.0,0.0,0.0,0.0,0.0,0.0,0.0,0.0,0.0,0.0,0.0,0.0,0.0,0.0,0.0,0.0,0.0,0.0,0.0,0.0,0.0,0.0,0.0,0.0,0.0,0.0,0.0,0.0,0.0,0.0,0.0,0.0,0.0,0.0,0.0,0.0,0.0,0.0,0.0,0.0,0.0,0.0,0.0,0.0,0.0,0.0,0.0,0.0,0.0,0.0,0.0,0.0,0.0,0.0,0.0,0.0,0.0,0.0,0.0,0.0,0.0,0.0,-0.0216,-0.0315,-0.0887,-0.126,-0.126,-0.1779,-0.1812,-0.1143,0.0,0.0,0.0,0.0,0.0,0.0,0.0,0.0,0.0,0.0,0.0,0.0,0.0,0.0,0.0,0.0,0.0,0.0,0.0,0.0,0.0,0.0,0.0,0.0,0.0,0.0,0.0,0.0,0.0,0.0,0.0,0.0,0.0,0.0,0.0,0.0,0.0,0.0,0.0,0.0,0.0,0.0,0.0,0.0,0.0,0.0,0.0,0.0,0.0,0.0,0.0,0.0,0.0,0.0,0.0,0.0,0.0,0.0,0.0,0.0,0.0,0.0,0.0,0.0,0.0,0.0,0.0,0.0,0.0,0.0,0.0,0.0,0.0,0.0,0.0,0.0,0.0,0.0,0.0,0.0,0.0,0.0,0.0,0.0,0.0,0.0,0.0,0.0,0.0,0.0,0.0,0.0,0.0,0.0,0.0,0.0,0.0,0.0,0.0,0.0,0.0,0.0,0.0,0.0,-0.1144,-0.1714,-0.1884,-0.1946,-0.1946,-0.2047,-0.1812,-0.1143,0.0,0.0,0.0,0.0,0.0,0.0,0.0,0.0,0.0,0.0,0.0,0.0,0.0,0.0,0.0,0.0,0.0,0.0,0.0,0.0,0.0,0.0,0.0,0.0,0.0,0.0,0.0,0.0,0.0,0.0,0.0,0.0,0.0,0.0,0.0,0.0,0.0,0.0,0.0,0.0,0.0,0.0,0.0,0.0,0.0,0.0,0.0,0.0,0.0,0.0,0.0,0.0,0.0,0.0,0.0,0.0,0.0,0.0,0.0,0.0,0.0,0.0,0.0,0.0,0.0,0.0,0.0,0.0,0.0,0.0,0.0,0.0,0.0,0.0,0.0,0.0,0.0,0.0,0.0,0.0,0.0,0.0,0.0,0.0,0.0,0.0,0.0,0.0,0.0,0.0,0.0,0.0,0.0,0.0,0.0,0.0,0.0,0.0,0.0,0.0,0.0,0.0,0.0,-0.0899,-0.1353,-0.2021,-0.2465,-0.2699,-0.2699,-0.3071,-0.2817,-0.1712,-0.1644,0.0,0.0,0.0,0.0,0.0,0.0,0.0,0.0,0.0,0.0,0.0,0.0,0.0,0.0,0.0,0.0,0.0,0.0,0.0,0.0,0.0,0.0,0.0,0.0,0.0,0.0,0.0,0.0,0.0,0.0,0.0,0.0,0.0,0.0,0.0,0.0,0.0,0.0,0.0,0.0,0.0,0.0,0.0,0.0,0.0,0.0,0.0,0.0,0.0,0.0,0.0,0.0,0.0,0.0,0.0,0.0,0.0,0.0,0.0,0.0,0.0,0.0,0.0,0.0,0.0,0.0,0.0,0.0,0.0,0.0,0.0,0.0,0.0,0.0,0.0,0.0,0.0,0.0,0.0,0.0,0.0,0.0,0.0,0.0,0.0,0.0,0.0,0.0,0.0,0.0,0.0,0.0,0.0,0.0,0.0,0.0,0.0,0.0,0.0,0.0,0.0,0.0,-0.1601,-0.1856,-0.2539,-0.3117,-0.3451,-0.3451,-0.3978,-0.3677,-0.2197,-0.2097,0.0,0.0,0.0,0.0,0.0,0.0,0.0,0.0,0.0,0.0,0.0,0.0,0.0,0.0,0.0,0.0,0.0,0.0,0.0,0.0,0.0,0.0,0.0,0.0,0.0,0.0,0.0,0.0,0.0,0.0,0.0,0.0,0.0,0.0,0.0,0.0,0.0,0.0,0.0,0.0,0.0,0.0,0.0,0.0,0.0,0.0,0.0,0.0,0.0,0.0,0.0,0.0,0.0,0.0,0.0,0.0,0.0,0.0,0.0,0.0,0.0,0.0,0.0,0.0,0.0,0.0,0.0,0.0,0.0,0.0,0.0,0.0,0.0,0.0,0.0,0.0,0.0,0.0,0.0,0.0,0.0,0.0,0.0,0.0,0.0,0.0,0.0,0.0,0.0,0.0,0.0,0.0,0.0,0.0,0.0,0.0,0.0,0.0,0.0,0.0,0.0,0.0,-0.3057,-0.3326,-0.4066,-0.42,-0.4217,-0.4217,-0.4267,-0.3677,-0.2197,-0.2097,0.0,0.0,0.0,0.0,0.0,0.0,0.0,0.0,0.0,0.0,0.0,0.0,0.0,0.0,0.0,0.0,0.0,0.0,0.0,0.0,0.0,0.0,0.0,0.0,0.0,0.0,0.0,0.0,0.0,0.0,0.0,0.0,0.0,0.0,0.0,0.0,0.0,0.0,0.0,0.0,0.0,0.0,0.0,0.0,0.0,0.0,0.0,0.0,0.0,0.0,0.0,0.0,0.0,0.0,0.0,0.0,0.0,0.0,0.0,0.0,0.0,0.0,0.0,0.0,0.0,0.0,0.0,0.0,0.0,0.0,0.0,0.0,0.0,0.0,0.0,0.0,0.0,0.0,0.0,0.0,0.0,0.0,0.0,0.0,0.0,0.0,0.0,0.0,0.0,0.0,0.0,0.0,0.0,0.0,0.0,0.0,0.0,0.0,0.0,0.0,0.0,0.0,-0.339,-0.3723,-0.4465,-0.4553,-0.4553,-0.4553,-0.447,-0.38,-0.2325,0.0,0.0,0.0,0.0,0.0,0.0,0.0,0.0,0.0,0.0,0.0,0.0,0.0,0.0,0.0,0.0,0.0,0.0,0.0,0.0,0.0,0.0,0.0,0.0,0.0,0.0,0.0,0.0,0.0,0.0,0.0,0.0,0.0,0.0,0.0,0.0,0.0,0.0,0.0,0.0,0.0,0.0,0.0,0.0,0.0,0.0,0.0,0.0,0.0,0.0,0.0,0.0,0.0,0.0,0.0,0.0,0.0,0.0,0.0,0.0,0.0,0.0,0.0,0.0,0.0,0.0,0.0,0.0,0.0,0.0,0.0,0.0,0.0,0.0,0.0,0.0,0.0,0.0,0.0,0.0,0.0,0.0,0.0,0.0,0.0,0.0,0.0,0.0,0.0,0.0,0.0,0.0,0.0,0.0,0.0,0.0,0.0,0.0,0.0,0.0,0.0,0.0,-0.375,-0.3902,-0.4143,-0.4654,-0.4708,-0.4708,-0.4708,-0.4542,-0.3948,-0.278,0.0,0.0,0.0,0.0,0.0,0.0,0.0,0.0,0.0,0.0,0.0,0.0,0.0,0.0,0.0,0.0,0.0,0.0,0.0,0.0,0.0,0.0,0.0,0.0,0.0,0.0,0.0,0.0,0.0,0.0,0.0,0.0,0.0,0.0,0.0,0.0,0.0,0.0,0.0,0.0,0.0,0.0,0.0,0.0,0.0,0.0,0.0,0.0,0.0,0.0,0.0,0.0,0.0,0.0,0.0,0.0,0.0,0.0,0.0,0.0,0.0,0.0,0.0,0.0,0.0,0.0,0.0,0.0,0.0,0.0,0.0,0.0,0.0,0.0,0.0,0.0,0.0,0.0,0.0,0.0,0.0,0.0,0.0,0.0,0.0,0.0,0.0,0.0,0.0,0.0,0.0,0.0,0.0,0.0,0.0,0.0,0.0,0.0,0.0,0.0,0.0,0.0,-0.4708,-0.4708,-0.4713,-0.4713,-0.4713,-0.4713,-0.4713,-0.446,-0.4098,0.0,0.0,0.0,0.0,0.0,0.0,0.0,0.0,0.0,0.0,0.0,0.0,0.0,0.0,0.0,0.0,0.0,0.0,0.0,0.0,0.0,0.0,0.0,0.0,0.0,0.0,0.0,0.0,0.0,0.0,0.0,0.0,0.0,0.0,0.0,0.0,0.0,0.0,0.0,0.0,0.0,0.0,0.0,0.0,0.0,0.0,0.0,0.0,0.0,0.0,0.0,0.0,0.0,0.0,0.0,0.0,0.0,0.0,0.0,0.0,0.0,0.0,0.0,0.0,0.0,0.0,0.0,0.0,0.0,0.0,0.0,0.0,0.0,0.0,0.0,0.0,0.0,0.0,0.0,0.0,0.0,0.0,0.0,0.0,0.0,0.0,0.0,0.0,0.0,0.0,0.0,0.0,0.0,0.0,0.0,0.0,0.0,0.0,0.0,0.0,0.0,0.0,0.0,-0.476,-0.4855,-0.4909,-0.4909,-0.4909,-0.4909,-0.4909,-0.4758,-0.4389,-0.3775,0.0,0.0,0.0,0.0,0.0,0.0,0.0,0.0,0.0,0.0,0.0,0.0,0.0,0.0,0.0,0.0,0.0,0.0,0.0,0.0,0.0,0.0,0.0,0.0,0.0,0.0,0.0,0.0,0.0,0.0,0.0,0.0,0.0,0.0,0.0,0.0,0.0,0.0,0.0,0.0,0.0,0.0,0.0,0.0,0.0,0.0,0.0,0.0,0.0,0.0,0.0,0.0,0.0,0.0,0.0,0.0,0.0,0.0,0.0,0.0,0.0,0.0,0.0,0.0,0.0,0.0,0.0,0.0,0.0,0.0,0.0,0.0,0.0,0.0,0.0,0.0,0.0,0.0,0.0,0.0,0.0,0.0,0.0,0.0,0.0,0.0,0.0,0.0,0.0,0.0,0.0,0.0,0.0,0.0,0.0,0.0,0.0,0.0,0.0,0.0,0.0,0.0,-0.489,-0.4955,-0.4998,-0.4998,-0.4998,-0.4979,-0.4876,-0.4736,-0.4466,-0.4065,0.0,0.0,0.0,0.0,0.0,0.0,0.0,0.0,0.0,0.0,0.0,0.0,0.0,0.0,0.0,0.0,0.0,0.0,0.0,0.0,0.0,0.0,0.0,0.0,0.0,0.0,0.0,0.0,0.0,0.0,0.0,0.0,0.0,0.0,0.0,0.0,0.0,0.0,0.0,0.0,0.0,0.0,0.0,0.0,0.0,0.0,0.0,0.0,0.0,0.0,0.0,0.0,0.0,0.0,0.0,0.0,0.0,0.0,0.0,0.0,0.0,0.0,0.0,0.0,0.0,0.0,0.0,0.0,0.0,0.0,0.0,0.0,0.0,0.0,0.0,0.0,0.0,0.0,0.0,0.0,0.0,0.0,0.0,0.0,0.0,0.0,0.0,0.0,0.0,0.0,0.0,0.0,0.0,0.0,0.0,0.0,0.0,0.0,0.0,0.0,0.0,0.0,-0.4998,-0.4998,-0.4998,-0.4979,-0.4979,-0.4896,-0.472,-0.4521,-0.4404,-0.4423,0.0,0.0,0.0,0.0,0.0,0.0,0.0,0.0,0.0,0.0,0.0,0.0,0.0,0.0,0.0,0.0,0.0,0.0,0.0,0.0,0.0,0.0,0.0,0.0,0.0,0.0,0.0,0.0,0.0,0.0,0.0,0.0,0.0,0.0,0.0,0.0,0.0,0.0,0.0,0.0,0.0,0.0,0.0,0.0,0.0,0.0,0.0,0.0,0.0,0.0,0.0,0.0,0.0,0.0,0.0,0.0,0.0,0.0,0.0,0.0,-0.6436,-0.6479,0.0,0.0,0.0,0.0,0.0,0.0,0.0,0.0,0.0,0.0,0.0,0.0,0.0,0.0,0.0,0.0,0.0,0.0,0.0,0.0,0.0,0.0,0.0,0.0,0.0,0.0,0.0,0.0,0.0,0.0,0.0,0.0,0.0,0.0,0.0,0.0,0.0,0.0,0.0,0.0,-0.4998,-0.4998,-0.494,-0.4779,-0.4759,-0.474,-0.4701,-0.4521,-0.4462,-0.4623,-0.4303,0.0,0.0,0.0,0.0,0.0,0.0,0.0,0.0,0.0,0.0,0.0,0.0,0.0,0.0,0.0,0.0,0.0,0.0,0.0,0.0,0.0,0.0,0.0,0.0,0.0,0.0,0.0,0.0,0.0,0.0,0.0,0.0,0.0,0.0,0.0,0.0,0.0,0.0,0.0,0.0,0.0,0.0,0.0,0.0,0.0,0.0,0.0,0.0,0.0,0.0,0.0,0.0,0.0,0.0,0.0,0.0,0.0,0.0,0.0,-0.7872,-0.7404,0.0,0.0,0.0,0.0,0.0,0.0,0.0,0.0,0.0,0.0,0.0,0.0,0.0,0.0,0.0,0.0,0.0,0.0,0.0,0.0,0.0,0.0,0.0,0.0,0.0,0.0,0.0,0.0,0.0,0.0,0.0,0.0,0.0,0.0,0.0,0.0,0.0,0.0,0.0,0.0,-0.5186,-0.5186,-0.5146,-0.504,-0.504,-0.494,-0.4723,-0.4569,-0.4441,-0.4326,-0.428,0.0,0.0,0.0,0.0,0.0,0.0,0.0,0.0,0.0,0.0,0.0,0.0,0.0,0.0,0.0,0.0,0.0,0.0,0.0,0.0,0.0,0.0,0.0,0.0,0.0,0.0,0.0,0.0,0.0,0.0,0.0,0.0,0.0,0.0,0.0,0.0,0.0,0.0,0.0,0.0,0.0,0.0,0.0,0.0,0.0,0.0,0.0,0.0,0.0,0.0,0.0,0.0,0.0,-1.1628,-1.1573,-1.1314,-1.1412,-1.1184,-1.0686,-0.9379,-0.8527,-0.8097,-0.8484,0.0,0.0,0.0,0.0,0.0,0.0,0.0,0.0,0.0,0.0,0.0,0.0,0.0,0.0,0.0,0.0,0.0,0.0,0.0,0.0,0.0,0.0,-0.8937,-0.8881,-0.8847,-0.8729,-0.8363,0.0,0.0,0.0,0.0,0.0,0.0,0.0,0.0,0.0,0.0,0.0,-0.5636,-0.5636,-0.5574,-0.5371,-0.5345,-0.5184,-0.4745,-0.4622,-0.4387,-0.4005,-0.4037,-0.3986,0.0,0.0,0.0,0.0,0.0,0.0,0.0,0.0,0.0,0.0,0.0,0.0,0.0,0.0,0.0,0.0,0.0,0.0,0.0,0.0,0.0,0.0,0.0,0.0,0.0,0.0,0.0,0.0,0.0,0.0,0.0,0.0,-1.0019,-1.0456,0.0,0.0,0.0,0.0,0.0,0.0,0.0,0.0,0.0,0.0,0.0,0.0,0.0,-1.1997,-1.1997,-1.1812,-1.1812,-1.1997,-1.1779,-1.1588,-1.1405,-1.1815,-1.1618,-1.0961,-1.1153,0.0,-1.0266,-1.0348,0.0,0.0,0.0,0.0,0.0,0.0,0.0,0.0,0.0,0.0,0.0,0.0,0.0,0.0,0.0,0.0,0.0,0.0,0.0,0.0,0.0,0.0,-1.0622,-1.0382,-1.0238,-1.0166,-1.0223,-0.919,-0.8214,-0.8172,-0.8064,-0.7692,0.0,0.0,0.0,0.0,0.0,0.0,-0.6605,-0.6605,-0.6233,-0.5241,-0.5137,-0.5012,-0.4724,-0.4543,-0.4368,-0.4259,-0.4054,-0.3923,-0.3883,-0.3865,0.0,0.0,0.0,0.0,0.0,0.0,0.0,0.0,0.0,0.0,0.0,0.0,0.0,0.0,0.0,0.0,0.0,0.0,0.0,0.0,0.0,0.0,0.0,0.0,0.0,0.0,0.0,0.0,0.0,-1.1241,-1.138,-1.069,-1.1528,-1.2075,0.0,0.0,0.0,0.0,0.0,0.0,0.0,0.0,0.0,-1.1943,-1.204,-1.2094,-1.2094,-1.1986,-1.1986,-1.2094,-1.1986,-1.1883,-1.1796,-1.2002,-1.1926,-1.1626,-1.1852,-1.1765,-1.148,-1.1331,-1.1367,-1.152,0.0,0.0,0.0,0.0,-1.1305,-1.1305,-1.1305,-1.1305,-1.1327,-1.1445,0.0,0.0,0.0,0.0,0.0,0.0,0.0,-1.1673,-1.1106,-1.1277,-1.1594,-1.1467,-1.1394,-1.1377,-1.1434,-1.0929,-1.017,-0.9147,-0.8971,-0.8718,-0.784,-0.7735,0.0,0.0,0.0,-0.7753,-0.7753,-0.7753,-0.7368,-0.6337,-0.623,-0.5912,-0.5161,-0.4844,-0.4598,-0.4427,-0.413,-0.3956,-0.3956,-0.3887,-0.3898,0.0,0.0,0.0,0.0,0.0,0.0,0.0,0.0,0.0,0.0,0.0,0.0,0.0,0.0,0.0,0.0,0.0,0.0,0.0,0.0,0.0,0.0,0.0,0.0,0.0,0.0,0.0,0.0,-1.2468,-1.2532,-1.1434,-1.2549,-1.3226,0.0,0.0,0.0,0.0,0.0,0.0,-1.2689,-1.2984,-1.295,-1.2403,-1.224,-1.2191,-1.2191,-1.2245,-1.2278,-1.2278,-1.2278,-1.2278,-1.2278,-1.2278,-1.2278,-1.2278,-1.2278,-1.2278,-1.2256,-1.1931,-1.179,-1.179,-1.179,-1.179,-1.1779,-1.1639,-1.1584,-1.1584,-1.1671,-1.1692,-1.1692,-1.1692,-1.1833,-1.1973,-1.1973,0.0,0.0,0.0,0.0,-1.2235,-1.2039,-1.2028,-1.2094,-1.2094,-1.2008,-1.1899,-1.1899,-1.1899,-1.1527,-1.0226,-1.0067,-0.9857,-0.8948,-0.8823,0.0,-0.8851,-0.8851,-0.8851,-0.8851,-0.8851,-0.85,-0.7555,-0.7467,-0.6959,-0.5769,-0.5424,-0.5051,-0.4485,-0.4205,-0.405,-0.405,-0.3964,-0.3932,-0.3932,0.0,0.0,0.0,0.0,0.0,0.0,0.0,0.0,0.0,0.0,0.0,0.0,0.0,0.0,0.0,0.0,0.0,0.0,0.0,0.0,0.0,0.0,0.0,0.0,0.0,0.0,0.0,0.0,0.0,-1.3222,-1.3328,0.0,0.0,0.0,0.0,-1.4199,-1.4225,-1.4202,-1.4193,-1.3551,-1.3166,-1.3143,-1.2636,-1.2369,-1.2369,-1.2643,-1.2751,-1.2751,-1.2751,-1.2751,-1.2751,-1.2751,-1.2751,-1.2751,-1.2751,-1.2751,-1.2743,-1.2267,-1.2073,-1.2073,-1.2073,-1.2073,-1.2105,-1.2274,-1.2337,-1.2369,-1.2643,-1.2719,-1.2719,-1.2719,-1.2719,-1.2729,-1.2729,-1.274,0.0,0.0,-1.274,-1.2775,-1.2764,-1.2429,-1.2094,-1.2094,-1.1704,-1.1337,-1.1337,-1.1337,-1.1391,-1.1541,-1.1583,-1.121,-1.0026,0.0,-0.9833,-0.9833,-0.9833,-0.9833,-0.9833,-0.9833,-0.9462,-0.8522,-0.8434,-0.7856,-0.646,-0.6344,-0.5747,-0.4403,-0.4236,-0.4186,-0.4186,-0.4058,-0.3988,-0.3988,-0.3984,0.0,0.0,0.0,0.0,0.0,0.0,0.0,0.0,0.0,0.0,0.0,0.0,0.0,0.0,0.0,0.0,0.0,0.0,0.0,0.0,0.0,0.0,0.0,0.0,0.0,0.0,0.0,0.0,-1.4041,-1.4769,0.0,-1.4887,-1.466,-1.4718,-1.5164,-1.5089,-1.4961,-1.482,-1.5032,-1.4916,-1.4448,-1.4241,-1.4123,-1.4123,-1.4051,-1.4015,-1.4015,-1.3857,-1.3773,-1.375,-1.3263,-1.3054,-1.3031,-1.2553,-1.2354,-1.2332,-1.217,-1.2278,-1.2559,-1.2559,-1.2559,-1.257,-1.2632,-1.2665,-1.2675,-1.2762,-1.2807,-1.2807,-1.2807,-1.2807,-1.2807,-1.2807,-1.2807,-1.2807,-1.2807,-1.2807,-1.2807,-1.2807,-1.2689,-1.2559,-1.2559,-1.2406,-1.2264,-1.2264,-1.2264,-1.2242,-1.2167,-1.1908,-1.156,-1.1122,-1.1203,-1.1318,-1.1318,-1.1318,-1.1244,-1.1078,-1.1057,-1.0622,-0.9524,-0.9135,-0.8514,-0.7386,-0.6902,-0.6245,-0.5253,-0.5068,-0.4762,-0.4277,-0.4169,-0.4124,-0.4124,-0.4046,-0.398,0.0,0.0,0.0,0.0,0.0,0.0,0.0,0.0,0.0,0.0,0.0,0.0,0.0,0.0,0.0,0.0,0.0,0.0,0.0,0.0,0.0,0.0,0.0,0.0,0.0,-1.5806,-1.5748,-1.4953,-1.5758,-1.6242,-1.5776,-1.5633,-1.5765,-1.6201,-1.613,-1.598,-1.5863,-1.6103,-1.6008,-1.5534,-1.5362,-1.5294,-1.5294,-1.518,-1.5129,-1.5129,-1.4961,-1.4859,-1.4859,-1.4379,-1.3955,-1.359,-1.3086,-1.2666,-1.2332,-1.2332,-1.2526,-1.2772,-1.2635,-1.257,-1.2581,-1.2643,-1.2675,-1.2675,-1.2762,-1.2807,-1.2807,-1.2807,-1.2807,-1.2807,-1.2807,-1.2807,-1.2807,-1.2807,-1.2807,-1.2807,-1.2807,-1.2729,-1.2675,-1.2675,-1.2611,-1.257,-1.257,-1.257,-1.2503,-1.2318,-1.2102,-1.1919,-1.1856,-1.1986,-1.2094,-1.2094,-1.2094,-1.1972,-1.1608,-1.1722,-1.1467,-1.0479,-1.0083,-0.9495,-0.8468,-0.7796,-0.704,-0.6098,-0.5919,-0.5477,-0.4701,-0.4621,-0.4476,-0.4236,-0.4128,-0.4062,-0.4062,0.0,0.0,0.0,0.0,0.0,0.0,0.0,0.0,0.0,0.0,0.0,0.0,0.0,0.0,0.0,0.0,0.0,0.0,0.0,0.0,0.0,0.0,0.0,-1.6286,-1.6419,-1.6294,-1.5958,-1.6235,-1.6448,-1.6448,-1.6727,-1.7027,-1.7302,-1.7317,-1.7331,-1.7331,-1.672,-1.6343,-1.6343,-1.5981,-1.5797,-1.5797,-1.5981,-1.606,-1.606,-1.606,-1.606,-1.606,-1.606,-1.547,-1.448,-1.4455,-1.3847,-1.2902,-1.2902,-1.2902,-1.2859,-1.2334,-1.2116,-1.2148,-1.2339,-1.2402,-1.2457,-1.2708,-1.2807,-1.2807,-1.2807,-1.2807,-1.2807,-1.2807,-1.2807,-1.2807,-1.2807,-1.2807,-1.2807,-1.2807,-1.2621,-1.2402,-1.2402,-1.2265,-1.2116,-1.2116,-1.2116,-1.2116,-1.2116,-1.2287,-1.235,-1.2148,-1.2116,-1.2116,-1.2116,-1.2116,0.0,-1.1415,-1.1784,-1.1888,-1.1372,-1.1303,-1.0796,-0.963,-0.9057,-0.8173,-0.6838,-0.6734,-0.6355,-0.5468,-0.5424,-0.5062,-0.4322,-0.424,-0.4199,-0.4199,0.0,0.0,0.0,0.0,0.0,0.0,0.0,0.0,0.0,0.0,0.0,0.0,0.0,0.0,0.0,0.0,0.0,0.0,0.0,0.0,0.0,-1.6638,-1.6435,-1.6389,-1.6609,-1.6727,-1.6631,-1.6872,-1.7039,-1.7039,-1.715,-1.7326,-1.7638,-1.7653,-1.7755,-1.8028,-1.7833,-1.7735,-1.7735,-1.7626,-1.7594,-1.7594,-1.763,-1.7672,-1.7672,-1.7672,-1.7672,-1.7647,-1.7125,-1.6697,-1.6406,-1.5795,-1.5382,-1.5109,-1.5109,-1.5109,-1.496,-1.3281,-1.2613,-1.2624,-1.2665,-1.2686,-1.2697,-1.2762,-1.2807,-1.2807,-1.2807,-1.2807,-1.2807,-1.2807,-1.2807,-1.2807,-1.2807,-1.2807,-1.2807,-1.2807,-1.274,-1.2686,-1.2686,-1.2643,-1.2613,-1.2613,-1.2613,-1.2613,-1.2613,-1.2643,-1.2621,-1.235,-1.2481,-1.2613,-1.2613,-1.2613,-1.2477,-1.2151,-1.1885,-1.1776,-1.1886,-1.1244,-1.0658,-1.0334,-0.9856,-0.9017,-0.7732,-0.7639,-0.7247,-0.6383,-0.5827,-0.5157,-0.4322,-0.4275,-0.4263,0.0,0.0,0.0,0.0,0.0,0.0,0.0,0.0,0.0,0.0,0.0,0.0,0.0,0.0,0.0,0.0,0.0,0.0,0.0,0.0,0.0,0.0,-1.6874,-1.6742,-1.6623,-1.688,-1.707,-1.707,-1.734,-1.7507,-1.7507,-1.7638,-1.7784,-1.7974,-1.8013,-1.8077,-1.8291,-1.8438,-1.8511,-1.8511,-1.8642,-1.8716,-1.8716,-1.8716,-1.8716,-1.8716,-1.8716,-1.8716,-1.8716,-1.8271,-1.782,-1.7342,-1.6874,-1.6429,-1.5985,-1.5985,-1.5985,-1.5871,0.0,0.0,0.0,0.0,-1.3763,-1.3763,-1.3763,-1.3546,-1.3305,-1.3643,-1.334,-1.2856,-1.3171,-1.305,-1.2807,-1.2807,-1.2807,-1.2807,-1.2807,-1.2807,-1.2807,-1.2807,-1.2807,-1.2807,-1.2807,-1.2807,-1.2807,-1.2807,-1.2807,0.0,-1.2587,-1.2697,-1.271,-1.2492,-1.2467,-1.2328,-1.1953,-1.162,-1.1523,-1.1701,-1.0996,-1.0522,-1.0522,-1.0055,0.0,0.0,0.0,-0.8175,-0.7277,-0.6554,0.0,0.0,0.0,-0.4674,-0.43,-0.4273,0.0,0.0,-0.405,-0.3741,0.0,0.0,0.0,0.0,0.0,0.0,0.0,0.0,0.0,0.0,0.0,0.0,0.0,0.0,0.0,0.0,-1.6672,-1.6722,-1.696,-1.7238,-1.739,-1.7317,-1.7624,-1.7843,-1.7843,-1.816,-1.8364,-1.8364,-1.8394,-1.8408,-1.8408,-1.8686,0.0,0.0,0.0,-1.9298,-1.9298,-1.9298,-1.9298,-1.9298,-1.9298,-1.9298,-1.9298,-1.9298,-1.8749,-1.7798,-1.7798,-1.7238,-1.6365,-1.6365,-1.6339,-1.6262,-1.5754,-1.5564,-1.5526,-1.5284,-1.5194,-1.5194,-1.5194,0.0,0.0,-1.4978,-1.428,-1.3273,-1.3941,-1.3686,-1.3151,-1.3151,-1.3065,-1.2943,-1.3005,-1.2883,-1.2796,-1.287,-1.287,-1.287,-1.287,-1.287,-1.287,-1.287,-1.287,-1.287,-1.2796,-1.2802,-1.2638,-1.2151,-1.2102,-1.1907,-1.137,-1.1247,-1.1198,-1.1198,0.0,0.0,-1.0413,-0.9969,-0.9608,-0.9445,-0.9412,-0.8989,-0.8081,-0.7449,-0.6677,-0.5782,-0.5754,-0.5342,-0.4463,-0.4463,-0.4418,-0.4324,-0.4127,-0.4046,0.0,0.0,0.0,0.0,0.0,0.0,0.0,0.0,0.0,0.0,0.0,0.0,0.0,0.0,0.0,-1.7147,-1.7383,-1.7561,-1.7633,-1.7911,-1.7911,-1.7361,-1.7828,-1.8203,-1.8203,-1.8511,-1.8701,-1.8701,-1.8935,-1.9122,-1.9122,-1.9166,-1.921,-1.921,-1.9268,-1.9298,-1.9298,-1.9298,-1.9298,-1.9298,-1.9298,0.0,-1.9298,-1.9298,-1.919,-1.8977,-1.8977,-1.8855,-1.8669,-1.8669,-1.8485,-1.8102,-1.6513,-1.5908,-1.5895,-1.5844,-1.5831,-1.5831,-1.5831,-1.5719,-1.5619,-1.5769,-1.5632,-1.5407,-1.5557,-1.5507,0.0,-1.5382,-1.4555,-1.3799,-1.4217,-1.3496,-1.2771,-1.3264,-1.3366,-1.3366,-1.3366,-1.3366,-1.3366,-1.3366,-1.3366,-1.3213,-1.272,-1.272,-1.2759,-1.2662,-1.2638,-1.2443,-1.1907,-1.1468,-1.1198,-1.1198,-1.0732,-1.0413,-1.0413,-1.029,-1.0051,-0.96,-0.9461,-0.9044,-0.8271,-0.7952,-0.747,-0.6742,-0.6719,-0.6333,-0.5522,-0.5522,-0.5172,-0.4539,-0.4332,-0.4246,0.0,0.0,0.0,0.0,0.0,0.0,0.0,0.0,0.0,0.0,0.0,-1.6608,-1.6555,0.0,-1.6999,-1.7293,-1.7456,-1.7667,-1.7989,-1.8335,-1.8423,-1.8101,-1.835,-1.8613,-1.8774,-1.8961,-1.9063,-1.9063,-1.921,-1.9298,-1.9298,-1.9298,-1.9298,-1.9298,-1.9298,-1.9298,-1.9298,-1.9298,-1.9298,-1.9298,-1.9298,-1.9298,-1.9298,-1.9298,-1.9298,-1.9298,-1.9298,-1.9298,-1.9298,-1.9298,-1.921,-1.8972,-1.8016,-1.7436,-1.715,-1.715,-1.715,-1.715,-1.715,-1.6925,-1.6675,-1.7011,-1.655,-1.5897,-1.645,-1.6224,-1.5821,-1.596,-1.5178,-1.4366,-1.4646,-1.3893,-1.3136,-1.3429,-1.3506,-1.3429,-1.3111,-1.3059,-1.2956,-1.2673,-1.2828,-1.2956,-1.2648,-1.2658,-1.2515,-1.1928,-1.179,-1.1657,-1.1384,-1.0796,-1.0511,-1.0781,-1.0314,-0.9994,-0.9994,-0.9994,-0.9895,-0.9632,-0.9543,-0.9348,-0.8974,-0.8841,-0.8446,-0.7675,-0.7644,-0.7041,-0.5795,-0.5795,-0.5398,-0.4593,-0.4502,-0.441,0.0,0.0,0.0,0.0,0.0,0.0,0.0,-1.5879,-1.593,-1.6081,-1.6257,-1.6378,-1.6497,-1.6604,-1.685,-1.7376,-1.7491,-1.7722,-1.8321,-1.8686,-1.8902,-1.8902,-1.8902,-1.8994,-1.9283,-1.9298,-1.9298,-1.9298,-1.9298,-1.9298,-1.9298,-1.9298,-1.9298,-1.9298,-1.9298,-1.9298,-1.9298,-1.9298,-1.9298,-1.9298,-1.9298,-1.9298,-1.9298,-1.9298,-1.9298,-1.9298,-1.9298,-1.9298,-1.9298,-1.9298,-1.9298,-1.9298,-1.9298,-1.8975,-1.8496,-1.8496,-1.8496,-1.8496,-1.8496,-1.8107,-1.7705,-1.8296,-1.7504,-1.6469,-1.7353,-1.7,-1.6367,-1.6582,-1.5884,-1.5119,-1.5221,-1.4527,-1.3842,-1.3997,-1.4049,-1.3894,-1.3288,-1.3158,-1.2925,-1.217,-1.2405,-1.2665,-1.2431,-1.2405,-1.2141,-1.1356,-1.104,-1.0866,-1.0739,-1.0222,-0.9979,-1.0328,-0.9979,-0.9688,-0.9656,-0.9624,-0.9599,-0.9599,-0.9599,-0.9599,-0.9599,-0.9599,-0.9265,-0.8558,-0.8558,-0.7818,-0.6316,-0.6316,-0.5814,-0.4862,-0.4869,-0.4714,-1.2702,-1.339,-1.4148,-1.4268,-1.4962,-1.5713,0.0,-1.6153,-1.6163,-1.6183,-1.6574,-1.6847,-1.664,-1.6985,-1.74,-1.7712,-1.8054,-1.838,-1.8705,-1.9049,-1.9254,-1.9254,-1.9254,-1.9268,-1.9298,-1.9298,-1.9298,-1.9298,-1.9298,-1.9298,-1.9298,-1.9298,-1.9298,-1.9298,-1.9298,-1.9298,-1.9298,-1.9298,-1.9298,-1.9298,-1.9298,-1.9298,-1.9298,-1.9298,-1.9298,-1.9298,-1.9298,-1.9298,-1.9298,-1.9298,-1.9298,-1.9298,-1.9298,-1.9254,-1.9195,-1.9195,-1.9195,-1.9195,-1.9195,-1.9143,-1.9092,-1.9169,-1.9066,-1.891,-1.904,-1.8988,-1.8884,-1.8936,-1.7749,-1.6609,-1.7134,-1.6068,-1.5033,-1.5815,-1.6001,-1.5842,-1.5284,-1.5178,-1.4778,-1.3396,-1.319,-1.2893,-1.1882,-1.172,-1.1872,-1.2336,-1.1948,-1.1414,-1.0932,-1.0802,-1.0613,-1.0259,-1.0181,-1.0064,-0.9868,-0.9713,-0.9599,-0.9599,-0.9599,-0.9599,-0.9599,-0.9599,-0.9542,-0.9452,-0.9452,-0.9017,-0.8107,-0.8107,-0.7341,-0.5852,-0.5777,-0.5336,-1.4495,-1.4843,-1.5153,-1.5153,-1.5499,-1.5832,-1.595,-1.5974,-1.5991,-1.6132,-1.6228,-1.6447,-1.6904,-1.7127,-1.7493,-1.8271,-1.8513,-1.8735,-1.9052,-1.921,-1.9298,-1.9298,-1.9298,-1.9298,-1.9298,-1.9298,-1.9298,-1.9298,-1.9298,-1.9298,-1.9298,-1.9298,-1.9298,-1.9298,-1.9298,-1.9298,-1.9298,-1.9298,-1.9298,-1.9298,-1.9298,-1.9298,-1.9298,-1.9298,-1.9298,-1.9298,-1.9298,-1.9298,-1.9298,-1.9298,-1.9298,-1.9298,-1.9298,-1.9298,-1.9298,-1.9298,-1.9298,-1.9298,-1.9298,-1.9298,-1.9298,-1.9298,-1.9194,-1.9104,-1.9246,-1.9194,-1.9104,-1.9246,-1.8408,-1.7503,-1.7779,-1.679,-1.5835,-1.6219,-1.6166,-1.59,-1.5339,-1.5206,-1.4911,-1.3959,-1.4051,-1.4132,-1.3673,-1.3024,-1.2695,-1.2972,-1.1839,-1.0869,-1.0632,-1.054,-1.0421,-1.0212,-1.0186,-1.018,-1.008,-1.0007,-0.9941,-0.9941,-0.9835,-0.9778,-0.9778,-0.9656,-0.9599,-0.9599,-0.9599,-0.9204,-0.8404,-0.8404,-0.7808,-0.6686,-0.666,-0.6462,-1.5808,-1.5808,-1.5808,-1.5808,-1.5808,-1.5832,-1.5998,-1.595,-1.5967,-1.6179,-1.6177,-1.6356,-1.7112,-1.7231,-1.7541,-1.8625,-1.8735,-1.8829,-1.9242,-1.9298,-1.9298,-1.9298,-1.9298,-1.9298,-1.9298,-1.9298,-1.9298,-1.9298,-1.9298,-1.9298,-1.9298,-1.9298,-1.9298,-1.9298,-1.9298,-1.9298,-1.9298,-1.9298,-1.9298,-1.9298,-1.9298,-1.9298,-1.9298,-1.9298,-1.9298,-1.9298,-1.9298,-1.9298,-1.9298,-1.9298,-1.9298,-1.9298,-1.9298,-1.9298,-1.9298,-1.9298,-1.9298,-1.9298,-1.9298,-1.9298,-1.9298,-1.9298,-1.9182,-1.9052,-1.9246,-1.9104,-1.8947,-1.9156,-1.8658,-1.812,-1.812,-1.749,-1.6909,-1.6988,-1.6816,-1.6444,-1.5847,-1.566,-1.5366,-1.4513,-1.4712,-1.4846,-1.4363,-1.3609,-1.2943,-1.2644,-1.1396,-1.0482,-1.0482,-1.0387,-1.0333,-1.0333,-1.0292,-1.0268,-1.0268,-1.0219,-1.0186,-1.0186,-1.0064,-0.9991,-0.9991,-0.9843,-0.9778,-0.9778,-0.9778,-0.9469,-0.8891,-0.8891,-0.8481,-0.7699,-0.7699,-0.7554,-1.5808,-1.5808,-1.5808,-1.5808,-1.5808,-1.595,-1.6471,-1.6376,-1.6258,-1.6527,-1.68,-1.6994,-1.7077,-1.7313,-1.7771,-1.8654,-1.8574,-1.8617,-1.922,-1.9298,-1.9298,-1.9298,-1.9298,-1.9298,-1.9298,-1.9298,-1.9298,-1.9298,-1.9298,-1.9298,-1.9298,-1.9298,-1.9298,-1.9298,-1.9298,-1.9298,-1.9298,-1.9298,-1.9298,-1.9298,-1.9298,-1.9298,-1.9298,-1.9298,-1.9298,-1.9298,-1.9298,-1.9298,-1.9298,-1.9298,-1.9298,-1.9298,-1.9298,-1.9298,-1.9298,-1.9298,-1.9298,-1.9298,-1.9298,-1.9298,-1.9298,-1.9298,-1.9298,-1.9272,-1.9298,-1.9104,-1.8895,-1.8895,-1.8646,-1.8396,-1.8396,-1.837,-1.8422,-1.8738,-1.8567,-1.8187,-1.7635,-1.7331,-1.6683,-1.5248,-1.498,-1.4471,-1.277,-1.2445,-1.2037,-1.0962,-1.0743,-1.068,-1.068,-1.068,-1.0672,-1.0672,-1.0498,-1.0401,-1.0401,-1.0266,-1.0186,-1.0186,-1.0186,-1.0178,-1.0178,-1.0204,-1.017,-1.017,-1.017,-1.017,-1.0144,-1.0144,-0.9727,-0.8936,-0.8936,-0.841,-1.5808,-1.5808,-1.5808,-1.5808,-1.5927,-1.6069,-1.6069,-1.614,-1.6295,-1.6541,-1.6709,-1.7033,-1.7769,-1.7996,-1.826,-1.8783,-1.8797,-1.8817,-1.9,-1.9026,-1.9104,-1.9272,-1.9298,-1.9298,-1.9298,-1.9298,-1.9298,-1.9298,-1.9298,-1.9298,-1.9298,-1.9298,-1.9298,-1.9298,-1.9298,-1.9298,-1.9298,-1.9298,-1.9298,-1.9298,-1.9298,-1.9298,-1.9298,-1.9298,-1.9298,-1.9298,-1.9298,-1.9298,-1.9298,-1.9298,-1.9298,-1.9298,-1.9298,-1.9298,-1.9298,-1.9298,-1.9298,-1.9298,-1.9298,-1.9298,-1.9298,-1.9298,-1.9298,-1.9298,-1.9298,-1.9104,-1.8895,-1.8895,-1.8646,-1.8396,-1.8396,-1.8265,-1.8174,-1.8279,-1.8227,-1.8095,-1.7911,-1.778,-1.7595,-1.708,-1.6856,-1.6538,-1.5941,-1.5209,-1.4056,-1.2118,-1.1181,-1.0688,-1.0688,-1.0688,-1.0688,-1.0688,-1.0639,-1.0607,-1.0607,-1.055,-1.0544,-1.0544,-1.0404,-1.0339,-1.0339,-1.0251,-1.0186,-1.0186,-1.0186,-1.0186,-1.0186,-1.0186,-1.0056,-0.9795,-0.9795,-0.96,-1.5927,-1.5879,-1.5832,-1.5927,-1.5998,-1.6045,-1.595,-1.614,-1.6376,-1.6565,-1.6766,-1.7167,-1.7997,-1.8192,-1.8404,-1.8954,-1.8947,-1.8895,-1.8895,-1.8974,-1.9078,-1.9156,-1.9246,-1.9298,-1.9298,-1.9298,-1.9298,-1.9298,-1.9298,-1.9298,-1.9298,-1.9298,-1.9298,-1.9298,-1.9298,-1.9298,-1.9298,-1.9298,-1.9298,-1.9298,-1.9298,-1.9298,-1.9298,-1.9298,-1.9298,-1.9298,-1.9298,-1.9298,-1.9298,-1.9298,-1.9298,-1.9298,-1.9298,-1.9298,-1.9298,-1.9298,-1.9298,-1.9272,-1.9194,-1.9156,-1.9156,-1.9011,-1.8985,-1.8985,-1.8985,-1.8855,-1.8738,-1.8738,-1.8567,-1.8396,-1.8396,-1.8265,-1.8148,-1.8148,-1.8069,-1.799,-1.799,-1.7911,-1.7859,-1.7859,-1.7714,-1.7477,-1.7067,-1.6021,-1.4754,-1.3221,-1.239,-1.161,-1.0798,-1.0688,-1.0688,-1.0688,-1.0688,-1.0688,-1.0688,-1.0688,-1.0688,-1.0688,-1.059,-1.0498,-1.0498,-1.0412,-1.0373,-1.0373,-1.0373,-1.0373,-1.0373,-1.0373,-1.0373,-1.0373,-1.0373,-1.0349,-1.6106,-1.5998,-1.5879,-1.6143,-1.6025,-1.593,-1.6194,-1.6455,-1.6678,-1.6678,-1.7022,-1.7485,-1.7873,-1.7953,-1.8268,-1.9092,-1.9052,-1.8869,-1.8869,-1.9104,-1.9168,-1.8947,-1.9156,-1.9298,-1.9298,-1.9298,-1.9298,-1.9298,-1.9298,-1.9298,-1.9298,-1.9298,-1.9298,-1.9298,-1.9298,-1.9298,-1.9298,-1.9298,-1.9298,-1.9298,-1.9298,-1.9298,-1.9298,-1.9298,-1.9298,-1.9298,-1.9298,-1.9298,-1.9298,-1.9298,-1.9298,-1.9272,-1.9272,-1.9272,-1.9246,-1.9246,-1.9246,-1.922,-1.8947,-1.8869,-1.8869,-1.8527,-1.8422,-1.8422,-1.8396,-1.8396,-1.837,-1.837,-1.837,-1.837,-1.837,-1.837,-1.837,-1.837,-1.8174,-1.799,-1.799,-1.7806,-1.7608,-1.7608,-1.7608,-1.7252,-1.618,-1.4995,-1.4191,-1.4191,-1.4137,-1.3302,-1.1072,-1.0798,-1.077,-1.0724,-1.0688,-1.0688,-1.0688,-1.0688,-1.0688,-1.0688,-1.0688,-1.0688,-1.0688,-1.0688,-1.0688,-1.0688,-1.0688,-1.0688,-1.0688,-1.0688,-1.0688,-1.0688,-1.0688,-1.0607,-1.5879,-1.5855,-1.5885,-1.6209,-1.6529,-1.6801,-1.684,-1.7239,-1.7583,-1.7583,-1.7867,-1.8207,-1.8517,-1.876,-1.8875,-1.867,-1.8553,-1.8527,-1.8527,-1.8593,-1.8776,-1.9142,-1.9246,-1.9298,-1.9298,-1.9298,-1.9298,-1.9298,-1.9298,-1.9298,-1.9298,-1.9298,-1.9298,-1.9298,-1.9298,-1.9298,-1.9298,-1.9298,-1.9298,-1.9298,-1.9298,-1.9298,-1.9298,-1.9298,-1.9298,-1.9298,-1.9298,-1.9298,-1.9298,-1.9298,-1.9182,-1.9,-1.9,-1.8855,-1.8632,-1.8632,-1.8632,-1.8579,-1.8305,-1.8646,-1.9156,-1.8869,-1.8764,-1.8724,-1.8475,-1.8265,-1.8095,-1.8095,-1.795,-1.7793,-1.7793,-1.7793,-1.7793,-1.7793,-1.7911,-1.799,-1.799,-1.7938,-1.7911,-1.7911,-1.7753,-1.7503,-1.7226,-1.6207,-1.5423,-1.5423,-1.4674,-1.3572,-1.2146,-1.1955,-1.1637,-1.0798,-1.0688,-1.0688,-1.0688,-1.0688,-1.0688,-1.0688,-1.0688,-1.0688,-1.0688,-1.0688,-1.0688,-1.0688,-1.0688,-1.0688,-1.0688,-1.0688,-1.0688,-1.0688,-1.0688,-1.0672,-1.6341,-1.6292,-1.6284,-1.6581,-1.6892,-1.7106,-1.7111,-1.7413,-1.7761,-1.7875,-1.8042,-1.8275,-1.8571,-1.8796,-1.8852,-1.8643,-1.862,-1.862,-1.862,-1.8724,-1.8881,-1.9104,-1.9234,-1.9298,-1.9298,-1.9298,-1.9298,-1.9298,-1.9298,-1.9298,-1.9298,-1.9182,-1.913,-1.913,-1.913,-1.9182,-1.9298,-1.9182,-1.913,-1.913,-1.8985,-1.8907,-1.8907,-1.9063,-1.913,-1.913,-1.926,-1.9298,-1.9298,-1.9298,-1.9194,-1.9078,-1.9078,-1.8959,-1.8776,-1.8672,-1.862,-1.8593,-1.8279,-1.8515,-1.8855,-1.8463,-1.8331,-1.8279,-1.8108,-1.8029,-1.799,-1.799,-1.7885,-1.778,-1.778,-1.7687,-1.7608,-1.7608,-1.7714,-1.7832,-1.7832,-1.7832,-1.7832,-1.7832,-1.7687,-1.7608,-1.7608,-1.7067,-1.6472,-1.5968,-1.5316,-1.4298,-1.2607,-1.2842,-1.2716,-1.1582,-1.1446,-1.1227,-1.0743,-1.0688,-1.0688,-1.0688,-1.0688,-1.0688,-1.0688,-1.0688,-1.0688,-1.0688,-1.0688,-1.0688,-1.0688,-1.0688,-1.0688,-1.0688,-1.0688,-1.0688,-1.6989,-1.6889,-1.6764,-1.7043,-1.7132,-1.7171,-1.7198,-1.7438,-1.7674,-1.7914,-1.7989,-1.8099,-1.8346,-1.8479,-1.858,-1.8748,-1.8843,-1.8869,-1.8843,-1.9037,-1.9116,-1.8921,-1.9104,-1.926,-1.926,-1.926,-1.926,-1.926,-1.922,-1.9194,-1.9246,-1.9026,-1.8895,-1.8895,-1.8895,-1.9,-1.9246,-1.9043,-1.8926,-1.89,-1.864,-1.8522,-1.8522,-1.8826,-1.8945,-1.8972,-1.9194,-1.9299,-1.9299,-1.9299,-1.9272,-1.9246,-1.9203,-1.9162,-1.9095,-1.8831,-1.8738,-1.8686,-1.8396,-1.8319,-1.8268,-1.7806,-1.7635,-1.7635,-1.7608,-1.7766,-1.7938,-1.7938,-1.7938,-1.7938,-1.7938,-1.778,-1.7608,-1.7608,-1.7608,-1.7608,-1.7608,-1.7608,-1.7608,-1.7608,-1.7608,-1.7608,-1.7608,-1.7608,-1.7252,-1.626,-1.5994,-1.5156,-1.3139,-1.3464,-1.3437,-1.2309,-1.2173,-1.1764,-1.077,-1.0688,-1.0688,-1.0688,-1.0688,-1.0688,-1.0688,-1.0688,-1.0688,-1.0688,-1.0688,-1.0688,-1.0688,-1.0688,-1.0688,-1.0688,-1.0688,-1.0688,-1.6764,-1.6739,-1.6792,-1.7084,-1.7355,-1.7565,-1.7785,-1.806,-1.8268,-1.8294,-1.8542,-1.866,-1.8442,-1.8795,-1.8928,-1.8253,-1.8581,-1.8791,-1.8527,-1.8527,-1.8646,-1.8869,-1.8947,-1.8974,-1.8974,-1.8974,-1.8974,-1.8974,-1.8698,-1.8672,-1.8947,-1.8921,-1.8895,-1.8895,-1.8895,-1.8921,-1.8974,-1.9153,-1.9122,-1.8894,-1.9066,-1.9151,-1.9151,-1.9205,-1.9247,-1.9247,-1.9287,-1.9287,-1.9287,-1.9287,-1.9165,-1.896,-1.8738,-1.848,-1.8184,-1.7914,-1.7819,-1.7819,-1.7766,-1.7889,-1.8064,-1.7966,-1.7938,-1.7885,-1.7661,-1.7635,-1.7661,-1.7661,-1.7661,-1.7661,-1.7661,-1.7635,-1.7608,-1.7608,-1.7608,-1.7608,-1.7608,-1.7608,-1.7608,-1.7608,-1.7608,-1.7608,-1.7608,-1.7608,-1.7529,-1.7345,-1.6499,-1.5755,-1.5355,-1.376,-1.2254,-1.1126,-1.0989,-1.0907,-1.0724,-1.0688,-1.0688,-1.0688,-1.0688,-1.0688,-1.0688,-1.0688,-1.0688,-1.0688,-1.0688,-1.0688,-1.0688,-1.0688,-1.0688,-1.0688,-1.0688,-1.0688,-1.7168,-1.7168,-1.722,-1.7367,-1.7616,-1.7839,-1.7963,-1.8095,-1.8213,-1.837,-1.841,-1.8384,-1.8227,-1.8436,-1.8489,-1.8069,-1.8227,-1.841,-1.8396,-1.8396,-1.8448,-1.862,-1.8791,-1.8843,-1.8646,-1.8791,-1.8843,-1.8646,-1.8655,-1.8657,-1.8634,-1.8515,-1.852,-1.8688,-1.8688,-1.8838,-1.91,-1.9093,-1.9027,-1.8891,-1.8906,-1.8892,-1.8892,-1.903,-1.9099,-1.9099,-1.9236,-1.9319,-1.9319,-1.9319,-1.9209,-1.9085,-1.8974,-1.8837,-1.8646,-1.8374,-1.8198,-1.8036,-1.7876,-1.7782,-1.7809,-1.7956,-1.8117,-1.8252,-1.8117,-1.8077,-1.8077,-1.8077,-1.7943,-1.7796,-1.7796,-1.7702,-1.7608,-1.7608,-1.7608,-1.7608,-1.7608,-1.7608,-1.7608,-1.7608,-1.7608,-1.7608,-1.7608,-1.7608,-1.7173,-1.5968,-1.5861,-1.5236,-1.3437,-1.2743,-1.22,-1.1637,-1.1582,-1.1337,-1.0751,-1.0688,-1.0688,-1.0688,-1.0688,-1.0688,-1.0688,-1.0688,-1.0688,-1.0688,-1.0688,-1.0688,-1.0688,-1.0688,-1.0688,-1.0688,-1.0688,-1.0688,-1.7608,-1.7608,-1.7608,-1.7608,-1.7766,-1.7911,-1.7911,-1.7911,-1.7964,-1.8187,-1.8122,-1.799,-1.7911,-1.8016,-1.8043,-1.7938,-1.8016,-1.8148,-1.8291,-1.8318,-1.8318,-1.8318,-1.8541,-1.8593,-1.8344,-1.8541,-1.8636,-1.8441,-1.8598,-1.8626,-1.8429,-1.8139,-1.8142,-1.8495,-1.8563,-1.8782,-1.9209,-1.9057,-1.896,-1.8904,-1.8749,-1.8677,-1.8705,-1.8929,-1.8999,-1.9027,-1.925,-1.932,-1.932,-1.932,-1.932,-1.932,-1.9251,-1.9223,-1.9182,-1.8919,-1.8687,-1.8469,-1.8197,-1.8023,-1.7916,-1.8129,-1.8276,-1.841,-1.8477,-1.849,-1.849,-1.849,-1.8317,-1.8116,-1.8116,-1.7956,-1.7782,-1.7782,-1.7782,-1.7782,-1.7782,-1.7782,-1.7782,-1.7782,-1.7729,-1.7689,-1.7689,-1.7648,-1.6962,-1.5129,-1.5236,-1.4513,-1.1773,-1.1773,-1.2037,-1.2037,-1.2037,-1.1664,-1.077,-1.0688,-1.0688,-1.0688,-1.0688,-1.0688,-1.0688,-1.0688,-1.0688,-1.0688,-1.0688,-1.0688,-1.0688,-1.0688,-1.0688,-1.0688,-1.0688,-1.0688,-1.7608,-1.7608,-1.7608,-1.7608,-1.7608,-1.7635,-1.7635,-1.7635,-1.7635,-1.7661,-1.7859,-1.7938,-1.7687,-1.8029,-1.8187,-1.7714,-1.8055,-1.8291,-1.8069,-1.8043,-1.8043,-1.8043,-1.8069,-1.8069,-1.8043,-1.8069,-1.8193,-1.8467,-1.8239,-1.8198,-1.8481,-1.8198,-1.8144,-1.8495,-1.8742,-1.8892,-1.8947,-1.9151,-1.916,-1.892,-1.9187,-1.9321,-1.9321,-1.935,-1.9336,-1.9379,-1.9365,-1.9394,-1.9394,-1.9394,-1.9394,-1.9367,-1.907,-1.8934,-1.8908,-1.864,-1.8532,-1.8506,-1.845,-1.8611,-1.877,-1.881,-1.8476,-1.8116,-1.841,-1.849,-1.849,-1.849,-1.8477,-1.845,-1.845,-1.8424,-1.841,-1.841,-1.841,-1.841,-1.841,-1.841,-1.841,-1.841,-1.8156,-1.7955,-1.7955,-1.7769,-1.7529,-1.7305,-1.5556,-1.4164,-1.3841,-1.2064,-1.0852,-1.0852,-1.0852,-1.0798,-1.0724,-1.0688,-1.0688,-1.0688,-1.0688,-1.0688,-1.0688,-1.0688,-1.0688,-1.0688,-1.0688,-1.0688,-1.0688,-1.0688,-1.0688,-1.0688,-1.0688,-1.0688,-1.7608,-1.7608,-1.7608,-1.7608,-1.7608,-1.7608,-1.7608,-1.7608,-1.7608,-1.7608,-1.7687,-1.7714,-1.7608,-1.7766,-1.7845,-1.7635,-1.7793,-1.7871,-1.7766,-1.7766,-1.7766,-1.7766,-1.7911,-1.7938,-1.778,-1.7911,-1.8142,-1.8468,-1.8372,-1.8411,-1.8724,-1.8264,-1.8237,-1.8724,-1.8859,-1.9007,-1.9211,-1.9304,-1.93,-1.9199,-1.9348,-1.9401,-1.9401,-1.9401,-1.9401,-1.9401,-1.9401,-1.9401,-1.9401,-1.9401,-1.9401,-1.9388,-1.9239,-1.9185,-1.9172,-1.9093,-1.8905,-1.8744,-1.8744,-1.8704,-1.8691,-1.8836,-1.8743,-1.8596,-1.8931,-1.904,-1.904,-1.904,-1.8891,-1.8744,-1.8744,-1.8624,-1.849,-1.849,-1.849,-1.849,-1.849,-1.849,-1.849,-1.849,-1.8397,-1.8317,-1.8317,-1.821,-1.7912,-1.7218,-1.6904,-1.6234,-1.4806,-1.3723,-1.2772,-1.2109,-1.1221,-1.0688,-1.0688,-1.0688,-1.0688,-1.0688,-1.0688,-1.0688,-1.0688,-1.0688,-1.0688,-1.0688,-1.0688,-1.0688,-1.0688,-1.0688,-1.0688,-1.0688,-1.0688,-1.0688,-1.7608,-1.7608,-1.7608,-1.7608,-1.7608,-1.7608,-1.7608,-1.7608,-1.7609,-1.7702,-1.7716,-1.7742,-1.7862,-1.7876,-1.7822,-1.7729,-1.7716,-1.7689,-1.7622,-1.7608,-1.7608,-1.7608,-1.778,-1.7806,-1.7608,-1.7942,-1.8252,-1.8491,-1.8571,-1.8744,-1.9038,-1.8543,-1.8463,-1.8876,-1.9011,-1.9158,-1.9388,-1.9401,-1.9401,-1.9401,-1.9401,-1.9401,-1.9401,-1.9401,-1.9401,-1.9401,-1.9401,-1.9401,-1.9401,-1.9401,-1.9401,-1.9401,-1.9401,-1.9401,-1.9401,-1.9401,-1.9267,-1.9052,-1.9052,-1.8918,-1.8812,-1.8985,-1.9052,-1.9092,-1.9334,-1.9401,-1.9401,-1.9401,-1.9212,-1.9052,-1.9052,-1.8905,-1.8772,-1.8772,-1.8772,-1.8772,-1.8772,-1.8772,-1.8772,-1.8772,-1.8677,-1.8624,-1.8624,-1.8544,-1.8241,-1.7421,-1.7672,-1.7381,-1.5721,-1.4697,-1.3849,-1.3048,-1.1698,-1.081,-1.0704,-1.0688,-1.0688,-1.0688,-1.0688,-1.0688,-1.0688,-1.0688,-1.0688,-1.0688,-1.0688,-1.0688,-1.0688,-1.0688,-1.0688,-1.0688,-1.0688,-1.0688,-1.7608,-1.7608,-1.7608,-1.7608,-1.7608,-1.7608,-1.7608,-1.7608,-1.7662,-1.7956,-1.7995,-1.8103,-1.8424,-1.8477,-1.8384,-1.8035,-1.7995,-1.7902,-1.7648,-1.7608,-1.7608,-1.7608,-1.7608,-1.7608,-1.7608,-1.813,-1.8518,-1.849,-1.8758,-1.9052,-1.9374,-1.9078,-1.889,-1.889,-1.9212,-1.9388,-1.9401,-1.9401,-1.9401,-1.9401,-1.9401,-1.9401,-1.9401,-1.9401,-1.9401,-1.9401,-1.9401,-1.9401,-1.9401,-1.9401,-1.9401,-1.9401,-1.9401,-1.9401,-1.9401,-1.9401,-1.9388,-1.9388,-1.9388,-1.9388,-1.9388,-1.9388,-1.9388,-1.9388,-1.9401,-1.9401,-1.9401,-1.9401,-1.9388,-1.9388,-1.9388,-1.9388,-1.9388,-1.9388,-1.9388,-1.9388,-1.9388,-1.9388,-1.9388,-1.9388,-1.9118,-1.889,-1.889,-1.8677,-1.849,-1.849,-1.7492,-1.6698,-1.6698,-1.4604,-1.3098,-1.3098,-1.1954,-1.107,-1.072,-1.0688,-1.0688,-1.0688,-1.0688,-1.0688,-1.0688,-1.0688,-1.0688,-1.0688,-1.0688,-1.0688,-1.0688,-1.0688,-1.0688,-1.0688,-1.0688,-1.0688,-1.7608,-1.7608,-1.7608,-1.7608,-1.7608,-1.7608,-1.7608,-1.7742,-1.7902,-1.7969,-1.8183,-1.8384,-1.8477,-1.849,-1.8464,-1.837,-1.8156,-1.7955,-1.7889,-1.7716,-1.7608,-1.7608,-1.7608,-1.7662,-1.7849,-1.8263,-1.8571,-1.8771,-1.9065,-1.9294,-1.9388,-1.9308,-1.9225,-1.9225,-1.9348,-1.9401,-1.9401,-1.9401,-1.9401,-1.9401,-1.9401,-1.9401,-1.9401,-1.9401,-1.9401,-1.9401,-1.9401,-1.9401,-1.9401,-1.9401,-1.9401,-1.9401,-1.9401,-1.9401,-1.9401,-1.9401,-1.9401,-1.9401,-1.9401,-1.9401,-1.9401,-1.9401,-1.9401,-1.9401,-1.9401,-1.9401,-1.9401,-1.9401,-1.9401,-1.9401,-1.9401,-1.9401,-1.9401,-1.9401,-1.9401,-1.9401,-1.9401,-1.9401,-1.9401,-1.9401,-1.9321,-1.9225,-1.9225,-1.8442,-1.7819,-1.7819,-1.675,-1.5955,-1.5955,-1.4392,-1.3326,-1.3326,-1.2041,-1.1147,-1.1062,-1.1025,-1.1005,-1.0919,-1.0911,-1.0854,-1.0696,-1.0688,-1.0688,-1.0688,-1.0688,-1.0688,-1.0688,-1.0688,-1.0688,-1.0688,-1.0688,-1.0688,-1.7608,-1.7608,-1.7608,-1.7608,-1.7675,-1.7756,-1.7756,-1.7969,-1.8223,-1.8329,-1.8503,-1.8691,-1.8826,-1.8853,-1.8784,-1.8677,-1.8383,-1.8143,-1.8009,-1.7782,-1.7608,-1.7608,-1.7608,-1.7702,-1.7969,-1.8289,-1.8611,-1.8876,-1.9199,-1.9401,-1.9401,-1.9401,-1.9401,-1.9401,-1.9401,-1.9401,-1.9401,-1.9401,-1.9401,-1.9401,-1.9401,-1.9401,-1.9401,-1.9401,-1.9401,-1.9401,-1.9401,-1.9401,0.0,-1.9401,-1.9401,-1.9401,-1.9401,-1.9401,-1.9401,-1.9401,-1.9401,-1.9401,-1.9401,-1.9401,-1.9401,-1.9401,-1.9401,-1.9401,-1.9401,-1.9401,-1.9401,-1.9401,-1.9401,-1.9401,-1.9401,-1.9401,-1.9401,-1.9401,-1.9401,-1.9401,-1.9401,-1.9401,-1.9401,-1.9401,-1.9401,-1.9401,-1.9401,-1.8735,-1.8052,-1.7572,-1.6809,-1.6131,-1.5658,-1.439,-1.3505,-1.3505,-1.2257,-1.1435,-1.1435,-1.1305,-1.1147,-1.107,-1.109,-1.1013,-1.0899,-1.0891,-1.0891,-1.0891,-1.0834,-1.0794,-1.0794,-1.0756,-1.0688,-1.0688,-1.0688,-1.0688,0.0,-1.7635,-1.7635,-1.7635,-1.7822,-1.8049,-1.8049,-1.8276,0.0,-1.8836,-1.8916,-1.9038,-1.9348,-1.9401,-1.9308,-1.8998,-1.8718,-1.841,-1.8089,-1.7796,-1.7608,-1.7608,-1.7608,-1.7716,-1.8022,-1.833,-1.8624,-1.8903,-1.9212,-1.9401,-1.9401,-1.9401,-1.9401,-1.9401,-1.9401,-1.9401,-1.9401,-1.9401,-1.9401,-1.9401,-1.9401,-1.9401,-1.9401,-1.9401,-1.9401,-1.9401,-1.9401,-1.9401,-1.9401,-1.9401,-1.9401,-1.9401,-1.9401,-1.9401,-1.9401,-1.9401,-1.9401,-1.9401,-1.9401,-1.9401,-1.9401,-1.9401,-1.9401,-1.9401,-1.9401,-1.9401,-1.9401,-1.9401,-1.9401,-1.9401,-1.9401,-1.9401,-1.9401,-1.9401,-1.9401,-1.9401,-1.9401,-1.9401,-1.9401,-1.9401,-1.9401,-1.9401,-1.9401,-1.9301,-1.8823,-1.7572,-1.7308,-1.6779,-1.548,-1.4292,-1.3545,-1.3545,-1.2513,-1.1806,-1.1806,-1.1459,-1.1228,-1.1211,-1.1211,-1.1203,-1.1195,-1.1195,-1.1195,-1.1195,-1.107,-1.1017,-1.1017,-1.0837,-1.0729,-1.0729,-1.072,-1.0712,-1.7916,0.0,-1.7916,-1.7916,-1.8143,-1.8384,0.0,-1.8611,-1.881,-1.8876,-1.9105,-1.9321,-1.9388,-1.9401,-1.9374,-1.9308,-1.9011,-1.8718,-1.8424,-1.7929,-1.7608,-1.7608,-1.7608,-1.7822,-1.833,-1.845,-1.8704,-1.9254,-1.9361,-1.9401,-1.9401,-1.9401,-1.9401,-1.9401,-1.9401,-1.9401,-1.9401,-1.9401,-1.9401,-1.9401,-1.9401,-1.9401,-1.9401,-1.9401,-1.9401,-1.9401,-1.9401,-1.9401,-1.9401,-1.9401,-1.9401,-1.9401,-1.9401,-1.9401,-1.9401,-1.9401,-1.9401,-1.9401,-1.9401,-1.9401,-1.9401,-1.9401,-1.9401,-1.9401,-1.9401,-1.9401,-1.9401,-1.9401,-1.9401,-1.9401,-1.9401,-1.9401,-1.9401,-1.9401,-1.9401,-1.9401,-1.9401,-1.9401,-1.9401,-1.9401,-1.9401,-1.9401,-1.9401,-1.859,-1.7513,-1.6249,-1.5213,-1.4143,-1.2844,-1.2432,-1.2251,-1.2251,-1.1988,-1.1806,-1.1806,-1.1695,-1.1581,-1.1443,-1.1435,-1.137,-1.1203,-1.1195,-1.1195,-1.1195,-1.1183,-1.1159,-1.1159,-1.1118,-1.1066,-1.1066,-1.0992,-1.0935,-1.8223,-1.8223,-1.8223,-1.8223,-1.8477,-1.8691,-1.8691,-1.8918,-1.9132,-1.9132,-1.9252,-1.9401,-1.9401,-1.9401,-1.9401,-1.9401,-1.9011,-1.8571,-1.8157,-1.7916,-1.7742,-1.7595,-1.7608,-1.7849,-1.8437,-1.849,-1.8759,-1.9348,-1.9401,-1.9401,-1.9401,-1.9401,-1.9401,-1.9401,-1.9401,-1.9401,-1.9401,-1.9401,-1.9401,-1.9401,-1.9401,-1.9401,-1.9401,-1.9401,-1.9401,-1.9401,-1.9401,-1.9468,-1.9589,-1.9589,-1.9639,-1.976,-1.976,-1.976,-1.976,-1.976,-1.976,-1.976,-1.976,-1.976,-1.976,-1.976,-1.976,-1.976,-1.976,-1.976,-1.9733,-1.9629,-1.9666,-1.976,-1.976,-1.976,-1.976,-1.976,-1.976,-1.976,-1.976,-1.976,-1.976,-1.976,-1.976,-1.976,-1.976,-1.9079,-1.7914,-1.606,-1.5098,-1.3913,-1.2048,-1.1806,-1.1806,-1.1806,-1.1806,-1.1806,-1.1806,-1.1806,-1.1766,-1.163,-1.163,-1.1581,-1.1484,-1.1476,-1.1435,-1.1354,-1.1354,-1.1276,-1.1195,-1.1195,-1.1195,-1.1195,-1.1126,-1.1086,-1.8557,-1.8584,-1.8639,-1.8571,-1.8771,-1.8985,-1.8985,-1.9185,-1.9401,-1.9401,-1.9401,-1.9401,-1.9401,-1.9401,-1.9401,-1.9401,-1.8906,-1.8303,-1.7822,-1.7836,-1.7849,-1.7635,-1.7648,-1.7876,-1.8437,-1.8531,-1.8784,-1.9361,-1.9401,-1.9401,-1.9401,-1.9401,-1.9401,-1.9401,-1.9401,-1.9401,-1.9401,-1.9401,-1.9401,-1.9401,-1.9401,-1.9401,-1.9401,-1.9401,-1.9428,-1.9468,-1.9468,-1.9599,-1.9867,-1.9867,-1.9983,-2.0197,-2.0197,-2.0197,-2.0197,-2.0197,-2.0197,-2.0197,-2.0197,-2.0197,-2.0197,-2.0197,-2.0197,-2.0197,-2.0197,-2.0237,-2.0224,-2.0,-2.005,-2.0197,-2.0197,-2.0197,-2.0197,-2.0197,-2.0197,-2.0197,-2.0197,-2.0197,-2.0197,-2.0197,-2.0197,-2.0197,-2.0197,-1.9997,-1.9078,-1.6706,-1.5986,-1.487,-1.2487,-1.201,-1.1849,-1.1817,-1.1847,-1.1831,-1.1806,-1.1806,-1.1806,-1.1806,-1.1806,-1.1806,-1.1806,-1.1806,-1.1733,-1.1541,-1.1541,-1.1459,-1.1276,-1.1276,-1.1276,-1.1276,-1.1252,-1.1236,-1.8836,-1.9038,-1.9201,-1.8918,-1.9078,-1.9334,-1.9334,-1.9361,-1.9401,-1.9401,-1.9401,-1.9401,-1.9401,-1.9401,-1.9401,-1.9401,-1.8906,-1.8464,-1.8357,-1.7943,-1.7662,-1.7582,-1.7782,-1.8089,-1.8464,-1.8718,-1.8998,-1.9374,-1.9401,-1.9401,-1.9401,-1.9401,-1.9401,-1.9401,-1.9401,-1.9401,-1.9401,-1.9401,-1.9401,-1.9401,-1.9401,-1.9401,-1.9401,-1.9401,-1.9535,-1.9733,-1.9733,-1.9893,-2.0144,-2.0144,-2.0157,-2.0197,-2.0197,-2.0197,-2.0197,-2.0197,-2.0197,-2.0197,-2.0197,-2.0197,-2.0197,-2.0197,-2.0197,-2.0197,-2.0197,-2.0414,-2.0601,-2.0561,-2.0388,-2.0197,-2.0197,-2.0197,-2.0197,-2.0197,-2.0197,-2.0197,-2.0197,-2.0197,-2.0197,-2.0197,-2.0197,-2.0197,-2.0197,-2.017,-1.9633,-1.8179,-1.694,-1.5669,-1.4194,-1.2966,-1.2166,-1.1973,-1.1965,-1.1931,-1.1823,-1.1806,-1.1806,-1.1806,-1.1806,-1.1806,-1.1806,-1.1806,-1.179,-1.1766,-1.1766,-1.1749,-1.1725,-1.1725,-1.1725,-1.1687,-1.1533,-1.1459,-1.9158,-1.9294,-1.9361,-1.9199,-1.9294,-1.9401,-1.9401,-1.9401,-1.9401,-1.9401,-1.9401,-1.9401,-1.9401,-1.9401,-1.9348,-1.9158,-1.9038,-1.8798,-1.8289,-1.8143,-1.7983,-1.7648,-1.7836,-1.8143,-1.8464,-1.8758,-1.9052,-1.9374,-1.9401,-1.9401,-1.9401,-1.9401,-1.9401,-1.9401,-1.9401,-1.9401,-1.9401,-1.9401,-1.9401,-1.9401,-1.9401,-1.9481,-1.9629,-1.9629,-1.976,-2.004,-2.004,-2.0201,-2.0468,-2.0468,-2.0561,-2.0677,-2.0677,-2.0677,-2.0677,-2.0677,-2.0677,-2.0677,-2.0677,-2.0677,-2.0677,-2.0677,-2.0677,-2.0677,-2.0677,-2.0802,-2.0909,-2.0909,-2.0815,-2.0677,-2.0677,-2.0677,-2.0677,-2.0677,-2.0677,-2.0677,-2.0677,-2.0677,-2.0677,-2.0677,-2.0677,-2.0677,-2.0677,-2.0575,-2.0025,-1.8766,-1.7275,-1.5835,-1.457,-1.3178,-1.2272,-1.2159,-1.2151,-1.215,-1.2069,-1.206,-1.1979,-1.1823,-1.1806,-1.1806,-1.1806,-1.1806,-1.1806,-1.1806,-1.1806,-1.1806,-1.1806,-1.1806,-1.1806,-1.1806,-1.1717,-1.1646,-1.9401,-1.9401,-1.9401,-1.9401,-1.9401,-1.9401,-1.9401,-1.9401,-1.9401,-1.9401,-1.9401,-1.9401,-1.9401,-1.9401,-1.9321,-1.9065,-1.9158,-1.9025,-1.8316,-1.8303,-1.821,-1.7742,-1.7929,-1.8209,-1.8464,-1.8811,-1.9118,-1.9374,-1.9401,-1.9401,-1.9401,-1.9401,-1.9401,-1.9401,-1.9401,-1.9401,-1.9401,-1.9401,-1.9401,-1.9401,-1.9468,-1.9615,-1.98,-1.9867,-2.0067,-2.0304,-2.0304,-2.0508,-2.0775,-2.0775,-2.0909,-2.1109,-2.1109,-2.1109,-2.1109,-2.1109,-2.1109,-2.1109,-2.1109,-2.1109,-2.1109,-2.1109,-2.1109,-2.1109,-2.1109,-2.1109,-2.1109,-2.1109,-2.1109,-2.1109,-2.1109,-2.1109,-2.1109,-2.1109,-2.1109,-2.1109,-2.1109,-2.1109,-2.1109,-2.1109,-2.1109,-2.1109,-2.1109,-2.0671,-1.9982,-1.8986,-1.7209,-1.5616,-1.4629,-1.3277,-1.2418,-1.2369,-1.2369,-1.2353,-1.2312,-1.2304,-1.219,-1.1922,-1.1855,-1.1806,-1.1806,-1.1806,-1.1806,-1.1806,-1.1806,-1.1806,-1.1806,-1.1806,-1.1806,-1.1806,-1.1806,-1.1806,-1.9401,-1.9401,-1.9401,-1.9401,-1.9401,-1.9401,-1.9401,-1.9401,-1.9401,-1.9401,-1.9401,-1.9401,-1.9401,-1.9401,-1.9388,-1.9361,-1.9118,-1.8903,-1.8836,-1.8383,-1.8009,-1.7996,-1.8249,-1.8464,-1.849,-1.9027,-1.9374,-1.9401,-1.9401,-1.9401,-1.9401,-1.9401,-1.9401,-1.9401,-1.9401,-1.9401,-1.9401,-1.9401,-1.9401,-1.9401,-1.9639,-1.9773,-1.9813,-2.005,-2.0361,-2.0672,-2.0672,-2.0815,-2.1082,-2.1082,-2.1096,-2.1109,-2.1109,-2.1109,-2.1109,-2.1109,-2.1109,-2.1109,-2.1109,-2.1109,-2.1109,-2.1109,-2.1109,-2.1109,-2.1109,-2.1109,-2.1109,-2.1109,-2.1109,-2.1109,-2.1109,-2.1109,-2.1109,-2.1109,-2.1109,-2.1109,-2.1109,-2.1109,-2.1109,-2.1109,-2.1109,-2.1109,-2.1109,-1.9992,-1.9107,-1.9012,-1.6711,-1.4962,-1.4865,-1.3635,-1.2735,-1.2596,-1.258,-1.2515,-1.232,-1.2304,-1.2296,-1.2272,-1.1955,-1.1806,-1.1806,-1.1806,-1.1806,-1.1806,-1.1806,-1.1806,-1.1806,-1.1806,-1.1806,-1.1806,-1.1806,-1.1806,-1.9401,-1.9401,-1.9401,-1.9401,-1.9401,-1.9401,-1.9401,-1.9401,-1.9401,-1.9401,-1.9401,-1.9401,-1.9401,-1.9401,-1.9401,-1.9401,-1.9294,-1.9132,-1.8916,-1.8703,-1.8503,-1.8316,-1.8584,-1.8758,-1.8758,-1.9132,-1.9401,-1.9401,-1.9401,-1.9401,-1.9401,-1.9401,-1.9401,-1.9401,-1.9401,-1.9401,-1.9401,-1.9401,-1.9481,-1.9639,-1.9746,-1.9987,-2.0347,-2.0454,-2.0668,-2.0949,-2.0949,-2.1002,-2.1109,-2.1109,-2.1109,-2.1109,-2.1109,-2.1109,-2.1109,-2.1109,-2.1109,-2.1109,-2.1109,-2.1109,-2.1109,-2.1109,-2.1109,-2.1109,-2.1109,-2.1109,-2.1109,-2.1109,-2.1109,-2.1109,-2.1109,-2.1109,-2.1109,-2.1109,-2.1109,-2.1109,-2.1109,-2.1109,-2.1109,-2.1109,-2.1109,-2.1109,-2.1109,-1.9941,-1.9004,-1.9004,-1.6646,-1.4912,-1.4912,-1.3678,-1.2775,-1.2743,-1.2735,-1.2678,-1.2613,-1.2532,-1.2499,-1.2499,-1.2239,-1.2109,-1.2109,-1.1996,-1.1931,-1.1931,-1.1833,-1.1806,-1.1806,-1.1806,-1.1806,-1.1806,-1.1806,-1.1806,-1.9401,-1.9401,-1.9401,-1.9401,-1.9401,-1.9401,-1.9401,-1.9401,-1.9401,-1.9401,-1.9401,-1.9401,-1.9401,-1.9401,-1.9401,-1.9401,-1.9401,-1.9321,-1.9092,-1.8985,-1.8823,-1.8651,-1.8798,-1.889,-1.889,-1.9199,-1.9401,-1.9401,-1.9401,-1.9401,-1.9401,-1.9401,-1.9401,-1.9401,-1.9401,-1.9401,-1.9401,-1.9481,-1.9653,-1.9933,-2.0027,-2.0281,-2.0712,-2.0806,-2.0922,-2.1109,-2.1109,-2.1109,-2.1109,-2.1109,-2.1109,-2.1109,-2.1109,-2.1109,-2.1109,-2.1109,-2.1109,-2.1109,-2.1109,-2.1109,-2.1109,-2.1109,-2.1109,-2.1109,-2.1109,-2.1109,-2.1109,-2.1109,-2.1109,-2.1109,-2.1109,-2.1109,-2.1109,-2.1109,-2.1109,-2.1109,-2.1109,-2.1109,-2.1109,-2.1109,-2.1109,-2.1109,-2.1109,-1.9941,-1.8876,-1.8428,-1.6398,-1.4749,-1.4292,-1.3391,-1.2807,-1.2807,-1.2807,-1.2807,-1.2807,-1.2718,-1.2653,-1.2653,-1.254,-1.2426,-1.2312,-1.2182,-1.2086,-1.2086,-1.2004,-1.1945,-1.1857,-1.1857,-1.1833,-1.1806,-1.1806,-1.1806,-1.9401,-1.9401,-1.9401,-1.9401,-1.9401,-1.9401,-1.9401,-1.9401,-1.9401,-1.9401,-1.9401,-1.9401,-1.9401,-1.9401,-1.9401,-1.9401,-1.9401,-1.9401,-1.9401,-1.9118,-1.8903,-1.8903,-1.8903,-1.8903,-1.8903,-1.9227,-1.9401,-1.9401,-1.9401,-1.9401,-1.9401,-1.9401,-1.9401,-1.9401,-1.9401,-1.9401,-1.9401,-1.9653,-1.9947,-2.021,-2.0535,-2.0712,-2.0726,-2.0975,-2.1109,-2.1109,-2.1109,-2.1109,-2.1109,-2.1109,-2.1109,-2.1109,-2.1109,-2.1109,-2.1109,-2.1109,-2.1109,-2.1109,-2.1109,-2.1109,-2.1109,-2.1109,-2.1109,-2.1109,-2.1109,-2.1109,-2.1109,-2.1109,-2.1109,-2.1109,-2.1109,-2.1109,-2.1109,-2.1109,-2.1109,-2.1109,-2.1109,-2.1109,-2.1109,-2.1109,-2.1109,-2.1109,-2.1109,-1.9941,-1.8556,-1.7206,-1.5814,-1.439,-1.2964,-1.2807,-1.2807,-1.2807,-1.2807,-1.2807,-1.2807,-1.2807,-1.2807,-1.2807,-1.2807,-1.2645,-1.2328,-1.2312,-1.2312,-1.2312,-1.2304,-1.2183,-1.1997,-1.1997,-1.1947,-1.1815,-1.1815,-1.1806,-1.933,-1.9243,-1.9084,-1.933,-1.9401,-1.9401,-1.9401,-1.9401,-1.9401,-1.9401,-1.9401,-1.9401,-1.9401,-1.9401,-1.9401,-1.9401,-1.9401,-1.9401,-1.9401,-1.9321,-1.9267,-1.9267,-1.9267,-1.9267,-1.9267,-1.9348,-1.9401,-1.9401,-1.9401,-1.9401,-1.9401,-1.9401,-1.9401,-1.9401,-1.9401,-1.9401,-1.9401,-1.9653,-1.9947,-2.021,-2.0535,-2.0788,-2.0989,-2.1069,-2.1109,-2.1109,-2.1109,-2.1109,-2.1109,-2.1109,-2.1109,-2.1109,-2.1109,-2.1109,-2.1109,-2.1109,-2.1109,-2.1109,-2.1109,-2.1109,-2.1109,-2.1109,-2.1109,-2.1109,-2.1109,-2.1109,-2.1109,-2.1109,-2.1109,-2.1109,-2.1109,-2.1109,-2.1109,-2.1109,-2.1109,-2.1109,-2.1109,-2.1109,-2.1109,-2.1109,-2.1109,-2.1109,-2.1109,-1.9941,-1.8556,-1.7206,-1.5814,-1.439,-1.2964,-1.2807,-1.2807,-1.2807,-1.2807,-1.2807,-1.2807,-1.2807,-1.2807,-1.2807,-1.2807,-1.2759,-1.2653,-1.2556,-1.2515,-1.2515,-1.2369,-1.228,-1.2223,-1.2223,-1.2199,-1.2142,-1.2012,-1.1955,-1.8952,-1.8939,-1.8939,-1.9156,-1.9301,-1.9401,-1.9401,-1.9401,-1.9401,-1.9401,-1.9401,-1.9401,-1.9401,-1.9401,-1.9401,-1.9401,-1.9401,-1.9401,-1.9401,-1.9401,-1.9401,-1.9401,-1.9401,-1.9401,-1.9401,-1.9401,-1.9401,-1.9401,-1.9401,-1.9401,-1.9401,-1.9401,-1.9401,-1.9401,-1.9401,-1.9401,-1.9401,-1.9773,-2.0024,-2.021,-2.0655,-2.0935,-2.1109,-2.1109,-2.1109,-2.1109,-2.1109,-2.1109,-2.1109,-2.1109,-2.1109,-2.1109,-2.1109,-2.1109,-2.1109,-2.1109,-2.1109,-2.1109,-2.1109,-2.1109,-2.1109,-2.1109,-2.1109,-2.1109,-2.1109,-2.1109,-2.1109,-2.1109,-2.1109,-2.1136,-2.1256,-2.1283,-2.1256,-2.1136,-2.1109,-2.1109,-2.1109,-2.1109,-2.1109,-2.1109,-2.1109,-2.1109,-2.1109,-2.0399,-1.9367,-1.8011,-1.6138,-1.439,-1.2964,-1.2807,-1.2807,-1.2807,-1.2807,-1.2807,-1.2807,-1.2807,-1.2807,-1.2807,-1.2807,-1.2807,-1.2807,-1.2735,-1.267,-1.267,-1.2572,-1.2483,-1.241,-1.241,-1.2377,-1.2304,-1.219,-1.2111,-1.8386,-1.859,-1.8823,-1.8881,-1.9113,-1.933,-1.933,-1.933,-1.9372,-1.9401,-1.9401,-1.9401,-1.9401,-1.9401,-1.9401,-1.9401,-1.9401,-1.9401,-1.9401,-1.9401,-1.9401,-1.9401,-1.9401,-1.9401,-1.9401,-1.9401,-1.9401,-1.9401,-1.9401,-1.9401,-1.9401,-1.9401,-1.9401,-1.9401,-1.9401,-1.9401,-1.9401,-1.9947,-2.0197,-2.021,-2.0797,-2.1109,-2.1109,-2.1109,-2.1109,-2.1109,-2.1109,-2.1109,-2.1109,-2.1109,-2.1109,-2.1109,-2.1109,-2.1109,-2.1109,-2.1109,-2.1109,-2.1109,-2.1109,-2.1109,-2.1109,-2.1109,-2.1109,-2.1109,-2.1109,-2.1109,-2.1122,-2.1149,-2.1149,-2.1216,-2.1542,-2.1622,-2.1555,-2.1256,-2.1189,-2.1189,-2.1189,-2.1189,-2.1189,-2.1189,-2.1162,-2.1086,-2.0991,-2.0932,-2.0399,-1.8876,-1.6387,-1.4259,-1.2964,-1.2807,-1.2807,-1.2807,-1.2807,-1.2807,-1.2807,-1.2807,-1.2807,-1.2807,-1.2807,-1.2807,-1.2807,-1.2807,-1.2807,-1.2807,-1.2807,-1.2751,-1.2621,-1.2621,-1.2507,-1.2353,-1.2337,-1.2328,-1.834,-1.8311,-1.8311,-1.8794,-1.8939,-1.8997,-1.8997,-1.8997,-1.9084,-1.933,-1.9401,-1.9401,-1.9401,-1.9401,-1.9401,-1.9401,-1.9401,-1.9401,-1.9401,-1.9401,-1.9401,-1.9401,-1.9401,-1.9401,-1.9401,-1.9401,-1.9401,-1.9401,-1.9401,-1.9401,-1.9401,-1.9401,-1.9401,-1.9401,-1.9401,-1.9401,-1.9401,-1.9947,-2.0197,-2.021,-2.0797,-2.1109,-2.1109,-2.1109,-2.1109,-2.1109,-2.1109,-2.1109,-2.1109,-2.1109,-2.1109,-2.1109,-2.1109,-2.1109,-2.1109,-2.1109,-2.1109,-2.1109,-2.1109,-2.1109,-2.1109,-2.1109,-2.1109,-2.1109,-2.1109,-2.1109,-2.1162,-2.1422,-2.1489,-2.1555,-2.185,-2.193,-2.1917,-2.1804,-2.179,-2.179,-2.179,-2.179,-2.179,-2.179,-2.1649,-2.1121,-2.0043,-1.9631,-1.862,-1.6138,-1.4324,-1.3128,-1.284,-1.2807,-1.2807,-1.2807,-1.2807,-1.2807,-1.2807,-1.2807,-1.2807,-1.2807,-1.2807,-1.2807,-1.2807,-1.2807,-1.2807,-1.2807,-1.2807,-1.2783,-1.2742,-1.2742,-1.2726,-1.2686,-1.2572,-1.2539,-1.7918,-1.7989,-1.8119,-1.8532,-1.8648,-1.8706,-1.8852,-1.8677,-1.8661,-1.9272,-1.9401,-1.9401,-1.9401,-1.9401,-1.9401,-1.9401,-1.9401,-1.9401,-1.9401,-1.9401,-1.9401,-1.9401,-1.9401,-1.9401,-1.9401,-1.9401,-1.9401,-1.9401,-1.9401,-1.9401,-1.9401,-1.9401,-1.9401,-1.9401,-1.9401,-1.9401,-1.9401,-1.9947,-2.0197,-2.021,-2.0797,-2.1109,-2.1109,-2.1109,-2.1109,-2.1109,-2.1109,-2.1109,-2.1109,-2.1109,-2.1109,-2.1109,-2.1109,-2.1109,-2.1109,-2.1109,-2.1109,-2.1109,-2.1109,-2.1109,-2.1109,-2.1109,-2.1109,-2.1136,-2.1283,-2.1355,-2.1408,-2.1716,-2.1796,-2.1863,-2.2124,-2.2191,-2.2198,-2.213,-2.2058,-2.1991,-2.1991,-2.1991,-2.1958,-2.1747,-2.1595,-2.1228,-2.033,-1.9584,-1.8167,-1.5458,-1.4427,-1.3683,-1.2914,-1.2807,-1.2807,-1.2807,-1.2807,-1.2807,-1.2807,-1.2807,-1.2807,-1.2807,-1.2807,-1.2807,-1.2807,-1.2807,-1.2807,-1.2807,-1.2807,-1.2807,-1.2807,-1.2807,-1.2807,-1.2799,-1.2735,-1.2596,-1.7508,-1.7726,-1.8031,-1.8194,-1.8298,-1.8398,-1.8677,-1.8369,-1.8265,-1.9127,-1.9301,-1.9301,-1.9301,-1.9372,-1.9388,-1.9301,-1.9372,-1.9401,-1.9401,-1.9401,-1.9388,-1.9301,-1.9301,-1.9272,-1.9214,-1.9272,-1.9301,-1.9301,-1.9372,-1.9401,-1.9401,-1.9401,-1.9401,-1.9401,-1.9401,-1.9372,-1.9301,-1.9857,-2.0106,-2.015,-2.0797,-2.1077,-2.1014,-2.1077,-2.1109,-2.1109,-2.1109,-2.1109,-2.1109,-2.1109,-2.1109,-2.1109,-2.1109,-2.1109,-2.1109,-2.1109,-2.1109,-2.1109,-2.1109,-2.1109,-2.1109,-2.1109,-2.1149,-2.1229,-2.1515,-2.1622,-2.1716,-2.1977,-2.2025,-2.2025,-2.2317,-2.233,-2.2281,-2.2224,-2.208,-2.1972,-2.1972,-2.1972,-2.1872,-2.154,-2.1222,-2.0838,-2.0256,-1.9177,-1.7559,-1.5056,-1.4694,-1.4248,-1.2979,-1.2797,-1.283,-1.2896,-1.2864,-1.2848,-1.2848,-1.2823,-1.2807,-1.2807,-1.2807,-1.2774,-1.2708,-1.2708,-1.27,-1.2634,-1.2667,-1.27,-1.2634,-1.2634,-1.2634,-1.2634,-1.2634,-1.247,-1.7508,-1.7726,-1.7943,-1.7696,-1.7843,-1.806,-1.8119,-1.806,-1.8165,-1.8823,-1.8968,-1.8968,-1.8968,-1.9214,-1.9301,-1.8997,-1.9214,-1.9401,-1.9401,-1.9401,-1.9301,-1.8997,-1.8968,-1.8852,-1.8561,-1.8794,-1.8968,-1.8968,-1.9243,-1.9401,-1.9401,-1.9401,-1.9401,-1.9401,-1.9401,-1.9272,-1.8968,-1.9485,-1.9785,-1.9859,-2.0704,-2.0951,-2.0666,-2.0982,-2.1109,-2.1109,-2.1109,-2.1109,-2.1109,-2.1109,-2.1109,-2.1109,-2.1109,-2.1109,-2.1109,-2.1109,-2.1109,-2.1109,-2.1109,-2.1109,-2.1109,-2.1109,-2.1315,-2.1529,-2.1569,-2.1756,-2.1991,-2.2271,-2.213,-2.1994,-2.2248,-2.2087,-2.1893,-2.1863,-2.1846,-2.1829,-2.1829,-2.1829,-2.1829,-2.1761,-2.0556,-1.9061,-1.7453,-1.6045,-1.454,-1.2848,-1.2601,-1.2662,-1.2783,-1.2817,-1.2919,-1.3261,-1.3157,-1.3059,-1.3059,-1.2888,-1.2807,-1.2807,-1.2807,-1.2675,-1.2371,-1.2379,-1.2239,-1.1942,-1.2213,-1.2213,-1.1942,-1.1942,-1.1942,-1.1942,-1.1942,-1.1916,-1.7508,-1.7726,-1.7914,-1.7567,-1.7755,-1.8002,-1.8002,-1.7843,-1.7901,-1.8502,-1.8502,-1.8515,-1.8852,-1.9026,-1.8997,-1.8677,-1.8748,-1.8923,-1.9098,-1.9127,-1.9055,-1.891,-1.891,-1.8765,-1.8415,-1.8532,-1.8706,-1.8881,-1.9026,-1.9214,-1.9401,-1.9401,-1.9401,-1.9401,-1.9401,-1.9243,-1.891,-1.9425,-1.9788,-1.9956,-2.0358,-2.0456,-2.0329,-2.0488,-2.0729,-2.1109,-2.1109,-2.1109,-2.1109,-2.1109,-2.1109,-2.1109,-2.1109,-2.1109,-2.1109,-2.1109,-2.1109,-2.1109,-2.1109,-2.0982,-2.0882,-2.1277,-2.1186,-2.1065,-2.1608,-2.1693,-2.1683,-2.1982,-2.1957,-2.1881,-2.2009,-2.1897,-2.1725,-2.1518,-2.1449,-2.1415,-2.122,-2.1496,-2.1725,-2.1518,-2.0729,-1.9611,-1.819,-1.6708,-1.5249,-1.3861,-1.2916,-1.2407,-1.2448,-1.2475,-1.2536,-1.2716,-1.2646,-1.26,-1.26,-1.2496,-1.2458,-1.2458,-1.2407,-1.2286,-1.2152,-1.2061,-1.1843,-1.1479,-1.1843,-1.1942,-1.181,-1.181,-1.181,-1.181,-1.181,-1.1677,-1.7508,-1.7696,-1.7813,-1.7579,-1.7696,-1.7884,-1.7884,-1.7696,-1.7655,-1.8194,-1.8135,-1.8148,-1.859,-1.8735,-1.8677,-1.834,-1.8357,-1.8473,-1.8735,-1.8765,-1.8765,-1.8677,-1.8677,-1.8532,-1.8211,-1.8252,-1.8398,-1.8648,-1.8735,-1.8881,-1.9127,-1.9156,-1.9156,-1.9156,-1.9156,-1.8981,-1.8677,-1.9198,-1.9609,-1.9851,-2.0011,-2.0074,-1.9979,-2.0074,-2.0361,-2.0856,-2.0856,-2.0856,-2.0856,-2.0856,-2.0856,-2.0856,-2.0856,-2.0856,-2.0856,-2.0856,-2.0856,-2.0856,-2.0856,-2.0718,-2.0663,-2.1161,-2.1039,-2.0839,-2.1528,-2.1594,-2.1493,-2.1743,-2.1725,-2.1656,-2.1656,-2.16,-2.1462,-2.1151,-2.1081,-2.1012,-2.0735,-2.1116,-2.1427,-2.1151,-2.0873,-2.0318,-1.9052,-1.7559,-1.6084,-1.4754,-1.3271,-1.2255,-1.2201,-1.2186,-1.2249,-1.2353,-1.2316,-1.2293,-1.2293,-1.2222,-1.2192,-1.2192,-1.2122,-1.2022,-1.192,-1.1836,-1.1602,-1.1201,-1.1433,-1.1556,-1.1512,-1.1512,-1.1512,-1.1512,-1.1512,-1.1347,-1.7508,-1.7508,-1.7508,-1.7508,-1.7508,-1.7537,-1.7537,-1.7508,-1.7608,-1.7931,-1.8002,-1.8002,-1.8031,-1.8252,-1.834,-1.806,-1.8223,-1.8415,-1.8415,-1.8415,-1.834,-1.8089,-1.806,-1.7901,-1.7567,-1.7813,-1.8031,-1.806,-1.8282,-1.8415,-1.8444,-1.8444,-1.8444,-1.8444,-1.8444,-1.8311,-1.806,-1.8566,-1.8957,-1.9168,-1.9788,-1.9934,-1.9647,-1.9979,-2.0106,-2.0138,-2.0138,-2.0138,-2.0138,-2.0138,-2.0138,-2.0138,-2.0138,-2.0138,-2.0138,-2.0138,-2.0138,-2.0138,-2.0138,-2.0304,-2.0501,-2.0546,-2.0869,-2.1268,-2.134,-2.1531,-2.1781,-2.1794,-2.1518,-2.1242,-2.1242,-2.1012,-2.0735,-2.0735,-2.0735,-2.0735,-2.07,-2.0735,-2.0735,-2.0735,-2.07,-2.0214,-1.8692,-1.7163,-1.5637,-1.4183,-1.2631,-1.1785,-1.2137,-1.2209,-1.2345,-1.2731,-1.2596,-1.2472,-1.2472,-1.2323,-1.2192,-1.2192,-1.2185,-1.2047,-1.1737,-1.1696,-1.1551,-1.1207,-1.1036,-1.0867,-1.075,-1.075,-1.075,-1.075,-1.075,-1.075,-1.7508,-1.7508,-1.7508,-1.7508,-1.7508,-1.7508,-1.7508,-1.7508,-1.7537,-1.7667,-1.7696,-1.7696,-1.7696,-1.7931,-1.8048,-1.7726,-1.7743,-1.7901,-1.8106,-1.8135,-1.8119,-1.8002,-1.8002,-1.7884,-1.7537,-1.7608,-1.7755,-1.7972,-1.8089,-1.8223,-1.8386,-1.8386,-1.8386,-1.8386,-1.8386,-1.8416,-1.845,-1.8466,-1.8678,-1.9104,-1.9328,-1.9392,-1.9264,-1.9392,-1.9456,-1.9456,-1.9456,-1.9692,-2.0106,-2.0106,-2.0106,-2.0106,-2.0106,-2.0106,-2.0106,-2.0106,-2.0106,-2.0132,-2.031,-2.0275,-2.0251,-2.0833,-2.0851,-2.0746,-2.1112,-2.1167,-2.1081,-2.1081,-2.0977,-2.0873,-2.0873,-2.0804,-2.07,-2.07,-2.07,-2.07,-2.07,-2.07,-2.07,-2.07,-2.07,-2.0527,-1.9959,-1.7795,-1.5919,-1.5389,-1.3174,-1.1655,-1.1799,-1.1799,-1.1871,-1.2008,-1.1959,-1.193,-1.193,-1.1839,-1.1811,-1.1811,-1.1713,-1.1622,-1.1517,-1.1421,-1.1338,-1.12,-1.1145,-1.1016,-1.0833,-1.0732,-1.0684,-1.0684,-1.0684,-1.0684,-1.7391,-1.7508,-1.7508,-1.7508,-1.7508,-1.7508,-1.7508,-1.7508,-1.7508,-1.7508,-1.7508,-1.7508,-1.7508,-1.7696,-1.7755,-1.7537,-1.7508,-1.7567,-1.7784,-1.7813,-1.7813,-1.7813,-1.7813,-1.7726,-1.7508,-1.7508,-1.7608,-1.7813,-1.7813,-1.7901,-1.8094,-1.8094,-1.8094,-1.8094,-1.8094,-1.825,-1.8551,-1.838,-1.8553,-1.9104,-1.9104,-1.9104,-1.9104,-1.9104,-1.9104,-1.9104,-1.9104,-1.936,-1.9756,-1.9756,-1.9756,-1.9756,-1.9756,-1.9756,-1.9756,-1.9756,-1.9806,-1.9918,-2.0093,-2.0149,-2.0207,-2.08,-2.0702,-2.0505,-2.0916,-2.0873,-2.07,-2.07,-2.07,-2.07,-2.07,-2.07,-2.07,-2.07,-2.07,-2.07,-2.07,-2.07,-2.07,-2.07,-2.07,-2.07,-2.07,-1.8145,-1.6096,-1.6096,-1.3523,-1.1584,-1.1584,-1.1584,-1.1584,-1.1584,-1.1584,-1.1584,-1.1584,-1.1584,-1.1584,-1.1584,-1.1525,-1.147,-1.147,-1.1369,-1.1314,-1.1314,-1.1302,-1.1192,-1.1063,-1.0941,-1.0846,-1.0765,-1.0765,-1.0738,0.0,0.0,0.0,-1.7508,-1.7508,-1.7508,-1.7508,-1.7508,-1.7508,-1.7508,-1.7508,-1.7508,-1.7508,-1.7508,-1.7508,-1.7508,-1.7508,-1.7508,-1.7508,-1.7508,-1.7508,-1.7508,-1.7508,-1.7508,-1.7508,-1.7508,-1.7508,-1.7508,-1.7508,-1.7508,-1.7508,-1.7508,-1.7508,-1.7508,-1.7508,-1.7774,-1.8287,-1.83,-1.8553,-1.9104,-1.9104,-1.9104,-1.9104,-1.9104,-1.9104,-1.9104,-1.9104,-1.9104,-1.9104,-1.9104,-1.9104,-1.9104,-1.9104,-1.9104,-1.9104,-1.9116,-1.9285,-1.9503,-1.9515,-1.9866,-2.0313,-2.0325,-2.0495,-2.07,-2.07,-2.07,-2.07,-2.07,-2.07,-2.07,-2.07,-2.07,-2.07,-2.07,-2.07,-2.07,-2.07,-2.07,-2.07,-2.07,-2.07,-2.07,-2.07,-1.818,-1.6167,-1.6096,-1.3559,-1.1655,-1.1619,-1.1584,-1.1584,-1.1584,-1.1584,-1.1584,-1.1584,-1.1584,-1.1584,-1.1584,-1.1584,-1.1584,-1.1584,-1.1584,-1.1584,-1.1584,-1.147,-1.1396,-1.1396,-1.1274,-1.109,-1.0921,-1.0921,-1.084,-1.7156,0.0,0.0,0.0,0.0,0.0,-1.7508,-1.7508,-1.7508,-1.7508,-1.7508,-1.7508,-1.7508,-1.7508,-1.7508,-1.7508,-1.7508,-1.7508,-1.7508,-1.7508,-1.7508,-1.7508,-1.7508,-1.7508,-1.7508,-1.7508,-1.7508,-1.7508,-1.7508,-1.7508,-1.7508,-1.7508,-1.7508,-1.7508,-1.7508,-1.7774,-1.8287,-1.83,-1.8553,-1.9104,-1.9104,-1.9104,-1.9104,-1.9104,-1.9104,-1.9104,-1.9104,-1.9104,-1.9104,-1.9104,-1.9104,-1.9104,-1.9104,-1.9104,-1.9128,-1.9322,-1.9443,-1.9551,-1.995,-2.018,-2.035,-2.0531,-2.064,-2.07,-2.07,-2.07,-2.07,-2.07,-2.07,-2.07,-2.07,-2.07,-2.07,-2.07,-2.07,-2.07,-2.07,-2.07,-2.07,-2.07,-2.07,-2.07,-2.07,-1.9076,-1.7373,-1.6272,-1.4476,-1.286,-1.1727,-1.1584,-1.1584,-1.1584,-1.1584,-1.1584,-1.1584,-1.1584,-1.1584,-1.1584,-1.1584,-1.1584,-1.1584,-1.1584,-1.1584,-1.1584,-1.1579,-1.1558,-1.1558,-1.1329,-1.1179,-1.1104,-1.1104,-1.1118,-1.7156,-1.7508,-1.7508,-1.7508,0.0,0.0,-1.7508,-1.7508,-1.7508,-1.7508,-1.7508,-1.7508,-1.7508,-1.7508,-1.7508,-1.7508,-1.7508,-1.7508,-1.7508,-1.7508,-1.7508,-1.7508,-1.7508,-1.7508,-1.7508,-1.7508,-1.7508,-1.7508,-1.7508,-1.7508,-1.7508,-1.7508,-1.7508,-1.7508,-1.7508,-1.7774,-1.8287,-1.83,-1.8553,-1.9104,-1.9104,-1.9104,-1.9104,-1.9104,-1.9104,-1.9104,-1.9104,-1.9104,-1.9104,-1.9104,-1.9104,-1.9104,-1.9104,-1.9104,-1.914,-1.9406,-1.9576,-1.9733,-2.0156,-2.0386,-2.0495,-2.0652,-2.07,-2.07,-2.07,-2.07,-2.07,-2.07,-2.07,-2.07,-2.07,-2.07,-2.07,-2.07,-2.07,-2.07,-2.07,-2.07,-2.07,-2.07,-2.07,-2.07,-2.07,-1.9425,-1.7875,-1.6343,-1.4831,-1.3353,-1.1799,-1.1584,-1.1584,-1.1584,-1.1584,-1.1584,-1.1584,-1.1584,-1.1584,-1.1584,-1.1584,-1.1584,-1.1584,-1.1584,-1.1584,-1.1584,-1.1584,-1.1584,-1.1584,-1.1443,-1.1356,-1.1288,-1.1227,-1.12,-1.695,-1.7391,-1.7508,-1.7508,-1.7508,0.0,-1.7508,-1.7508,-1.7508,-1.7508,-1.7508,-1.7508,-1.7508,-1.7508,-1.7508,-1.7508,-1.7508,-1.7508,-1.7508,-1.7508,-1.7508,-1.7508,-1.7508,-1.7508,-1.7508,-1.7508,-1.7508,-1.7508,-1.7508,-1.7508,-1.7508,-1.7508,-1.7508,-1.7508,-1.7544,-1.781,-1.8287,-1.8324,-1.8589,-1.9104,-1.9104,-1.9104,-1.9104,-1.9104,-1.9104,-1.9104,-1.9104,-1.9104,-1.9104,-1.9104,-1.9104,-1.9104,-1.9104,-1.9128,-1.9189,-1.9443,-1.9721,-1.9965,-2.0265,-2.0507,-2.07,-2.07,-2.07,-2.07,-2.07,-2.07,-2.07,-2.07,-2.07,-2.07,-2.07,-2.07,-2.07,-2.07,-2.07,-2.07,-2.07,-2.07,-2.07,-2.07,-2.07,-2.07,-2.07,-1.9576,-1.8121,-1.659,-1.5079,-1.3603,-1.2043,-1.1727,-1.1584,-1.1584,-1.1584,-1.1584,-1.1584,-1.1584,-1.1584,-1.1584,-1.1584,-1.1584,-1.1584,-1.1584,-1.1584,-1.1584,-1.1584,-1.1584,-1.1584,-1.1584,-1.1552,-1.1416,-1.1308,-1.1247,-1.5628,-1.6703,-1.7508,-1.7508,-1.7508,0.0,-1.7508,-1.7508,-1.7508,-1.7508,-1.7508,-1.7508,-1.7508,-1.7508,-1.7508,-1.7508,-1.7508,-1.7508,-1.7508,-1.7508,-1.7508,-1.7508,-1.7508,-1.7508,-1.7508,-1.7508,-1.7508,-1.7508,-1.7508,-1.7508,-1.7508,-1.7508,-1.7508,-1.7508,-1.7714,-1.7992,-1.8287,-1.8505,-1.877,-1.9104,-1.9104,-1.9104,-1.9104,-1.9104,-1.9104,-1.9104,-1.9104,-1.9104,-1.9104,-1.9104,-1.9104,-1.9104,-1.9104,-1.9237,-1.9455,-1.9733,-2.0011,-2.0277,-2.0531,-2.0664,-2.07,-2.07,-2.07,-2.07,-2.07,-2.07,-2.07,-2.07,-2.07,-2.07,-2.07,-2.07,-2.07,-2.07,-2.07,-2.07,-2.07,-2.07,-2.07,-2.07,-2.07,-2.07,-2.07,-2.0457,-1.9715,-1.8191,-1.667,-1.5141,-1.3638,-1.2359,-1.1584,-1.1584,-1.1584,-1.1584,-1.1584,-1.1584,-1.1584,-1.1584,-1.1584,-1.1584,-1.1584,-1.1584,-1.1584,-1.1584,-1.1584,-1.1584,-1.1584,-1.1584,-1.1606,-1.1572,-1.1545,-1.1531,-1.447,-1.5124,-1.5599,-1.5599,-1.5599,0.0,0.0,-1.6555,-1.6732,-1.7361,-1.7508,-1.7508,-1.7508,-1.7508,-1.7508,-1.7508,-1.7508,-1.7508,-1.7508,-1.7508,-1.7508,-1.7508,-1.7508,-1.7508,-1.7508,-1.7508,-1.7508,-1.7508,-1.7508,-1.7508,-1.7508,-1.7641,-1.7714,-1.7714,-1.7968,-1.8246,-1.8481,-1.8613,-1.8819,-1.9104,-1.9104,-1.9104,-1.9104,-1.9104,-1.9104,-1.9104,-1.9104,-1.9104,-1.9104,-1.9104,-1.9189,-1.9298,-1.9298,-1.9382,-1.9551,-1.9963,-2.0192,-2.035,-2.0616,-2.07,-2.07,-2.07,-2.07,-2.07,-2.07,-2.07,-2.07,-2.07,-2.07,-2.07,-2.07,-2.07,-2.07,-2.07,-2.07,-2.07,-2.07,-2.07,-2.07,-2.07,-2.07,-2.0457,-1.968,-1.9541,-1.8797,-1.6494,-1.5504,-1.4476,-1.2968,-1.2079,-1.1584,-1.1584,-1.1584,-1.1584,-1.1584,-1.1584,-1.1584,-1.1584,-1.1584,-1.1584,-1.1584,-1.1584,-1.1584,-1.1584,-1.1584,-1.1584,-1.1584,-1.1584,-1.1584,-1.1584,-1.1584,-1.1584,-1.3566,-1.3688,-1.3871,-1.3871,-1.3871,-1.4205,0.0,0.0,0.0,-1.7482,-1.7738,-1.7726,-1.7648,-1.7636,-1.7612,-1.7532,-1.7556,-1.7556,-1.7448,-1.7484,-1.7508,-1.7508,-1.7508,-1.7508,-1.7508,-1.7508,-1.7508,-1.7508,-1.7556,-1.7593,-1.7593,-1.7847,-1.798,-1.798,-1.8258,-1.8469,-1.8717,-1.8766,-1.8899,-1.9104,-1.9104,-1.9104,-1.9104,-1.9104,-1.9104,-1.9104,-1.9104,-1.9104,-1.9116,-1.9165,-1.931,-1.9503,-1.9503,-1.9564,-1.9709,-2.0144,-2.035,-2.0422,-2.0628,-2.07,-2.07,-2.07,-2.07,-2.07,-2.07,-2.07,-2.07,-2.07,-2.07,-2.07,-2.07,-2.07,-2.07,-2.07,-2.07,-2.07,-2.07,-2.07,-2.07,-2.07,-2.07,-2.0214,-1.8657,-1.8412,-1.7489,-1.4725,-1.4093,-1.346,-1.2187,-1.1799,-1.1584,-1.1584,-1.1584,-1.1584,-1.1584,-1.1584,-1.1584,-1.1584,-1.1584,-1.1584,-1.1584,-1.1584,-1.1584,-1.1584,-1.1584,-1.1584,-1.1584,-1.1584,-1.1584,-1.1584,-1.1584,-1.1584,-1.3109,-1.3587,-1.4493,0.0,-1.4461,-1.4881,-1.6338,0.0,-1.703,-1.8308,0.0,-1.8481,-1.8239,0.0,0.0,-1.7593,-1.7714,-1.7702,-1.7201,-1.7334,-1.7508,-1.7508,-1.7508,-1.7508,-1.7508,-1.7508,-1.7508,-1.7508,-1.7726,-1.7859,-1.7859,-1.8125,-1.8239,-1.8239,-1.8505,-1.865,-1.8686,-1.8947,-1.908,-1.9104,-1.9104,-1.9104,-1.9104,-1.9104,-1.9104,-1.9104,-1.9104,-1.9104,-1.9128,-1.9358,-1.9467,-1.9503,-1.9503,-1.9793,-2.0229,-2.0289,-2.0458,-2.0664,-2.0688,-2.07,-2.07,-2.07,-2.07,-2.07,-2.07,-2.07,-2.07,-2.07,-2.07,-2.07,-2.07,-2.07,-2.07,-2.07,-2.07,-2.07,-2.07,-2.07,-2.07,-2.07,-2.07,-2.0214,-1.8657,-1.8412,-1.7805,-1.6096,-1.4725,-1.3844,-1.3666,-1.2431,-1.1584,-1.1584,-1.1584,-1.1584,-1.1584,-1.1584,-1.1584,-1.1584,-1.1584,-1.1584,-1.1584,-1.1584,-1.1584,-1.1584,-1.1584,-1.1584,-1.1584,-1.1584,-1.1584,-1.1584,-1.1584,-1.1584,-1.167,-1.1894,0.0,0.0,0.0,0.0,-1.4054,0.0,-1.4972,-1.715,0.0,0.0,0.0,0.0,0.0,0.0,-1.8536,-1.8524,-1.8306,-1.8203,-1.801,-1.7569,-1.7508,-1.7569,-1.7726,-1.7738,-1.781,-1.7937,-1.7931,-1.798,-1.8106,-1.8403,-1.8517,-1.8517,-1.877,-1.8947,-1.8947,-1.9056,-1.9104,-1.9104,-1.9104,-1.9104,-1.9104,-1.9104,-1.9104,-1.9104,-1.9104,-1.9104,-1.9128,-1.9394,-1.96,-1.9757,-1.9914,-2.0108,-2.0325,-2.0483,-2.0603,-2.07,-2.07,-2.07,-2.07,-2.07,-2.07,-2.07,-2.07,-2.07,-2.07,-2.07,-2.07,-2.07,-2.07,-2.07,-2.07,-2.07,-2.07,-2.07,-2.07,-2.07,-2.07,-2.07,-1.9994,-1.8866,-1.7338,-1.7057,-1.6247,-1.3844,-1.296,-1.2574,-1.2574,-1.2008,-1.1584,-1.1584,-1.1584,-1.1584,-1.1584,-1.1584,-1.1584,-1.1584,-1.1584,-1.1584,-1.1584,-1.1584,-1.1584,-1.1584,-1.1584,-1.1584,-1.1584,-1.1584,-1.1584,-1.1584,-1.1584,-1.1584,-1.1699,0.0,0.0,0.0,0.0,0.0,0.0,0.0,0.0,0.0,-1.6513,0.0,0.0,0.0,0.0,0.0,0.0,-1.9004,-1.8433,-1.8613,-1.8584,-1.7919,-1.7744,-1.781,-1.8004,-1.8016,-1.8101,-1.8275,-1.8197,-1.8209,-1.8396,-1.865,-1.8826,-1.8826,-1.9007,-1.9104,-1.9104,-1.9104,-1.9104,-1.9104,-1.9104,-1.9104,-1.9104,-1.9104,-1.9104,-1.9104,-1.9104,-1.9152,-1.9237,-1.9503,-1.9781,-2.0059,-2.0313,-2.0422,-2.0446,-2.0628,-2.07,-2.07,-2.07,-2.07,-2.07,-2.07,-2.07,-2.07,-2.07,-2.07,-2.07,-2.07,-2.07,-2.07,-2.07,-2.07,-2.07,-2.07,-2.07,-2.07,-2.07,-2.07,-2.07,-2.07,-1.946,-1.791,-1.6378,-1.5743,-1.4618,-1.1972,-1.1584,-1.1584,-1.1584,-1.1584,-1.1584,-1.1584,-1.1584,-1.1584,-1.1584,-1.1584,-1.1584,-1.1584,-1.1584,-1.1584,-1.1584,-1.1584,-1.1584,-1.1584,-1.1584,-1.1584,-1.1584,-1.1584,-1.1584,-1.1584,-1.1584,-1.1584,0.0,0.0,0.0,-1.1944,0.0,0.0,0.0,0.0,-1.4215,0.0,0.0,0.0,0.0,0.0,0.0,0.0,0.0,0.0,0.0,-1.8001,-1.8995,-1.8705,-1.842,-1.8275,-1.8275,-1.8275,-1.8287,-1.83,-1.8517,-1.8693,-1.8705,-1.8947,-1.9092,-1.9092,-1.9104,-1.9104,-1.9104,-1.9104,-1.9104,-1.9104,-1.9104,-1.9104,-1.9104,-1.9104,-1.9104,-1.9104,-1.9104,-1.9249,-1.9503,-1.9793,-2.0059,-2.0325,-2.0591,-2.0688,-2.0688,-2.07,-2.07,-2.07,-2.07,-2.07,-2.07,-2.07,-2.07,-2.07,-2.07,-2.07,-2.07,-2.07,-2.07,-2.07,-2.07,-2.07,-2.07,-2.07,-2.07,-2.07,-2.07,-2.07,-2.07,-2.07,-1.946,-1.791,-1.6378,-1.4937,-1.3424,-1.1835,-1.1584,-1.1584,-1.1584,-1.1584,-1.1584,-1.1584,-1.1584,-1.1584,-1.1584,-1.1584,-1.1584,-1.1584,-1.1584,-1.1584,-1.1584,-1.1584,-1.1584,-1.1584,-1.1584,-1.1584,-1.1584,-1.1584,-1.1584,-1.1584,-1.1584,-1.1584,0.0,0.0,-1.2259,-1.1727,0.0,0.0,0.0,0.0,0.0,0.0,0.0,0.0,0.0,0.0,0.0,0.0,0.0,0.0,0.0,-1.8967,-1.9805,-1.9539,-1.9273,-1.9104,-1.9104,-1.8947,-1.8911,-1.9092,-1.8862,-1.879,-1.8971,-1.9056,-1.9104,-1.9104,-1.9104,-1.9104,-1.9104,-1.9104,-1.9104,-1.9104,-1.9104,-1.9104,-1.9104,-1.9104,-1.9104,-1.9116,-1.9285,-1.9418,-1.9539,-1.9987,-2.0229,-2.0337,-2.0603,-2.07,-2.07,-2.07,-2.07,-2.07,-2.07,-2.07,-2.07,-2.07,-2.07,-2.07,-2.07,-2.07,-2.07,-2.07,-2.07,-2.07,-2.07,-2.07,-2.07,-2.07,-2.07,-2.07,-2.07,-2.07,-2.0388,-1.9401,-1.7945,-1.6378,-1.4902,-1.3389,-1.2187,-1.1691,-1.1584,-1.1584,-1.1584,-1.1584,-1.1584,-1.1584,-1.1584,-1.1584,-1.1584,-1.1584,-1.1584,-1.1584,-1.1584,-1.1584,-1.1584,-1.1584,-1.1584,-1.1584,-1.1584,-1.1584,-1.1584,-1.1584,-1.1584,-1.1584,-1.1584,-1.1584,-1.2826,-1.2609,0.0,-1.2193,-1.1846,0.0,-1.147,0.0,-1.2029,0.0,0.0,0.0,0.0,0.0,0.0,0.0,0.0,0.0,0.0,-1.9577,-2.0386,-2.0217,-1.9866,-1.9612,-1.9503,-1.9346,-1.9273,-1.9358,-1.9044,-1.8923,-1.9092,-1.9104,-1.9104,-1.9104,-1.9104,-1.9104,-1.9104,-1.9104,-1.9104,-1.9104,-1.9104,-1.9104,-1.9104,-1.9104,-1.9165,-1.9261,-1.9418,-1.9612,-1.9817,-2.0168,-2.0362,-2.047,-2.064,-2.07,-2.07,-2.07,-2.07,-2.07,-2.07,-2.07,-2.07,-2.07,-2.07,-2.07,-2.07,-2.07,-2.0688,-2.0591,-2.0628,-2.0676,-2.0591,-2.064,-2.07,-2.07,-2.07,-2.07,-2.07,-2.07,-2.0249,-1.8692,-1.7163,-1.5637,-1.4164,-1.261,-1.1584,-1.1584,-1.1584,-1.1584,-1.1584,-1.1584,-1.1584,-1.1584,-1.1584,-1.1584,-1.1584,-1.1584,-1.1584,-1.1584,-1.1584,-1.1584,-1.1584,-1.1584,-1.1584,-1.1584,-1.1584,-1.1584,-1.1584,-1.1584,-1.1584,-1.1584,-1.1584,-1.1584]},{"header":{"parameterUnit":"m.s-1","parameterCategory":1,"la1":30.6,"la2":29.2853,"lo1":-89.7004,"lo2":-87.6739,"dy":0.0162,"dx":0.0183,"nx":112,"ny":82,"refTime":"2023-10-21T18:00:00:Z","depth":0,"parameterNumber":3,"parameterNumberName":"V-component_of_WINDS"},"data":[0.0,0.0,0.0,0.0,0.0,0.0,0.0,0.0,0.0,0.0,0.0,0.0,0.0,0.0,0.0,0.0,0.0,0.0,0.0,0.0,0.0,0.0,0.0,0.0,0.0,0.0,0.0,0.0,0.0,0.0,0.0,0.0,0.0,0.0,0.0,0.0,0.0,0.0,0.0,0.0,0.0,0.0,0.0,0.0,0.0,0.0,0.0,0.0,0.0,0.0,0.0,0.0,0.0,0.0,0.0,0.0,0.0,0.0,0.0,0.0,0.0,0.0,0.0,0.0,0.0,0.0,0.0,0.0,0.0,0.0,0.0,0.0,0.0,0.0,0.0,0.0,0.0,0.0,0.0,0.0,0.0,0.0,0.0,0.0,0.0,0.0,0.0,0.0,0.0,0.0,3.3046,3.2069,3.1276,3.0794,3.0794,3.073,3.0728,3.0799,0.0,0.0,0.0,0.0,0.0,0.0,0.0,0.0,0.0,0.0,0.0,0.0,0.0,0.0,0.0,0.0,0.0,0.0,0.0,0.0,0.0,0.0,0.0,0.0,0.0,0.0,0.0,0.0,0.0,0.0,0.0,0.0,0.0,0.0,0.0,0.0,0.0,0.0,0.0,0.0,0.0,0.0,0.0,0.0,0.0,0.0,0.0,0.0,0.0,0.0,0.0,0.0,0.0,0.0,0.0,0.0,0.0,0.0,0.0,0.0,0.0,0.0,0.0,0.0,0.0,0.0,0.0,0.0,0.0,0.0,0.0,0.0,0.0,0.0,0.0,0.0,0.0,0.0,0.0,0.0,0.0,0.0,0.0,0.0,0.0,0.0,0.0,0.0,0.0,0.0,0.0,0.0,0.0,0.0,0.0,0.0,0.0,0.0,0.0,0.0,0.0,0.0,0.0,0.0,3.2753,3.1086,3.0802,3.072,3.072,3.0713,3.0728,3.0799,0.0,0.0,0.0,0.0,0.0,0.0,0.0,0.0,0.0,0.0,0.0,0.0,0.0,0.0,0.0,0.0,0.0,0.0,0.0,0.0,0.0,0.0,0.0,0.0,0.0,0.0,0.0,0.0,0.0,0.0,0.0,0.0,0.0,0.0,0.0,0.0,0.0,0.0,0.0,0.0,0.0,0.0,0.0,0.0,0.0,0.0,0.0,0.0,0.0,0.0,0.0,0.0,0.0,0.0,0.0,0.0,0.0,0.0,0.0,0.0,0.0,0.0,0.0,0.0,0.0,0.0,0.0,0.0,0.0,0.0,0.0,0.0,0.0,0.0,0.0,0.0,0.0,0.0,0.0,0.0,0.0,0.0,0.0,0.0,0.0,0.0,0.0,0.0,0.0,0.0,0.0,0.0,0.0,0.0,0.0,0.0,0.0,0.0,0.0,0.0,0.0,0.0,0.0,3.2956,3.2198,3.0832,3.0682,3.0663,3.0663,3.0667,3.0652,3.0734,3.0737,0.0,0.0,0.0,0.0,0.0,0.0,0.0,0.0,0.0,0.0,0.0,0.0,0.0,0.0,0.0,0.0,0.0,0.0,0.0,0.0,0.0,0.0,0.0,0.0,0.0,0.0,0.0,0.0,0.0,0.0,0.0,0.0,0.0,0.0,0.0,0.0,0.0,0.0,0.0,0.0,0.0,0.0,0.0,0.0,0.0,0.0,0.0,0.0,0.0,0.0,0.0,0.0,0.0,0.0,0.0,0.0,0.0,0.0,0.0,0.0,0.0,0.0,0.0,0.0,0.0,0.0,0.0,0.0,0.0,0.0,0.0,0.0,0.0,0.0,0.0,0.0,0.0,0.0,0.0,0.0,0.0,0.0,0.0,0.0,0.0,0.0,0.0,0.0,0.0,0.0,0.0,0.0,0.0,0.0,0.0,0.0,0.0,0.0,0.0,0.0,0.0,0.0,3.1874,3.1469,3.0755,3.0623,3.0587,3.0587,3.0602,3.0639,3.0703,3.071,0.0,0.0,0.0,0.0,0.0,0.0,0.0,0.0,0.0,0.0,0.0,0.0,0.0,0.0,0.0,0.0,0.0,0.0,0.0,0.0,0.0,0.0,0.0,0.0,0.0,0.0,0.0,0.0,0.0,0.0,0.0,0.0,0.0,0.0,0.0,0.0,0.0,0.0,0.0,0.0,0.0,0.0,0.0,0.0,0.0,0.0,0.0,0.0,0.0,0.0,0.0,0.0,0.0,0.0,0.0,0.0,0.0,0.0,0.0,0.0,0.0,0.0,0.0,0.0,0.0,0.0,0.0,0.0,0.0,0.0,0.0,0.0,0.0,0.0,0.0,0.0,0.0,0.0,0.0,0.0,0.0,0.0,0.0,0.0,0.0,0.0,0.0,0.0,0.0,0.0,0.0,0.0,0.0,0.0,0.0,0.0,0.0,0.0,0.0,0.0,0.0,0.0,3.1218,3.068,3.063,3.0612,3.0609,3.0609,3.0602,3.0639,3.0703,3.071,0.0,0.0,0.0,0.0,0.0,0.0,0.0,0.0,0.0,0.0,0.0,0.0,0.0,0.0,0.0,0.0,0.0,0.0,0.0,0.0,0.0,0.0,0.0,0.0,0.0,0.0,0.0,0.0,0.0,0.0,0.0,0.0,0.0,0.0,0.0,0.0,0.0,0.0,0.0,0.0,0.0,0.0,0.0,0.0,0.0,0.0,0.0,0.0,0.0,0.0,0.0,0.0,0.0,0.0,0.0,0.0,0.0,0.0,0.0,0.0,0.0,0.0,0.0,0.0,0.0,0.0,0.0,0.0,0.0,0.0,0.0,0.0,0.0,0.0,0.0,0.0,0.0,0.0,0.0,0.0,0.0,0.0,0.0,0.0,0.0,0.0,0.0,0.0,0.0,0.0,0.0,0.0,0.0,0.0,0.0,0.0,0.0,0.0,0.0,0.0,0.0,0.0,3.2087,3.2207,3.2152,3.214,3.214,3.214,3.1678,3.1372,3.1516,0.0,0.0,0.0,0.0,0.0,0.0,0.0,0.0,0.0,0.0,0.0,0.0,0.0,0.0,0.0,0.0,0.0,0.0,0.0,0.0,0.0,0.0,0.0,0.0,0.0,0.0,0.0,0.0,0.0,0.0,0.0,0.0,0.0,0.0,0.0,0.0,0.0,0.0,0.0,0.0,0.0,0.0,0.0,0.0,0.0,0.0,0.0,0.0,0.0,0.0,0.0,0.0,0.0,0.0,0.0,0.0,0.0,0.0,0.0,0.0,0.0,0.0,0.0,0.0,0.0,0.0,0.0,0.0,0.0,0.0,0.0,0.0,0.0,0.0,0.0,0.0,0.0,0.0,0.0,0.0,0.0,0.0,0.0,0.0,0.0,0.0,0.0,0.0,0.0,0.0,0.0,0.0,0.0,0.0,0.0,0.0,0.0,0.0,0.0,0.0,0.0,0.0,3.2283,3.2816,3.314,3.3112,3.3104,3.3104,3.3104,3.2575,3.2299,3.2381,0.0,0.0,0.0,0.0,0.0,0.0,0.0,0.0,0.0,0.0,0.0,0.0,0.0,0.0,0.0,0.0,0.0,0.0,0.0,0.0,0.0,0.0,0.0,0.0,0.0,0.0,0.0,0.0,0.0,0.0,0.0,0.0,0.0,0.0,0.0,0.0,0.0,0.0,0.0,0.0,0.0,0.0,0.0,0.0,0.0,0.0,0.0,0.0,0.0,0.0,0.0,0.0,0.0,0.0,0.0,0.0,0.0,0.0,0.0,0.0,0.0,0.0,0.0,0.0,0.0,0.0,0.0,0.0,0.0,0.0,0.0,0.0,0.0,0.0,0.0,0.0,0.0,0.0,0.0,0.0,0.0,0.0,0.0,0.0,0.0,0.0,0.0,0.0,0.0,0.0,0.0,0.0,0.0,0.0,0.0,0.0,0.0,0.0,0.0,0.0,0.0,0.0,3.3104,3.3104,3.3143,3.3143,3.3143,3.3143,3.3143,3.3178,3.3225,0.0,0.0,0.0,0.0,0.0,0.0,0.0,0.0,0.0,0.0,0.0,0.0,0.0,0.0,0.0,0.0,0.0,0.0,0.0,0.0,0.0,0.0,0.0,0.0,0.0,0.0,0.0,0.0,0.0,0.0,0.0,0.0,0.0,0.0,0.0,0.0,0.0,0.0,0.0,0.0,0.0,0.0,0.0,0.0,0.0,0.0,0.0,0.0,0.0,0.0,0.0,0.0,0.0,0.0,0.0,0.0,0.0,0.0,0.0,0.0,0.0,0.0,0.0,0.0,0.0,0.0,0.0,0.0,0.0,0.0,0.0,0.0,0.0,0.0,0.0,0.0,0.0,0.0,0.0,0.0,0.0,0.0,0.0,0.0,0.0,0.0,0.0,0.0,0.0,0.0,0.0,0.0,0.0,0.0,0.0,0.0,0.0,0.0,0.0,0.0,0.0,0.0,0.0,3.4004,3.4543,3.493,3.493,3.493,3.493,3.493,3.4399,3.4054,3.4128,0.0,0.0,0.0,0.0,0.0,0.0,0.0,0.0,0.0,0.0,0.0,0.0,0.0,0.0,0.0,0.0,0.0,0.0,0.0,0.0,0.0,0.0,0.0,0.0,0.0,0.0,0.0,0.0,0.0,0.0,0.0,0.0,0.0,0.0,0.0,0.0,0.0,0.0,0.0,0.0,0.0,0.0,0.0,0.0,0.0,0.0,0.0,0.0,0.0,0.0,0.0,0.0,0.0,0.0,0.0,0.0,0.0,0.0,0.0,0.0,0.0,0.0,0.0,0.0,0.0,0.0,0.0,0.0,0.0,0.0,0.0,0.0,0.0,0.0,0.0,0.0,0.0,0.0,0.0,0.0,0.0,0.0,0.0,0.0,0.0,0.0,0.0,0.0,0.0,0.0,0.0,0.0,0.0,0.0,0.0,0.0,0.0,0.0,0.0,0.0,0.0,0.0,3.4933,3.5397,3.5706,3.5706,3.5706,3.5709,3.5684,3.523,3.495,3.4999,0.0,0.0,0.0,0.0,0.0,0.0,0.0,0.0,0.0,0.0,0.0,0.0,0.0,0.0,0.0,0.0,0.0,0.0,0.0,0.0,0.0,0.0,0.0,0.0,0.0,0.0,0.0,0.0,0.0,0.0,0.0,0.0,0.0,0.0,0.0,0.0,0.0,0.0,0.0,0.0,0.0,0.0,0.0,0.0,0.0,0.0,0.0,0.0,0.0,0.0,0.0,0.0,0.0,0.0,0.0,0.0,0.0,0.0,0.0,0.0,0.0,0.0,0.0,0.0,0.0,0.0,0.0,0.0,0.0,0.0,0.0,0.0,0.0,0.0,0.0,0.0,0.0,0.0,0.0,0.0,0.0,0.0,0.0,0.0,0.0,0.0,0.0,0.0,0.0,0.0,0.0,0.0,0.0,0.0,0.0,0.0,0.0,0.0,0.0,0.0,0.0,0.0,3.5706,3.5706,3.5706,3.5709,3.5709,3.5681,3.5705,3.5691,3.5706,3.5704,0.0,0.0,0.0,0.0,0.0,0.0,0.0,0.0,0.0,0.0,0.0,0.0,0.0,0.0,0.0,0.0,0.0,0.0,0.0,0.0,0.0,0.0,0.0,0.0,0.0,0.0,0.0,0.0,0.0,0.0,0.0,0.0,0.0,0.0,0.0,0.0,0.0,0.0,0.0,0.0,0.0,0.0,0.0,0.0,0.0,0.0,0.0,0.0,0.0,0.0,0.0,0.0,0.0,0.0,0.0,0.0,0.0,0.0,0.0,0.0,3.6269,3.5388,0.0,0.0,0.0,0.0,0.0,0.0,0.0,0.0,0.0,0.0,0.0,0.0,0.0,0.0,0.0,0.0,0.0,0.0,0.0,0.0,0.0,0.0,0.0,0.0,0.0,0.0,0.0,0.0,0.0,0.0,0.0,0.0,0.0,0.0,0.0,0.0,0.0,0.0,0.0,0.0,3.5706,3.5706,3.5715,3.5697,3.57,3.5702,3.5707,3.5691,3.5699,3.5718,3.5522,0.0,0.0,0.0,0.0,0.0,0.0,0.0,0.0,0.0,0.0,0.0,0.0,0.0,0.0,0.0,0.0,0.0,0.0,0.0,0.0,0.0,0.0,0.0,0.0,0.0,0.0,0.0,0.0,0.0,0.0,0.0,0.0,0.0,0.0,0.0,0.0,0.0,0.0,0.0,0.0,0.0,0.0,0.0,0.0,0.0,0.0,0.0,0.0,0.0,0.0,0.0,0.0,0.0,0.0,0.0,0.0,0.0,0.0,0.0,3.7742,3.6802,0.0,0.0,0.0,0.0,0.0,0.0,0.0,0.0,0.0,0.0,0.0,0.0,0.0,0.0,0.0,0.0,0.0,0.0,0.0,0.0,0.0,0.0,0.0,0.0,0.0,0.0,0.0,0.0,0.0,0.0,0.0,0.0,0.0,0.0,0.0,0.0,0.0,0.0,0.0,0.0,3.6903,3.6903,3.6909,3.6884,3.6884,3.6897,3.6965,3.6551,3.6331,3.6384,3.5996,0.0,0.0,0.0,0.0,0.0,0.0,0.0,0.0,0.0,0.0,0.0,0.0,0.0,0.0,0.0,0.0,0.0,0.0,0.0,0.0,0.0,0.0,0.0,0.0,0.0,0.0,0.0,0.0,0.0,0.0,0.0,0.0,0.0,0.0,0.0,0.0,0.0,0.0,0.0,0.0,0.0,0.0,0.0,0.0,0.0,0.0,0.0,0.0,0.0,0.0,0.0,0.0,0.0,4.0553,4.0528,4.0033,4.0046,3.9989,3.9882,3.9447,3.8761,3.8094,3.877,0.0,0.0,0.0,0.0,0.0,0.0,0.0,0.0,0.0,0.0,0.0,0.0,0.0,0.0,0.0,0.0,0.0,0.0,0.0,0.0,0.0,0.0,4.031,4.0163,4.001,3.9476,3.7917,0.0,0.0,0.0,0.0,0.0,0.0,0.0,0.0,0.0,0.0,0.0,3.814,3.814,3.815,3.8218,3.8182,3.8244,3.8301,3.7647,3.7242,3.7325,3.6496,3.603,0.0,0.0,0.0,0.0,0.0,0.0,0.0,0.0,0.0,0.0,0.0,0.0,0.0,0.0,0.0,0.0,0.0,0.0,0.0,0.0,0.0,0.0,0.0,0.0,0.0,0.0,0.0,0.0,0.0,0.0,0.0,0.0,3.7149,3.715,0.0,0.0,0.0,0.0,0.0,0.0,0.0,0.0,0.0,0.0,0.0,0.0,0.0,4.1667,4.1667,4.111,4.111,4.1667,4.1079,4.1174,4.1832,4.1718,4.1368,4.0819,4.0646,0.0,3.9428,3.9568,0.0,0.0,0.0,0.0,0.0,0.0,0.0,0.0,0.0,0.0,0.0,0.0,0.0,0.0,0.0,0.0,0.0,0.0,0.0,0.0,0.0,0.0,4.0707,3.9963,3.9233,3.8444,3.7418,3.8006,3.8748,3.8757,3.8141,3.77,0.0,0.0,0.0,0.0,0.0,0.0,3.7945,3.7945,3.8008,3.8197,3.8211,3.8227,3.8303,3.8207,3.8149,3.8122,3.7398,3.6941,3.6945,3.62,0.0,0.0,0.0,0.0,0.0,0.0,0.0,0.0,0.0,0.0,0.0,0.0,0.0,0.0,0.0,0.0,0.0,0.0,0.0,0.0,0.0,0.0,0.0,0.0,0.0,0.0,0.0,0.0,0.0,3.7573,3.7735,3.8464,3.8303,3.8298,0.0,0.0,0.0,0.0,0.0,0.0,0.0,0.0,0.0,4.1479,4.1817,4.2004,4.2004,4.1629,4.1629,4.2004,4.1629,4.1699,4.2089,4.2031,4.1849,4.1569,4.1505,4.1286,4.0961,4.0516,4.0303,4.0259,0.0,0.0,0.0,0.0,3.9589,3.9589,3.9589,3.9589,3.9664,3.9996,0.0,0.0,0.0,0.0,0.0,0.0,0.0,4.2002,4.163,4.1543,4.1456,4.1086,4.0741,4.034,3.9959,4.0262,4.0138,3.8378,3.8099,3.8237,3.8427,3.8887,0.0,0.0,0.0,3.9201,3.9201,3.9201,3.9276,3.9455,3.9472,3.9561,3.9705,3.9273,3.9027,3.9047,3.8293,3.7841,3.7841,3.6984,3.6511,0.0,0.0,0.0,0.0,0.0,0.0,0.0,0.0,0.0,0.0,0.0,0.0,0.0,0.0,0.0,0.0,0.0,0.0,0.0,0.0,0.0,0.0,0.0,0.0,0.0,0.0,0.0,0.0,3.8089,3.8356,3.9389,3.9131,3.9031,0.0,0.0,0.0,0.0,0.0,0.0,4.1747,4.1656,4.1707,4.1873,4.2165,4.2342,4.2342,4.253,4.2643,4.2643,4.2643,4.2643,4.2643,4.2643,4.2643,4.2643,4.2643,4.2643,4.2567,4.1523,4.1116,4.1116,4.1116,4.1116,4.1079,4.0672,4.0566,4.0566,4.0785,4.086,4.086,4.086,4.1267,4.1755,4.1755,0.0,0.0,0.0,0.0,4.2492,4.1898,4.1861,4.2004,4.2004,4.1704,4.141,4.141,4.141,4.0785,3.8671,3.8753,3.9169,3.9147,3.9695,0.0,4.0129,4.0129,4.0129,4.0129,4.0129,4.0205,4.0393,4.041,4.05,4.0726,4.0182,3.9877,3.9944,3.9189,3.8734,3.8734,3.7918,3.7411,3.7411,0.0,0.0,0.0,0.0,0.0,0.0,0.0,0.0,0.0,0.0,0.0,0.0,0.0,0.0,0.0,0.0,0.0,0.0,0.0,0.0,0.0,0.0,0.0,0.0,0.0,0.0,0.0,0.0,0.0,3.895,3.8914,0.0,0.0,0.0,0.0,4.1092,4.1166,4.1174,4.1219,4.1475,4.1599,4.1606,4.266,4.3226,4.3226,4.4001,4.4376,4.4376,4.4376,4.4376,4.4376,4.4376,4.4376,4.4376,4.4376,4.4376,4.4257,4.2605,4.1929,4.1929,4.1929,4.1929,4.2042,4.2806,4.3113,4.3226,4.4001,4.4264,4.4264,4.4264,4.4264,4.4301,4.4301,4.4339,0.0,0.0,4.4339,4.4369,4.4332,4.3168,4.2004,4.2004,4.0816,3.9702,3.9702,3.9702,3.989,4.0497,4.0647,4.0509,3.9932,0.0,3.99,3.99,3.99,3.99,3.99,3.99,3.9989,4.02,4.0219,4.0296,4.0504,4.0482,4.0571,4.0818,4.0089,3.9623,3.9623,3.8812,3.8348,3.8348,3.8309,0.0,0.0,0.0,0.0,0.0,0.0,0.0,0.0,0.0,0.0,0.0,0.0,0.0,0.0,0.0,0.0,0.0,0.0,0.0,0.0,0.0,0.0,0.0,0.0,0.0,0.0,0.0,0.0,4.0279,4.0101,0.0,4.0557,4.0141,4.0369,4.1662,4.1315,4.1528,4.2738,4.2746,4.2787,4.2947,4.3345,4.3548,4.3548,4.3325,4.3214,4.3214,4.2649,4.2389,4.2396,4.2551,4.2616,4.2623,4.2807,4.2905,4.283,4.2267,4.2643,4.3618,4.3618,4.3618,4.3656,4.3963,4.4076,4.4113,4.4414,4.4482,4.4482,4.4482,4.4482,4.4482,4.4482,4.4482,4.4482,4.4482,4.4482,4.4482,4.4482,4.4069,4.3618,4.3618,4.3175,4.2769,4.2769,4.2769,4.2693,4.2431,4.1529,4.0735,4.0533,4.0916,4.1249,4.1249,4.1249,4.1066,4.0545,4.047,4.0344,4.0055,4.0065,4.0162,4.0345,4.0431,4.0577,4.0757,4.0544,4.0424,4.0478,3.9664,3.9237,3.9237,3.8695,3.827,0.0,0.0,0.0,0.0,0.0,0.0,0.0,0.0,0.0,0.0,0.0,0.0,0.0,0.0,0.0,0.0,0.0,0.0,0.0,0.0,0.0,0.0,0.0,0.0,0.0,3.9872,3.9979,4.0533,4.052,4.0581,4.0765,4.0527,4.0936,4.2275,4.1884,4.2109,4.3361,4.3356,4.3391,4.3563,4.3914,4.4103,4.4103,4.3853,4.3705,4.3705,4.3144,4.2848,4.2848,4.3053,4.3028,4.2858,4.3055,4.3018,4.283,4.283,4.3506,4.4451,4.3881,4.3656,4.3694,4.4001,4.4113,4.4113,4.4414,4.4482,4.4482,4.4482,4.4482,4.4482,4.4482,4.4482,4.4482,4.4482,4.4482,4.4482,4.4482,4.4301,4.4113,4.4113,4.3888,4.3656,4.3656,4.3656,4.3513,4.2956,4.2205,4.1567,4.126,4.1629,4.2004,4.2004,4.2004,4.1836,4.133,4.1217,4.1086,4.0704,4.0723,4.0824,4.105,4.1183,4.1239,4.1113,4.1139,4.1082,4.0863,4.0361,4.0063,4.0089,3.9276,3.8851,3.8851,0.0,0.0,0.0,0.0,0.0,0.0,0.0,0.0,0.0,0.0,0.0,0.0,0.0,0.0,0.0,0.0,0.0,0.0,0.0,0.0,0.0,0.0,0.0,4.0564,4.051,4.0266,3.9559,4.0121,4.0583,4.0583,4.127,4.2076,4.2892,4.2928,4.2964,4.2964,4.3205,4.335,4.335,4.4357,4.492,4.492,4.5684,4.607,4.607,4.607,4.607,4.607,4.607,4.5818,4.5321,4.5329,4.5028,4.4536,4.4536,4.4536,4.4386,4.2748,4.2079,4.2192,4.3031,4.3339,4.3444,4.4226,4.4482,4.4482,4.4482,4.4482,4.4482,4.4482,4.4482,4.4482,4.4482,4.4482,4.4482,4.4482,4.3926,4.3339,4.3339,4.2687,4.2079,4.2079,4.2079,4.2079,4.2079,4.2762,4.3069,4.2192,4.2079,4.2079,4.2079,4.2079,0.0,4.2234,4.2133,4.2063,4.2165,4.2184,4.2316,4.2557,4.2722,4.2542,4.1986,4.1923,4.1588,4.0846,4.0852,4.0859,4.0905,4.0128,3.974,3.974,0.0,0.0,0.0,0.0,0.0,0.0,0.0,0.0,0.0,0.0,0.0,0.0,0.0,0.0,0.0,0.0,0.0,0.0,0.0,0.0,0.0,4.2441,4.2059,4.0691,4.0981,4.127,4.1098,4.1759,4.224,4.224,4.2448,4.2882,4.3725,4.3761,4.4015,4.4621,4.4699,4.4738,4.4738,4.5033,4.5171,4.5171,4.5408,4.5518,4.5518,4.5518,4.5518,4.5527,4.5727,4.5718,4.5616,4.579,4.5806,4.5651,4.5651,4.5651,4.5535,4.4302,4.3806,4.3844,4.4076,4.4151,4.4188,4.4414,4.4482,4.4482,4.4482,4.4482,4.4482,4.4482,4.4482,4.4482,4.4482,4.4482,4.4482,4.4482,4.4339,4.4151,4.4151,4.4001,4.3806,4.3806,4.3806,4.3806,4.3806,4.4001,4.3926,4.3069,4.3438,4.3806,4.3806,4.3806,4.3601,4.3085,4.3037,4.2824,4.2145,4.224,4.2351,4.2432,4.2585,4.2651,4.2625,4.2641,4.2313,4.1623,4.1625,4.1438,4.0905,4.0674,4.0558,0.0,0.0,0.0,0.0,0.0,0.0,0.0,0.0,0.0,0.0,0.0,0.0,0.0,0.0,0.0,0.0,0.0,0.0,0.0,0.0,0.0,0.0,4.2768,4.2232,4.1144,4.1714,4.2185,4.2185,4.2918,4.3399,4.3399,4.3725,4.4087,4.4558,4.4584,4.4812,4.5273,4.5635,4.5816,4.5816,4.6142,4.6323,4.6323,4.6323,4.6323,4.6323,4.6323,4.6323,4.6323,4.6458,4.6424,4.6229,4.6361,4.6313,4.6096,4.6096,4.6096,4.6011,0.0,0.0,0.0,0.0,4.4155,4.4155,4.4155,4.4222,4.4295,4.4192,4.4325,4.4468,4.4376,4.4411,4.4482,4.4482,4.4482,4.4482,4.4482,4.4482,4.4482,4.4482,4.4482,4.4482,4.4482,4.4482,4.4482,4.4482,4.4482,0.0,4.3895,4.4188,4.451,4.4572,4.4578,4.4455,4.4031,4.4039,4.3863,4.329,4.3394,4.3511,4.3511,4.3662,0.0,0.0,0.0,4.3059,4.2348,4.2426,0.0,0.0,0.0,4.122,4.0907,4.0439,0.0,0.0,3.8734,3.8412,0.0,0.0,0.0,0.0,0.0,0.0,0.0,0.0,0.0,0.0,0.0,0.0,0.0,0.0,0.0,0.0,4.2596,4.2114,4.1977,4.2665,4.3109,4.2928,4.3689,4.4232,4.4232,4.4947,4.5454,4.5454,4.5526,4.5562,4.5562,4.625,0.0,0.0,0.0,4.7689,4.7689,4.7689,4.7689,4.7689,4.7689,4.7689,4.7689,4.7689,4.7445,4.6976,4.6976,4.6726,4.6294,4.6294,4.622,4.6082,4.5349,4.5043,4.4932,4.4231,4.3972,4.3972,4.3972,0.0,0.0,4.4046,4.4278,4.463,4.4385,4.4506,4.4667,4.4667,4.4733,4.4768,4.4709,4.4745,4.481,4.4789,4.4789,4.4789,4.4789,4.4789,4.4789,4.4789,4.4789,4.4789,4.481,4.4646,4.453,4.4666,4.4679,4.4731,4.4871,4.4902,4.4914,4.4914,0.0,0.0,4.5103,4.5203,4.4961,4.4197,4.4045,4.3694,4.3077,4.3071,4.2763,4.2144,4.2109,4.1808,4.1165,4.1165,4.117,4.114,3.9472,3.8695,0.0,0.0,0.0,0.0,0.0,0.0,0.0,0.0,0.0,0.0,0.0,0.0,0.0,0.0,0.0,4.2912,4.3364,4.3672,4.3643,4.4331,4.4331,4.3036,4.4196,4.5055,4.5055,4.5816,4.6287,4.6287,4.6866,4.7254,4.7254,4.7363,4.7471,4.7471,4.7616,4.7689,4.7689,4.7689,4.7689,4.7689,4.7689,0.0,4.7689,4.7689,4.7648,4.7565,4.7565,4.7487,4.7393,4.7393,4.7003,4.6399,4.5993,4.5875,4.5838,4.569,4.5653,4.5653,4.5653,4.5651,4.5685,4.5634,4.5722,4.5798,4.5747,4.5764,0.0,4.5806,4.6076,4.6308,4.6141,4.6397,4.6643,4.6545,4.6516,4.6516,4.6516,4.6516,4.6516,4.6516,4.6516,4.656,4.6656,4.5481,4.4496,4.4524,4.453,4.4585,4.4731,4.4846,4.4914,4.4914,4.5028,4.5103,4.5103,4.5131,4.5105,4.5043,4.4393,4.3962,4.3955,4.3299,4.2909,4.2871,4.2875,4.2855,4.2849,4.2849,4.2892,4.2964,4.1218,4.0402,0.0,0.0,0.0,0.0,0.0,0.0,0.0,0.0,0.0,0.0,0.0,4.3123,4.2641,0.0,4.2676,4.3484,4.3546,4.3797,4.4594,4.5381,4.5599,4.4802,4.5417,4.6069,4.6468,4.6856,4.7109,4.7109,4.7471,4.7689,4.7689,4.7689,4.7689,4.7689,4.7689,4.7689,4.7689,4.7689,4.7689,4.7689,4.7689,4.7689,4.7689,4.7689,4.7689,4.7689,4.7689,4.7689,4.7689,4.7689,4.7471,4.7104,4.6934,4.6403,4.5717,4.5717,4.5717,4.5717,4.5717,4.5801,4.5892,4.5727,4.5938,4.6168,4.5974,4.6054,4.6194,4.6105,4.6368,4.6626,4.6539,4.681,4.7068,4.7026,4.7004,4.7026,4.7076,4.709,4.7118,4.7195,4.7153,4.7118,4.7202,4.643,4.5903,4.6018,4.5691,4.5483,4.5552,4.5294,4.508,4.5016,4.5125,4.5197,4.5197,4.5197,4.5219,4.5316,4.4895,4.4697,4.4734,4.4322,4.3962,4.3666,4.3632,4.3536,4.3286,4.3286,4.3376,4.3469,4.2614,4.1956,0.0,0.0,0.0,0.0,0.0,0.0,0.0,4.348,4.3253,4.2446,4.2839,4.3086,4.2286,4.2287,4.2777,4.404,4.391,4.407,4.5345,4.625,4.6711,4.6711,4.6711,4.7011,4.7652,4.7689,4.7689,4.7689,4.7689,4.7689,4.7689,4.7689,4.7689,4.7689,4.7689,4.7689,4.7689,4.7689,4.7689,4.7689,4.7689,4.7689,4.7689,4.7689,4.7689,4.7689,4.7689,4.7689,4.7689,4.7689,4.7689,4.7689,4.7689,4.6892,4.578,4.578,4.578,4.578,4.578,4.5893,4.6049,4.586,4.6126,4.6506,4.6183,4.6314,4.6542,4.6424,4.6626,4.688,4.6847,4.7148,4.7395,4.7349,4.7334,4.738,4.7513,4.7549,4.7613,4.7811,4.7751,4.7682,4.7744,4.7751,4.7698,4.7529,4.7002,4.6601,4.6631,4.6107,4.572,4.5643,4.572,4.5703,4.555,4.5397,4.5283,4.5283,4.5283,4.5283,4.5283,4.5283,4.5033,4.4417,4.4417,4.4197,4.3726,4.3726,4.3795,4.3951,4.3793,4.3259,4.439,4.4228,4.4033,4.3994,4.3763,4.354,0.0,4.3421,4.3375,4.3284,4.3178,4.3114,4.3069,4.3606,4.403,4.4116,4.5325,4.6289,4.6369,4.7073,4.758,4.758,4.758,4.7616,4.7689,4.7689,4.7689,4.7689,4.7689,4.7689,4.7689,4.7689,4.7689,4.7689,4.7689,4.7689,4.7689,4.7689,4.7689,4.7689,4.7689,4.7689,4.7689,4.7689,4.7689,4.7689,4.7689,4.7689,4.7689,4.7689,4.7689,4.7689,4.7689,4.758,4.7435,4.7435,4.7435,4.7435,4.7435,4.7456,4.7477,4.7446,4.7487,4.7549,4.7498,4.7518,4.756,4.7539,4.787,4.8236,4.8135,4.846,4.8791,4.8584,4.8524,4.8576,4.8754,4.8787,4.891,4.9347,4.9443,4.9521,4.9733,4.9772,4.9213,4.7486,4.7263,4.7315,4.7468,4.7378,4.7381,4.7498,4.7515,4.7221,4.6424,4.5698,4.5283,4.5283,4.5283,4.5283,4.5283,4.5283,4.5255,4.5194,4.5194,4.5203,4.5256,4.5256,4.5387,4.5603,4.4824,4.4053,4.3878,4.3804,4.3697,4.3697,4.3617,4.3497,4.3454,4.3445,4.3273,4.272,4.2975,4.3269,4.305,4.376,4.4623,4.5365,4.611,4.6736,4.7156,4.7471,4.7689,4.7689,4.7689,4.7689,4.7689,4.7689,4.7689,4.7689,4.7689,4.7689,4.7689,4.7689,4.7689,4.7689,4.7689,4.7689,4.7689,4.7689,4.7689,4.7689,4.7689,4.7689,4.7689,4.7689,4.7689,4.7689,4.7689,4.7689,4.7689,4.7689,4.7689,4.7689,4.7689,4.7689,4.7689,4.7689,4.7689,4.7689,4.7689,4.7689,4.7689,4.7689,4.7731,4.7809,4.771,4.7731,4.7809,4.771,4.7955,4.8252,4.8192,4.8504,4.8824,4.8739,4.8757,4.8844,4.9023,4.9065,4.9155,4.9393,4.9408,4.9385,4.9514,4.9689,4.9532,4.8733,4.8498,4.8404,4.8457,4.8037,4.7743,4.7788,4.7794,4.7635,4.7297,4.6953,4.6768,4.6768,4.6271,4.6003,4.6003,4.555,4.5283,4.5283,4.5283,4.5365,4.548,4.548,4.5586,4.5764,4.5413,4.5086,4.3506,4.3506,4.3506,4.3506,4.3506,4.3497,4.3437,4.3454,4.3281,4.2493,4.2911,4.3386,4.3304,4.4097,4.5108,4.6317,4.6736,4.7119,4.7627,4.7689,4.7689,4.7689,4.7689,4.7689,4.7689,4.7689,4.7689,4.7689,4.7689,4.7689,4.7689,4.7689,4.7689,4.7689,4.7689,4.7689,4.7689,4.7689,4.7689,4.7689,4.7689,4.7689,4.7689,4.7689,4.7689,4.7689,4.7689,4.7689,4.7689,4.7689,4.7689,4.7689,4.7689,4.7689,4.7689,4.7689,4.7689,4.7689,4.7689,4.7689,4.7689,4.7689,4.7777,4.7829,4.771,4.7809,4.7871,4.7788,4.7901,4.8065,4.8065,4.8298,4.8504,4.8477,4.8578,4.8705,4.8862,4.8922,4.9015,4.9193,4.9174,4.9134,4.9277,4.9491,4.971,4.9787,4.9606,4.9448,4.9448,4.8869,4.8481,4.8481,4.829,4.8176,4.8176,4.7946,4.7794,4.7794,4.7221,4.6877,4.6877,4.6309,4.6003,4.6003,4.6003,4.6028,4.6143,4.6143,4.6181,4.6318,4.6318,4.6223,4.3506,4.3506,4.3506,4.3506,4.3506,4.3454,4.326,4.3295,4.334,4.3196,4.3133,4.335,4.4198,4.5028,4.5773,4.639,4.7304,4.7875,4.772,4.7689,4.7689,4.7689,4.7689,4.7689,4.7689,4.7689,4.7689,4.7689,4.7689,4.7689,4.7689,4.7689,4.7689,4.7689,4.7689,4.7689,4.7689,4.7689,4.7689,4.7689,4.7689,4.7689,4.7689,4.7689,4.7689,4.7689,4.7689,4.7689,4.7689,4.7689,4.7689,4.7689,4.7689,4.7689,4.7689,4.7689,4.7689,4.7689,4.7689,4.7689,4.7689,4.7689,4.7689,4.7699,4.7689,4.7809,4.7892,4.7892,4.7947,4.8002,4.8002,4.8012,4.7992,4.7953,4.7978,4.8082,4.8287,4.8438,4.8624,4.9011,4.9093,4.9246,4.9714,4.9797,4.9897,5.0224,5.0271,5.0245,5.0245,5.0245,5.0206,5.0206,4.9524,4.9066,4.9066,4.8296,4.7794,4.7794,4.7794,4.7755,4.7755,4.775,4.7717,4.7717,4.7717,4.7717,4.7723,4.7723,4.7809,4.7924,4.7924,4.7543,4.3506,4.3506,4.3506,4.3506,4.3463,4.341,4.341,4.3384,4.3368,4.3233,4.367,4.4299,4.4893,4.5685,4.6504,4.7306,4.772,4.7922,4.785,4.784,4.7809,4.7699,4.7689,4.7689,4.7689,4.7689,4.7689,4.7689,4.7689,4.7689,4.7689,4.7689,4.7689,4.7689,4.7689,4.7689,4.7689,4.7689,4.7689,4.7689,4.7689,4.7689,4.7689,4.7689,4.7689,4.7689,4.7689,4.7689,4.7689,4.7689,4.7689,4.7689,4.7689,4.7689,4.7689,4.7689,4.7689,4.7689,4.7689,4.7689,4.7689,4.7689,4.7689,4.7689,4.7689,4.7809,4.7892,4.7892,4.7947,4.8002,4.8002,4.8052,4.8128,4.8088,4.8108,4.8158,4.8226,4.8275,4.8343,4.8486,4.8523,4.8632,4.879,4.8982,4.9325,4.9877,5.0175,5.0283,5.0283,5.0283,5.0283,5.0283,5.0054,4.9901,4.9901,4.9633,4.9475,4.9475,4.8945,4.864,4.864,4.8099,4.7794,4.7794,4.7794,4.7794,4.7794,4.7794,4.7821,4.7875,4.7875,4.7716,4.3463,4.348,4.3497,4.3463,4.3437,4.3419,4.3454,4.3384,4.3295,4.3224,4.3606,4.4289,4.518,4.5817,4.6573,4.7658,4.7871,4.7892,4.7892,4.7861,4.7819,4.7788,4.771,4.7689,4.7689,4.7689,4.7689,4.7689,4.7689,4.7689,4.7689,4.7689,4.7689,4.7689,4.7689,4.7689,4.7689,4.7689,4.7689,4.7689,4.7689,4.7689,4.7689,4.7689,4.7689,4.7689,4.7689,4.7689,4.7689,4.7689,4.7689,4.7689,4.7689,4.7689,4.7689,4.7689,4.7689,4.7699,4.7731,4.7788,4.7788,4.7804,4.7814,4.7814,4.7814,4.7866,4.7953,4.7953,4.7978,4.8002,4.8002,4.8052,4.8138,4.8138,4.8168,4.8197,4.8197,4.8226,4.8246,4.8246,4.8258,4.8344,4.8449,4.8764,4.9121,4.9556,4.981,5.0038,5.0259,5.0283,5.0283,5.0283,5.0283,5.0283,5.0283,5.0283,5.0283,5.0283,4.9824,4.9524,4.9524,4.8984,4.8672,4.8672,4.8672,4.8672,4.8672,4.8672,4.8672,4.8672,4.8672,4.8558,4.3438,4.3437,4.348,4.3466,4.351,4.3545,4.353,4.3433,4.3306,4.3306,4.3213,4.3618,4.5229,4.5576,4.6081,4.7477,4.7829,4.7902,4.7902,4.7809,4.7741,4.7871,4.7788,4.7689,4.7689,4.7689,4.7689,4.7689,4.7689,4.7689,4.7689,4.7689,4.7689,4.7689,4.7689,4.7689,4.7689,4.7689,4.7689,4.7689,4.7689,4.7689,4.7689,4.7689,4.7689,4.7689,4.7689,4.7689,4.7689,4.7689,4.7689,4.7699,4.7699,4.7699,4.771,4.771,4.771,4.772,4.7871,4.7902,4.7902,4.7951,4.7992,4.7992,4.8002,4.8002,4.8012,4.8012,4.8012,4.8012,4.8012,4.8012,4.8012,4.8012,4.8128,4.8197,4.8197,4.8265,4.8296,4.8296,4.8296,4.8383,4.8711,4.9048,4.9287,4.9287,4.9302,4.9534,5.02,5.0259,5.0265,5.0315,5.0283,5.0283,5.0283,5.0283,5.0283,5.0283,5.0283,5.0283,5.0283,5.0283,5.0283,5.0283,5.0283,5.0283,5.0283,5.0283,5.0283,5.0283,5.0283,4.9901,4.348,4.3489,4.3644,4.4233,4.4281,4.4346,4.5041,4.5057,4.4924,4.4924,4.5358,4.5853,4.6192,4.6726,4.7311,4.7854,4.7941,4.7951,4.7951,4.7968,4.7896,4.7752,4.771,4.7689,4.7689,4.7689,4.7689,4.7689,4.7689,4.7689,4.7689,4.7689,4.7689,4.7689,4.7689,4.7689,4.7689,4.7689,4.7689,4.7689,4.7689,4.7689,4.7689,4.7689,4.7689,4.7689,4.7689,4.7689,4.7689,4.7689,4.7777,4.785,4.785,4.7866,4.7911,4.7911,4.7911,4.7931,4.8078,4.7947,4.7788,4.7902,4.7943,4.7917,4.7972,4.8052,4.8158,4.8158,4.817,4.8229,4.8229,4.8229,4.8229,4.8229,4.8226,4.8197,4.8197,4.8217,4.8226,4.8226,4.8285,4.8335,4.8393,4.8702,4.8915,4.8915,4.9145,4.9461,4.987,4.9916,5.0032,5.0259,5.0283,5.0283,5.0283,5.0283,5.0283,5.0283,5.0283,5.0283,5.0283,5.0283,5.0283,5.0283,5.0283,5.0283,5.0283,5.0283,5.0283,5.0283,5.0283,5.0206,4.4517,4.4535,4.4663,4.5095,4.5105,4.5149,4.569,4.5659,4.5525,4.5523,4.5876,4.6246,4.6549,4.6964,4.7404,4.7864,4.7957,4.7957,4.7957,4.7917,4.7855,4.7809,4.7756,4.7689,4.7689,4.7689,4.7689,4.7689,4.7689,4.7689,4.7689,4.7777,4.7798,4.7798,4.7798,4.7777,4.7689,4.7777,4.7798,4.7798,4.7814,4.7845,4.7845,4.7783,4.7798,4.7798,4.7746,4.7689,4.7689,4.7689,4.7731,4.7819,4.7819,4.7824,4.7896,4.7937,4.7957,4.7968,4.8088,4.7998,4.7866,4.8018,4.8068,4.8088,4.8111,4.8141,4.8197,4.8197,4.8236,4.8275,4.8275,4.8267,4.8296,4.8296,4.8258,4.8256,4.8256,4.8256,4.8256,4.8256,4.8267,4.8296,4.8296,4.8449,4.8613,4.8781,4.8949,4.9256,4.9756,4.9655,4.9728,5.0044,5.0076,5.0125,5.0271,5.0283,5.0283,5.0283,5.0283,5.0283,5.0283,5.0283,5.0283,5.0283,5.0283,5.0283,5.0283,5.0283,5.0283,5.0283,5.0283,5.0283,4.5819,4.5856,4.5902,4.5965,4.5974,4.6001,4.6075,4.6026,4.5894,4.5843,4.5814,4.6022,4.6723,4.6838,4.7092,4.7824,4.7912,4.7902,4.7912,4.7793,4.7762,4.7881,4.7809,4.7746,4.7746,4.7746,4.7746,4.7746,4.772,4.7731,4.771,4.784,4.7892,4.7892,4.7892,4.785,4.771,4.7959,4.8047,4.8058,4.8243,4.833,4.833,4.8254,4.825,4.8239,4.8109,4.8067,4.8067,4.8067,4.8078,4.8088,4.798,4.7954,4.7938,4.7959,4.7953,4.7974,4.8002,4.8115,4.8218,4.8265,4.8287,4.8287,4.8296,4.8238,4.8217,4.8217,4.8217,4.8217,4.8217,4.8275,4.8296,4.8296,4.8296,4.8296,4.8296,4.8296,4.8296,4.8296,4.8296,4.8296,4.8296,4.8296,4.8383,4.8684,4.8772,4.8999,4.9577,4.949,4.9498,4.983,4.9864,4.9962,5.0265,5.0283,5.0283,5.0283,5.0283,5.0283,5.0283,5.0283,5.0283,5.0283,5.0283,5.0283,5.0283,5.0283,5.0283,5.0283,5.0283,5.0283,4.5902,4.5911,4.6058,4.67,4.6808,4.698,4.7648,4.767,4.7591,4.7581,4.7527,4.7522,4.7733,4.7637,4.7669,4.8098,4.8014,4.7933,4.7951,4.7951,4.7947,4.7902,4.7871,4.7861,4.7861,4.7861,4.7861,4.7861,4.7927,4.7937,4.7871,4.7881,4.7892,4.7892,4.7892,4.7881,4.7861,4.8546,4.8935,4.8982,4.9669,4.9971,4.9971,4.9951,4.9977,4.9977,4.9919,4.9919,4.9919,4.9919,5.0008,5.0044,4.9377,4.9182,4.9208,4.8476,4.8219,4.8219,4.8238,4.8735,4.9211,4.8456,4.8217,4.8236,4.8277,4.8287,4.8277,4.8277,4.8277,4.8277,4.8277,4.8287,4.8296,4.8296,4.8296,4.8296,4.8296,4.8296,4.8296,4.8296,4.8296,4.8296,4.8296,4.8296,4.8325,4.8392,4.8604,4.885,4.8978,4.9409,4.9844,5.0188,5.0218,5.0236,5.0315,5.0283,5.0283,5.0283,5.0283,5.0283,5.0283,5.0283,5.0283,5.0283,5.0283,5.0283,5.0283,5.0283,5.0283,5.0283,5.0283,5.0283,4.7168,4.7168,4.7232,4.7636,4.7669,4.7712,4.8124,4.8158,4.8072,4.8012,4.8038,4.8048,4.8108,4.8028,4.8008,4.8168,4.8108,4.8038,4.8002,4.8002,4.7982,4.7957,4.7933,4.7912,4.7947,4.7933,4.7912,4.7947,4.8362,4.8446,4.7994,4.7998,4.8247,4.8685,4.8685,4.8836,4.9196,4.9659,4.9893,4.9945,5.0399,5.0612,5.0612,5.0561,5.0493,5.0493,5.0441,5.0409,5.0409,5.0409,5.0451,5.0456,5.0081,4.9966,4.9954,4.9638,4.9245,4.8888,4.8947,4.894,4.893,4.8918,4.9192,4.9558,4.9608,4.9581,4.9581,4.9581,4.9297,4.8976,4.8976,4.8636,4.8296,4.8296,4.8296,4.8296,4.8296,4.8296,4.8296,4.8296,4.8296,4.8296,4.8296,4.8296,4.8411,4.8781,4.8816,4.8974,4.9498,4.9721,4.9857,5.0032,5.0044,5.01,5.0309,5.0283,5.0283,5.0283,5.0283,5.0283,5.0283,5.0283,5.0283,5.0283,5.0283,5.0283,5.0283,5.0283,5.0283,5.0283,5.0283,5.0283,4.8296,4.8296,4.8296,4.8296,4.8238,4.8226,4.8226,4.8226,4.8207,4.8082,4.8148,4.8197,4.8226,4.8187,4.8177,4.8217,4.8187,4.8138,4.8042,4.8032,4.8032,4.8032,4.7988,4.7968,4.8022,4.7988,4.8077,4.8277,4.8928,4.9001,4.8324,4.8434,4.8766,4.9385,4.9568,4.9903,5.0451,5.0717,5.0879,5.09,5.1165,5.1316,5.1306,5.1224,5.1156,5.1146,5.1062,5.0994,5.0994,5.0994,5.0994,5.0994,5.0811,5.0738,5.0712,5.0686,5.023,4.9728,4.9828,4.9517,4.9224,4.9894,5.0298,5.0582,5.0765,5.0802,5.0802,5.0802,5.0325,4.9858,4.9858,4.9334,4.8857,4.8857,4.8857,4.8857,4.8857,4.8857,4.8857,4.8857,4.871,4.86,4.86,4.8406,4.8486,4.9007,4.8974,4.9193,5.0,5.0,4.9897,4.9897,4.9897,5.0025,5.0265,5.0283,5.0283,5.0283,5.0283,5.0283,5.0283,5.0283,5.0283,5.0283,5.0283,5.0283,5.0283,5.0283,5.0283,5.0283,5.0283,5.0283,4.8296,4.8296,4.8296,4.8296,4.8296,4.8287,4.8287,4.8287,4.8287,4.8277,4.8246,4.8217,4.8267,4.8141,4.8082,4.8258,4.8131,4.8042,4.8168,4.8177,4.8177,4.8177,4.8168,4.8168,4.8177,4.8168,4.8497,4.9228,4.9438,4.9495,4.9265,4.9411,4.9431,4.9385,5.0126,5.0529,5.0592,5.1308,5.1763,5.1893,5.2627,5.2994,5.2994,5.2983,5.2947,5.2973,5.2936,5.2926,5.2926,5.2926,5.2926,5.2852,5.2129,5.1846,5.1773,5.1039,5.0745,5.0672,5.0692,5.1132,5.1657,5.1767,5.0849,4.9858,5.0582,5.0802,5.0802,5.0802,5.0765,5.0692,5.0692,5.0618,5.0582,5.0582,5.0582,5.0582,5.0582,5.0582,5.0582,5.0582,4.9968,4.95,4.95,4.882,4.8325,4.8364,4.8873,4.9294,4.9386,4.989,5.0248,5.0248,5.0248,5.0259,5.0315,5.0283,5.0283,5.0283,5.0283,5.0283,5.0283,5.0283,5.0283,5.0283,5.0283,5.0283,5.0283,5.0283,5.0283,5.0283,5.0283,5.0283,4.8296,4.8296,4.8296,4.8296,4.8296,4.8296,4.8296,4.8296,4.8296,4.8296,4.8267,4.8258,4.8296,4.8238,4.8209,4.8287,4.8229,4.82,4.8238,4.8238,4.8238,4.8238,4.8226,4.8217,4.8275,4.8226,4.8766,5.0145,5.0305,5.0498,5.0925,5.0095,5.0021,5.0925,5.1291,5.1694,5.2161,5.2501,5.2669,5.2747,5.3067,5.3214,5.3214,5.3214,5.3214,5.3214,5.3214,5.3214,5.3214,5.3214,5.3214,5.3177,5.2858,5.2711,5.2674,5.237,5.194,5.1499,5.1499,5.1389,5.1353,5.184,5.1583,5.1179,5.2013,5.2223,5.2223,5.2223,5.1903,5.1499,5.1499,5.1169,5.0802,5.0802,5.0802,5.0802,5.0802,5.0802,5.0802,5.0802,5.0545,5.0325,5.0325,5.0031,4.989,5.0092,5.0158,5.0337,5.0694,5.0553,5.052,5.0683,5.0487,5.0283,5.0283,5.0283,5.0283,5.0283,5.0283,5.0283,5.0283,5.0283,5.0283,5.0283,5.0283,5.0283,5.0283,5.0283,5.0283,5.0283,5.0283,5.0283,4.8296,4.8296,4.8296,4.8296,4.8296,4.8296,4.8296,4.8296,4.8379,4.8636,4.8673,4.8746,4.8994,4.903,4.8967,4.871,4.8673,4.86,4.8333,4.8296,4.8296,4.8296,4.8275,4.8265,4.8296,4.8715,4.9475,5.0719,5.1022,5.1499,5.2307,5.1032,5.0812,5.195,5.2234,5.2637,5.3177,5.3214,5.3214,5.3214,5.3214,5.3214,5.3214,5.3214,5.3214,5.3214,5.3214,5.3214,5.3214,5.3214,5.3214,5.3214,5.3214,5.3214,5.3214,5.3214,5.2847,5.2344,5.2344,5.1977,5.1599,5.216,5.2344,5.2454,5.3031,5.3214,5.3214,5.3214,5.2784,5.2344,5.2344,5.194,5.1489,5.1489,5.1489,5.1489,5.1489,5.1489,5.1489,5.1489,5.1316,5.1169,5.1169,5.0949,5.0892,5.1137,5.1051,5.111,5.1522,5.1255,5.1126,5.1377,5.118,5.0856,5.0359,5.0283,5.0283,5.0283,5.0283,5.0283,5.0283,5.0283,5.0283,5.0283,5.0283,5.0283,5.0283,5.0283,5.0283,5.0283,5.0283,5.0283,4.8296,4.8296,4.8296,4.8296,4.8296,4.8296,4.8296,4.8296,4.8526,4.9417,4.961,4.9821,5.0618,5.0765,5.0508,4.9721,4.961,4.927,4.8406,4.8296,4.8296,4.8296,4.8296,4.8296,4.8296,4.9811,5.0792,5.0802,5.1536,5.2344,5.3141,5.2417,5.1987,5.1987,5.2784,5.3177,5.3214,5.3214,5.3214,5.3214,5.3214,5.3214,5.3214,5.3214,5.3214,5.3214,5.3214,5.3214,5.3214,5.3214,5.3214,5.3214,5.3214,5.3214,5.3214,5.3214,5.3177,5.3177,5.3177,5.3177,5.3177,5.3177,5.3177,5.3177,5.3214,5.3214,5.3214,5.3214,5.3177,5.3177,5.3177,5.3177,5.3177,5.3177,5.3177,5.3177,5.3177,5.3177,5.3177,5.3177,5.2527,5.1987,5.1987,5.1316,5.0802,5.0802,5.1072,5.1296,5.1296,5.189,5.2291,5.2291,5.2564,5.2079,5.0436,5.0283,5.0283,5.0283,5.0283,5.0283,5.0283,5.0283,5.0283,5.0283,5.0283,5.0283,5.0283,5.0283,5.0283,5.0283,5.0283,5.0283,4.8296,4.8296,4.8296,4.8296,4.8296,4.8296,4.8296,4.8746,4.927,4.9537,5.0041,5.0508,5.0765,5.0802,5.0729,5.0472,4.9968,4.95,4.9233,4.8673,4.8296,4.8296,4.8296,4.8526,4.9123,5.0178,5.1022,5.1573,5.238,5.292,5.3177,5.2957,5.2821,5.2821,5.3067,5.3214,5.3214,5.3214,5.3214,5.3214,5.3214,5.3214,5.3214,5.3214,5.3214,5.3214,5.3214,5.3214,5.3214,5.3214,5.3214,5.3214,5.3214,5.3214,5.3214,5.3214,5.3214,5.3214,5.3214,5.3214,5.3214,5.3214,5.3214,5.3214,5.3214,5.3214,5.3214,5.3214,5.3214,5.3214,5.3214,5.3214,5.3214,5.3214,5.3214,5.3214,5.3214,5.3214,5.3214,5.3214,5.2994,5.2821,5.2821,5.281,5.2776,5.2776,5.3125,5.3328,5.3328,5.3245,5.32,5.32,5.2945,5.2581,5.204,5.2008,5.1773,5.1232,5.1194,5.0926,5.0321,5.0283,5.0283,5.0283,5.0283,5.0283,5.0283,5.0283,5.0283,5.0283,5.0283,5.0283,4.8296,4.8296,4.8296,4.8296,4.8563,4.8783,4.8783,4.9454,5.0151,5.0445,5.0922,5.1353,5.1636,5.1709,5.161,5.1316,5.0592,4.9931,4.9647,4.8857,4.8296,4.8296,4.8296,4.8636,4.9537,5.0335,5.1132,5.195,5.2747,5.3214,5.3214,5.3214,5.3214,5.3214,5.3214,5.3214,5.3214,5.3214,5.3214,5.3214,5.3214,5.3214,5.3214,5.3214,5.3214,5.3214,5.3214,5.3214,0.0,5.3214,5.3214,5.3214,5.3214,5.3214,5.3214,5.3214,5.3214,5.3214,5.3214,5.3214,5.3214,5.3214,5.3214,5.3214,5.3214,5.3214,5.3214,5.3214,5.3214,5.3214,5.3214,5.3214,5.3214,5.3214,5.3214,5.3214,5.3214,5.3214,5.3214,5.3214,5.3214,5.3214,5.3214,5.3369,5.3563,5.3682,5.3925,5.4132,5.4271,5.4176,5.4041,5.4041,5.3897,5.3798,5.3798,5.3187,5.2581,5.2079,5.2034,5.1811,5.1276,5.1238,5.1238,5.1238,5.0971,5.0779,5.0779,5.0468,5.0283,5.0283,5.0283,5.0283,0.0,4.837,4.837,4.837,4.905,4.9674,4.9674,5.0298,0.0,5.184,5.206,5.2307,5.3067,5.3214,5.2957,5.2197,5.1426,5.0582,4.9784,4.8893,4.8296,4.8296,4.8296,4.8673,4.9601,5.0362,5.1169,5.2024,5.2784,5.3214,5.3214,5.3214,5.3214,5.3214,5.3214,5.3214,5.3214,5.3214,5.3214,5.3214,5.3214,5.3214,5.3214,5.3214,5.3214,5.3214,5.3214,5.3214,5.3214,5.3214,5.3214,5.3214,5.3214,5.3214,5.3214,5.3214,5.3214,5.3214,5.3214,5.3214,5.3214,5.3214,5.3214,5.3214,5.3214,5.3214,5.3214,5.3214,5.3214,5.3214,5.3214,5.3214,5.3214,5.3214,5.3214,5.3214,5.3214,5.3214,5.3214,5.3214,5.3214,5.3214,5.3214,5.3209,5.3339,5.3682,5.3767,5.3934,5.4322,5.4646,5.4836,5.4836,5.5161,5.5396,5.5396,5.3913,5.2964,5.2887,5.2887,5.2849,5.2811,5.2811,5.2811,5.2811,5.2079,5.1691,5.1691,5.085,5.0474,5.0474,5.0436,5.0397,4.9307,0.0,4.9307,4.9307,4.9931,5.0508,0.0,5.1132,5.1767,5.195,5.2491,5.2994,5.3177,5.3214,5.3141,5.2957,5.2234,5.1426,5.0618,4.926,4.8296,4.8296,4.8296,4.8884,5.0362,5.0692,5.1389,5.281,5.3104,5.3214,5.3214,5.3214,5.3214,5.3214,5.3214,5.3214,5.3214,5.3214,5.3214,5.3214,5.3214,5.3214,5.3214,5.3214,5.3214,5.3214,5.3214,5.3214,5.3214,5.3214,5.3214,5.3214,5.3214,5.3214,5.3214,5.3214,5.3214,5.3214,5.3214,5.3214,5.3214,5.3214,5.3214,5.3214,5.3214,5.3214,5.3214,5.3214,5.3214,5.3214,5.3214,5.3214,5.3214,5.3214,5.3214,5.3214,5.3214,5.3214,5.3214,5.3214,5.3214,5.3214,5.3214,5.342,5.3701,5.4097,5.4397,5.4685,5.5085,5.5219,5.526,5.526,5.5357,5.5396,5.5396,5.5021,5.4486,5.3836,5.3798,5.3492,5.2849,5.2811,5.2811,5.2811,5.2614,5.2499,5.2499,5.2308,5.2199,5.2199,5.1576,5.1308,5.0151,5.0151,5.0151,5.0151,5.0765,5.1353,5.1353,5.1977,5.2564,5.2564,5.2894,5.3214,5.3214,5.3214,5.3214,5.3214,5.2234,5.1022,4.9801,4.9224,4.8746,4.8343,4.8296,4.8957,5.0655,5.0802,5.1453,5.3067,5.3214,5.3214,5.3214,5.3214,5.3214,5.3214,5.3214,5.3214,5.3214,5.3214,5.3214,5.3214,5.3214,5.3214,5.3214,5.3214,5.3214,5.3214,5.3214,5.3398,5.3728,5.3728,5.3959,5.4289,5.4289,5.4289,5.4289,5.4289,5.4289,5.4289,5.4289,5.4289,5.4289,5.4289,5.4289,5.4289,5.4289,5.4289,5.4216,5.3838,5.4032,5.4289,5.4289,5.4289,5.4289,5.4289,5.4289,5.4289,5.4289,5.4289,5.4289,5.4289,5.4289,5.4289,5.4289,5.4159,5.4227,5.4764,5.4672,5.4784,5.5344,5.5396,5.5396,5.5396,5.5396,5.5396,5.5396,5.5396,5.5205,5.4715,5.4715,5.4486,5.4027,5.3989,5.3798,5.3416,5.3416,5.3193,5.2811,5.2811,5.2811,5.2811,5.2346,5.2155,5.0986,5.1059,5.1122,5.1022,5.1573,5.216,5.216,5.2711,5.3214,5.3214,5.3214,5.3214,5.3214,5.3214,5.3214,5.3214,5.1856,5.0288,4.8884,4.9087,4.9123,4.837,4.8406,4.9114,5.0655,5.0912,5.161,5.3104,5.3214,5.3214,5.3214,5.3214,5.3214,5.3214,5.3214,5.3214,5.3214,5.3214,5.3214,5.3214,5.3214,5.3214,5.3214,5.3214,5.3287,5.3398,5.3398,5.3849,5.4583,5.4583,5.4997,5.5585,5.5585,5.5585,5.5585,5.5585,5.5585,5.5585,5.5585,5.5585,5.5585,5.5585,5.5585,5.5585,5.5585,5.5695,5.5658,5.495,5.5181,5.5585,5.5585,5.5585,5.5585,5.5585,5.5585,5.5585,5.5585,5.5585,5.5585,5.5585,5.5585,5.5585,5.5585,5.5034,5.4822,5.5509,5.507,5.4897,5.5607,5.5752,5.5747,5.5594,5.5587,5.5511,5.5396,5.5396,5.5396,5.5396,5.5396,5.5396,5.5396,5.5396,5.5052,5.4295,5.4295,5.3913,5.3193,5.3193,5.3193,5.3193,5.3078,5.3002,5.184,5.2307,5.2664,5.1977,5.2417,5.3031,5.3031,5.3104,5.3214,5.3214,5.3214,5.3214,5.3214,5.3214,5.3214,5.3214,5.1856,5.0729,5.0435,4.9297,4.8443,4.8306,4.894,4.9784,5.0729,5.1426,5.2197,5.3141,5.3214,5.3214,5.3214,5.3214,5.3214,5.3214,5.3214,5.3214,5.3214,5.3214,5.3214,5.3214,5.3214,5.3214,5.3214,5.3214,5.3581,5.4216,5.4216,5.4656,5.5438,5.5438,5.5475,5.5585,5.5585,5.5585,5.5585,5.5585,5.5585,5.5585,5.5585,5.5585,5.5585,5.5585,5.5585,5.5585,5.5585,5.6088,5.6602,5.6492,5.6014,5.5585,5.5585,5.5585,5.5585,5.5585,5.5585,5.5585,5.5585,5.5585,5.5585,5.5585,5.5585,5.5585,5.5585,5.5511,5.5538,5.5949,5.6173,5.65,5.6929,5.7301,5.7237,5.6479,5.6441,5.6129,5.5473,5.5396,5.5396,5.5396,5.5396,5.5396,5.5396,5.5396,5.532,5.5205,5.5205,5.5129,5.5014,5.5014,5.5014,5.4982,5.4256,5.3913,5.2637,5.292,5.3104,5.2747,5.292,5.3214,5.3214,5.3214,5.3214,5.3214,5.3214,5.3214,5.3214,5.3214,5.3067,5.2637,5.2307,5.1646,5.0335,4.9848,4.9324,4.8406,4.9087,4.9931,5.0729,5.1536,5.2344,5.3141,5.3214,5.3214,5.3214,5.3214,5.3214,5.3214,5.3214,5.3214,5.3214,5.3214,5.3214,5.3214,5.3214,5.3434,5.3838,5.3838,5.4289,5.506,5.506,5.55,5.6235,5.6235,5.6492,5.6907,5.6907,5.6907,5.6907,5.6907,5.6907,5.6907,5.6907,5.6907,5.6907,5.6907,5.6907,5.6907,5.6907,5.7152,5.7446,5.7446,5.7189,5.6907,5.6907,5.6907,5.6907,5.6907,5.6907,5.6907,5.6907,5.6907,5.6907,5.6907,5.6907,5.6907,5.6907,5.6528,5.6352,5.6702,5.6725,5.6859,5.7237,5.7654,5.7734,5.7358,5.732,5.716,5.6778,5.674,5.6358,5.5473,5.5396,5.5396,5.5396,5.5396,5.5396,5.5396,5.5396,5.5396,5.5396,5.5396,5.5396,5.5396,5.4976,5.4791,5.3214,5.3214,5.3214,5.3214,5.3214,5.3214,5.3214,5.3214,5.3214,5.3214,5.3214,5.3214,5.3214,5.3214,5.2994,5.238,5.2637,5.227,5.0408,5.0372,5.0031,4.8746,4.9344,5.0115,5.0729,5.1683,5.2527,5.3141,5.3214,5.3214,5.3214,5.3214,5.3214,5.3214,5.3214,5.3214,5.3214,5.3214,5.3214,5.3214,5.3398,5.3801,5.4399,5.4583,5.5133,5.5879,5.5879,5.6345,5.7079,5.7079,5.7446,5.7997,5.7997,5.7997,5.7997,5.7997,5.7997,5.7997,5.7997,5.7997,5.7997,5.7997,5.7997,5.7997,5.7997,5.7997,5.7997,5.7997,5.7997,5.7997,5.7997,5.7997,5.7997,5.7997,5.7997,5.7997,5.7997,5.7997,5.7997,5.7997,5.7997,5.7997,5.7997,5.7573,5.732,5.7575,5.752,5.7527,5.7867,5.8232,5.8421,5.8192,5.8192,5.8116,5.7925,5.7886,5.7351,5.6091,5.5626,5.5396,5.5396,5.5396,5.5396,5.5396,5.5396,5.5396,5.5396,5.5396,5.5396,5.5396,5.5396,5.5396,5.3214,5.3214,5.3214,5.3214,5.3214,5.3214,5.3214,5.3214,5.3214,5.3214,5.3214,5.3214,5.3214,5.3214,5.3177,5.3104,5.2527,5.2024,5.184,5.0592,4.9647,4.9527,5.0225,5.0729,5.0802,5.2186,5.3141,5.3214,5.3214,5.3214,5.3214,5.3214,5.3214,5.3214,5.3214,5.3214,5.3214,5.3214,5.3214,5.3214,5.3959,5.4326,5.4436,5.5181,5.5941,5.6701,5.6701,5.7189,5.7923,5.7923,5.796,5.7997,5.7997,5.7997,5.7997,5.7997,5.7997,5.7997,5.7997,5.7997,5.7997,5.7997,5.7997,5.7997,5.7997,5.7997,5.7997,5.7997,5.7997,5.7997,5.7997,5.7997,5.7997,5.7997,5.7997,5.7997,5.7997,5.7997,5.7997,5.7997,5.7997,5.7997,5.7997,5.8267,5.8481,5.8512,5.9129,5.9596,5.962,5.9953,5.9911,5.9102,5.9026,5.872,5.7963,5.7886,5.7848,5.7734,5.6243,5.5396,5.5396,5.5396,5.5396,5.5396,5.5396,5.5396,5.5396,5.5396,5.5396,5.5396,5.5396,5.5396,5.3214,5.3214,5.3214,5.3214,5.3214,5.3214,5.3214,5.3214,5.3214,5.3214,5.3214,5.3214,5.3214,5.3214,5.3214,5.3214,5.292,5.2564,5.206,5.1473,5.0922,5.0408,5.1059,5.1536,5.1536,5.2564,5.3214,5.3214,5.3214,5.3214,5.3214,5.3214,5.3214,5.3214,5.3214,5.3214,5.3214,5.3214,5.3434,5.3959,5.4252,5.4913,5.5904,5.6198,5.6785,5.7556,5.7556,5.7703,5.7997,5.7997,5.7997,5.7997,5.7997,5.7997,5.7997,5.7997,5.7997,5.7997,5.7997,5.7997,5.7997,5.7997,5.7997,5.7997,5.7997,5.7997,5.7997,5.7997,5.7997,5.7997,5.7997,5.7997,5.7997,5.7997,5.7997,5.7997,5.7997,5.7997,5.7997,5.7997,5.7997,5.7997,5.7997,5.8326,5.8597,5.8597,5.9269,5.9809,5.9809,6.0144,6.0262,5.995,5.9911,5.9804,5.9498,5.8956,5.8644,5.8644,5.7581,5.6969,5.6969,5.6434,5.6129,5.6129,5.567,5.5396,5.5396,5.5396,5.5396,5.5396,5.5396,5.5396,5.3214,5.3214,5.3214,5.3214,5.3214,5.3214,5.3214,5.3214,5.3214,5.3214,5.3214,5.3214,5.3214,5.3214,5.3214,5.3214,5.3214,5.2994,5.2454,5.216,5.1803,5.1242,5.1646,5.1987,5.1987,5.2747,5.3214,5.3214,5.3214,5.3214,5.3214,5.3214,5.3214,5.3214,5.3214,5.3214,5.3214,5.3434,5.3995,5.4766,5.5023,5.5721,5.6811,5.7068,5.7483,5.7997,5.7997,5.7997,5.7997,5.7997,5.7997,5.7997,5.7997,5.7997,5.7997,5.7997,5.7997,5.7997,5.7997,5.7997,5.7997,5.7997,5.7997,5.7997,5.7997,5.7997,5.7997,5.7997,5.7997,5.7997,5.7997,5.7997,5.7997,5.7997,5.7997,5.7997,5.7997,5.7997,5.7997,5.7997,5.7997,5.7997,5.7997,5.8326,5.8638,5.8781,5.9379,5.985,5.9961,6.0248,6.0415,6.0415,6.0415,6.0415,6.0415,5.9835,5.9529,5.9529,5.8994,5.8459,5.7925,5.7313,5.7014,5.7014,5.6473,5.6046,5.5785,5.5785,5.567,5.5396,5.5396,5.5396,5.3214,5.3214,5.3214,5.3214,5.3214,5.3214,5.3214,5.3214,5.3214,5.3214,5.3214,5.3214,5.3214,5.3214,5.3214,5.3214,5.3214,5.3214,5.3214,5.2527,5.2024,5.2024,5.2024,5.2024,5.2024,5.2737,5.3214,5.3214,5.3214,5.3214,5.3214,5.3214,5.3214,5.3214,5.3214,5.3214,5.3214,5.3995,5.4803,5.5622,5.6418,5.6811,5.6847,5.7629,5.7997,5.7997,5.7997,5.7997,5.7997,5.7997,5.7997,5.7997,5.7997,5.7997,5.7997,5.7997,5.7997,5.7997,5.7997,5.7997,5.7997,5.7997,5.7997,5.7997,5.7997,5.7997,5.7997,5.7997,5.7997,5.7997,5.7997,5.7997,5.7997,5.7997,5.7997,5.7997,5.7997,5.7997,5.7997,5.7997,5.7997,5.7997,5.7997,5.8326,5.874,5.915,5.9537,5.9937,6.0342,6.0415,6.0415,6.0415,6.0415,6.0415,6.0415,6.0415,6.0415,6.0415,6.0415,5.9651,5.8001,5.7925,5.7925,5.7925,5.7886,5.7473,5.6594,5.6594,5.6205,5.5435,5.5435,5.5396,5.3198,5.323,5.3246,5.3198,5.3214,5.3214,5.3214,5.3214,5.3214,5.3214,5.3214,5.3214,5.3214,5.3214,5.3214,5.3214,5.3214,5.3214,5.3214,5.2994,5.2847,5.2847,5.2847,5.2847,5.2847,5.3067,5.3214,5.3214,5.3214,5.3214,5.3214,5.3214,5.3214,5.3214,5.3214,5.3214,5.3214,5.3995,5.4803,5.5622,5.6418,5.7116,5.7666,5.7886,5.7997,5.7997,5.7997,5.7997,5.7997,5.7997,5.7997,5.7997,5.7997,5.7997,5.7997,5.7997,5.7997,5.7997,5.7997,5.7997,5.7997,5.7997,5.7997,5.7997,5.7997,5.7997,5.7997,5.7997,5.7997,5.7997,5.7997,5.7997,5.7997,5.7997,5.7997,5.7997,5.7997,5.7997,5.7997,5.7997,5.7997,5.7997,5.7997,5.8326,5.874,5.915,5.9537,5.9937,6.0342,6.0415,6.0415,6.0415,6.0415,6.0415,6.0415,6.0415,6.0415,6.0415,6.0415,6.0186,5.9689,5.9071,5.872,5.872,5.8192,5.7772,5.7504,5.7504,5.739,5.7122,5.6511,5.6243,5.3334,5.3297,5.3297,5.3261,5.3209,5.3214,5.3214,5.3214,5.3214,5.3214,5.3214,5.3214,5.3214,5.3214,5.3214,5.3214,5.3214,5.3214,5.3214,5.3214,5.3214,5.3214,5.3214,5.3214,5.3214,5.3214,5.3214,5.3214,5.3214,5.3214,5.3214,5.3214,5.3214,5.3214,5.3214,5.3214,5.3214,5.4326,5.5108,5.5622,5.6748,5.7519,5.7997,5.7997,5.7997,5.7997,5.7997,5.7997,5.7997,5.7997,5.7997,5.7997,5.7997,5.7997,5.7997,5.7997,5.7997,5.7997,5.7997,5.7997,5.7997,5.7997,5.7997,5.7997,5.7997,5.7997,5.7997,5.7997,5.7997,5.807,5.84,5.8474,5.84,5.807,5.7997,5.7997,5.7997,5.7997,5.7997,5.7997,5.7997,5.7997,5.7997,5.8209,5.8519,5.891,5.945,5.9937,6.0342,6.0415,6.0415,6.0415,6.0415,6.0415,6.0415,6.0415,6.0415,6.0415,6.0415,6.0415,6.0415,5.9911,5.9606,5.9606,5.9147,5.8727,5.8383,5.8383,5.823,5.7886,5.7351,5.7129,5.3491,5.342,5.3339,5.3318,5.3235,5.3198,5.3198,5.3198,5.3225,5.3214,5.3214,5.3214,5.3214,5.3214,5.3214,5.3214,5.3214,5.3214,5.3214,5.3214,5.3214,5.3214,5.3214,5.3214,5.3214,5.3214,5.3214,5.3214,5.3214,5.3214,5.3214,5.3214,5.3214,5.3214,5.3214,5.3214,5.3214,5.4803,5.5585,5.5622,5.7237,5.7997,5.7997,5.7997,5.7997,5.7997,5.7997,5.7997,5.7997,5.7997,5.7997,5.7997,5.7997,5.7997,5.7997,5.7997,5.7997,5.7997,5.7997,5.7997,5.7997,5.7997,5.7997,5.7997,5.7997,5.7997,5.8033,5.8107,5.8107,5.829,5.9086,5.9306,5.9123,5.84,5.8217,5.8217,5.8217,5.8217,5.8217,5.8217,5.8143,5.813,5.8164,5.8102,5.8209,5.8638,5.9341,5.9969,6.0342,6.0415,6.0415,6.0415,6.0415,6.0415,6.0415,6.0415,6.0415,6.0415,6.0415,6.0415,6.0415,6.0415,6.0415,6.0415,6.0415,5.9988,5.9217,5.9217,5.8842,5.8116,5.8039,5.8001,5.3548,5.3558,5.3558,5.3349,5.3297,5.3277,5.3277,5.3277,5.3246,5.3198,5.3214,5.3214,5.3214,5.3214,5.3214,5.3214,5.3214,5.3214,5.3214,5.3214,5.3214,5.3214,5.3214,5.3214,5.3214,5.3214,5.3214,5.3214,5.3214,5.3214,5.3214,5.3214,5.3214,5.3214,5.3214,5.3214,5.3214,5.4803,5.5585,5.5622,5.7237,5.7997,5.7997,5.7997,5.7997,5.7997,5.7997,5.7997,5.7997,5.7997,5.7997,5.7997,5.7997,5.7997,5.7997,5.7997,5.7997,5.7997,5.7997,5.7997,5.7997,5.7997,5.7997,5.7997,5.7997,5.7997,5.8143,5.8756,5.8939,5.9123,5.993,6.015,6.0114,5.9905,5.9869,5.9869,5.9869,5.9869,5.9869,5.9869,5.938,5.903,5.9364,5.8884,5.872,5.945,5.9953,6.0306,6.0408,6.0415,6.0415,6.0415,6.0415,6.0415,6.0415,6.0415,6.0415,6.0415,6.0415,6.0415,6.0415,6.0415,6.0415,6.0415,6.0415,6.03,6.0109,6.0109,6.0033,5.9842,5.9147,5.8835,5.3649,5.3667,5.3664,5.344,5.34,5.338,5.3328,5.339,5.3437,5.322,5.3214,5.3214,5.3214,5.3214,5.3214,5.3214,5.3214,5.3214,5.3214,5.3214,5.3214,5.3214,5.3214,5.3214,5.3214,5.3214,5.3214,5.3214,5.3214,5.3214,5.3214,5.3214,5.3214,5.3214,5.3214,5.3214,5.3214,5.4803,5.5585,5.5622,5.7237,5.7997,5.7997,5.7997,5.7997,5.7997,5.7997,5.7997,5.7997,5.7997,5.7997,5.7997,5.7997,5.7997,5.7997,5.7997,5.7997,5.7997,5.7997,5.7997,5.7997,5.7997,5.7997,5.807,5.8474,5.8572,5.8719,5.9563,5.9783,5.9967,6.0786,6.097,6.1092,6.1532,6.1018,6.0419,6.0419,6.0419,6.0431,6.0466,6.0147,5.9946,6.0215,6.0051,6.0005,6.0316,6.0531,6.0623,6.0432,6.0415,6.0415,6.0415,6.0415,6.0415,6.0415,6.0415,6.0415,6.0415,6.0415,6.0415,6.0415,6.0415,6.0415,6.0415,6.0415,6.0415,6.0415,6.0415,6.0415,6.0377,5.9911,5.9741,5.3784,5.3754,5.3694,5.3598,5.3521,5.3528,5.339,5.3538,5.3615,5.3272,5.3209,5.3209,5.3209,5.3225,5.3177,5.3209,5.3225,5.3214,5.3214,5.3214,5.3177,5.3209,5.3209,5.322,5.3241,5.322,5.3209,5.3209,5.3225,5.3214,5.3214,5.3214,5.3214,5.3214,5.3214,5.3225,5.3209,5.4836,5.5618,5.5644,5.7237,5.8008,5.8031,5.8008,5.7997,5.7997,5.7997,5.7997,5.7997,5.7997,5.7997,5.7997,5.7997,5.7997,5.7997,5.7997,5.7997,5.7997,5.7997,5.7997,5.7997,5.7997,5.8107,5.8327,5.9013,5.9306,5.9563,6.0382,6.0615,6.0822,6.163,6.1875,6.2059,6.2867,6.1923,6.0883,6.0883,6.0883,6.0919,6.1037,6.0983,6.095,6.0981,6.1288,6.1487,6.1384,6.1351,6.1255,6.0898,6.0856,6.0849,6.0835,6.0683,6.0606,6.0606,6.0492,6.0415,6.0415,6.0415,6.0422,6.0436,6.0436,6.0398,6.0412,6.0405,6.0398,6.0412,6.0412,6.0412,6.0412,6.0412,6.0446,5.3784,5.3754,5.3723,5.3764,5.3716,5.3684,5.3664,5.3684,5.3608,5.3339,5.3287,5.3287,5.3287,5.3241,5.3209,5.3277,5.3241,5.3214,5.3214,5.3214,5.3209,5.3277,5.3287,5.3328,5.343,5.3349,5.3287,5.3287,5.323,5.3214,5.3214,5.3214,5.3214,5.3214,5.3214,5.322,5.3287,5.4928,5.5774,5.5789,5.7271,5.8054,5.8156,5.8042,5.7997,5.7997,5.7997,5.7997,5.7997,5.7997,5.7997,5.7997,5.7997,5.7997,5.7997,5.7997,5.7997,5.7997,5.7997,5.7997,5.7997,5.7997,5.8462,5.9049,5.9159,5.9673,6.0419,6.119,6.1532,6.1788,6.261,6.2915,6.3024,6.3159,6.2999,6.284,6.284,6.284,6.284,6.2863,6.2569,6.2224,6.1883,6.2182,6.2511,6.2801,6.2811,6.2759,6.2654,6.2648,6.2626,6.2555,6.1898,6.144,6.144,6.0797,6.0415,6.0415,6.0415,6.0443,6.0466,6.0504,6.0493,6.0552,6.0538,6.0538,6.0552,6.0552,6.0552,6.0552,6.0552,6.0597,5.3784,5.3754,5.3733,5.3765,5.3745,5.3704,5.3704,5.3716,5.3696,5.3451,5.3451,5.3487,5.3328,5.3266,5.3277,5.339,5.3406,5.3345,5.3282,5.3272,5.3256,5.3308,5.3308,5.3359,5.3481,5.344,5.338,5.3318,5.3266,5.3241,5.3214,5.3214,5.3214,5.3214,5.3214,5.323,5.3308,5.4949,5.627,5.7246,5.7892,5.8271,5.8316,5.826,5.8133,5.7997,5.7997,5.7997,5.7997,5.7997,5.7997,5.7997,5.7997,5.7997,5.7997,5.7997,5.7997,5.7997,5.7997,5.8042,5.8162,5.8559,5.9007,5.9589,6.0391,6.0942,6.1443,6.229,6.2547,6.2656,6.3025,6.3147,6.3206,6.3277,6.3301,6.3312,6.3419,6.3326,6.3206,6.3277,6.3211,6.3158,6.3175,6.3462,6.3668,6.3505,6.3664,6.3645,6.312,6.3075,6.3023,6.3027,6.2682,6.2452,6.2452,6.2115,6.1923,6.1923,6.1495,6.1241,6.1267,6.0807,6.0572,6.0642,6.0572,6.0552,6.0578,6.0578,6.0578,6.0578,6.0578,6.0604,5.3784,5.3764,5.3725,5.3802,5.3764,5.3743,5.3743,5.3764,5.3737,5.3598,5.3617,5.3654,5.342,5.3369,5.339,5.3548,5.3501,5.3461,5.3369,5.3359,5.3359,5.339,5.339,5.344,5.3551,5.3578,5.3528,5.34,5.3369,5.3318,5.3272,5.3261,5.3261,5.3261,5.3261,5.3324,5.339,5.507,5.6747,5.848,5.8426,5.8404,5.8437,5.8404,5.8305,5.8088,5.8088,5.8088,5.8088,5.8088,5.8088,5.8088,5.8088,5.8088,5.8088,5.8088,5.8088,5.8088,5.8088,5.8303,5.8654,5.9141,5.9723,6.0413,6.1538,6.2053,6.2419,6.3035,6.3206,6.323,6.323,6.3291,6.3338,6.3442,6.3465,6.3488,6.3579,6.3454,6.3349,6.3442,6.3534,6.3714,6.4063,6.4407,6.4509,6.4225,6.4508,6.455,6.3884,6.3807,6.3756,6.3736,6.3544,6.3429,6.3429,6.3244,6.309,6.309,6.2547,6.2208,6.2228,6.1608,6.1294,6.1369,6.1127,6.0866,6.0635,6.0635,6.0635,6.0635,6.0635,6.0667,5.3784,5.3784,5.3784,5.3784,5.3784,5.3775,5.3775,5.3784,5.3793,5.3686,5.3704,5.3704,5.3694,5.3578,5.3548,5.3684,5.3588,5.3481,5.3481,5.3481,5.3548,5.3674,5.3684,5.3696,5.3765,5.3725,5.3694,5.3684,5.3568,5.3481,5.3471,5.3471,5.3471,5.3471,5.3471,5.3558,5.3684,5.5286,5.6967,5.8667,5.8502,5.8411,5.8508,5.8437,5.8393,5.8382,5.8382,5.8382,5.8382,5.8382,5.8382,5.8382,5.8382,5.8382,5.8382,5.8382,5.8382,5.8382,5.8382,5.8862,5.9538,5.9564,6.0609,6.1876,6.1976,6.253,6.3146,6.3183,6.3277,6.337,6.337,6.3488,6.3579,6.3579,6.3579,6.3579,6.359,6.3579,6.3579,6.3579,6.359,6.3747,6.4128,6.4473,6.482,6.5154,6.5552,6.5788,6.5685,6.5672,6.5606,6.5493,6.4803,6.4349,6.4349,6.3582,6.309,6.309,6.3052,6.3078,6.3137,6.3105,6.3092,6.3154,6.2391,6.1627,6.0775,6.0775,6.0775,6.0775,6.0775,6.0775,5.3784,5.3784,5.3784,5.3784,5.3784,5.3784,5.3784,5.3784,5.3775,5.3774,5.3764,5.3764,5.3764,5.3686,5.3647,5.3754,5.3708,5.3696,5.3627,5.3617,5.3664,5.3704,5.3704,5.3743,5.3775,5.3793,5.3745,5.3714,5.3674,5.3588,5.3491,5.3491,5.3491,5.3491,5.3491,5.4058,5.5242,5.5896,5.706,5.8687,5.8614,5.8593,5.8635,5.8593,5.8572,5.8572,5.8572,5.8534,5.8393,5.8393,5.8393,5.8393,5.8393,5.8393,5.8393,5.8393,5.8393,5.8467,5.8984,5.9409,5.9871,6.0828,6.1647,6.2342,6.2755,6.3148,6.3465,6.3465,6.35,6.3534,6.3534,6.3557,6.359,6.359,6.359,6.359,6.359,6.359,6.359,6.359,6.359,6.3647,6.3786,6.4302,6.4751,6.4879,6.5485,6.5891,6.5865,6.5865,6.5852,6.5788,6.5519,6.5365,6.5365,6.5064,6.4911,6.4911,6.4373,6.4071,6.409,6.3552,6.3289,6.3314,6.3006,6.2474,6.1633,6.1056,6.0787,6.0787,6.0787,6.0787,5.3823,5.3784,5.3784,5.3784,5.3784,5.3784,5.3784,5.3784,5.3784,5.3784,5.3784,5.3784,5.3784,5.3764,5.3745,5.3775,5.3784,5.3765,5.3735,5.3725,5.3725,5.3725,5.3725,5.3754,5.3784,5.3784,5.3793,5.3725,5.3725,5.3696,5.359,5.359,5.359,5.359,5.359,5.4444,5.6156,5.6253,5.71,5.8687,5.8687,5.8687,5.8687,5.8687,5.8687,5.8687,5.8687,5.8604,5.8513,5.8513,5.8513,5.8513,5.8513,5.8513,5.8513,5.8513,5.8661,5.8994,5.9512,6.0111,6.0833,6.1829,6.2438,6.2874,6.3314,6.3534,6.359,6.359,6.359,6.359,6.359,6.359,6.359,6.359,6.359,6.359,6.359,6.359,6.359,6.359,6.359,6.359,6.359,6.4204,6.4708,6.4708,6.5374,6.5904,6.5904,6.5904,6.5904,6.5904,6.5904,6.5904,6.5904,6.5904,6.5904,6.5904,6.5359,6.5051,6.5051,6.4474,6.4166,6.4166,6.3891,6.3474,6.2941,6.205,6.1512,6.1248,6.1248,6.1095,0.0,0.0,0.0,5.3784,5.3784,5.3784,5.3784,5.3784,5.3784,5.3784,5.3784,5.3784,5.3784,5.3784,5.3784,5.3784,5.3784,5.3784,5.3784,5.3784,5.3784,5.3784,5.3784,5.3784,5.3784,5.3784,5.3784,5.3784,5.3784,5.3784,5.3784,5.3784,5.3784,5.3784,5.3784,5.4602,5.6283,5.632,5.71,5.8687,5.8687,5.8687,5.8687,5.8687,5.8687,5.8687,5.8687,5.8687,5.8687,5.8687,5.8687,5.8687,5.8687,5.8687,5.8687,5.8725,5.9245,5.9913,5.995,6.1028,6.2402,6.2439,6.2959,6.359,6.359,6.359,6.359,6.359,6.359,6.359,6.359,6.359,6.359,6.359,6.359,6.359,6.359,6.359,6.359,6.359,6.359,6.359,6.359,6.4194,6.469,6.4708,6.5366,6.5891,6.5897,6.5904,6.5904,6.5904,6.5904,6.5904,6.5904,6.5904,6.5904,6.5904,6.5904,6.5904,6.5904,6.5904,6.5904,6.5904,6.5051,6.4628,6.4628,6.3737,6.2897,6.2133,6.2133,6.1672,5.3898,0.0,0.0,0.0,0.0,0.0,5.3784,5.3784,5.3784,5.3784,5.3784,5.3784,5.3784,5.3784,5.3784,5.3784,5.3784,5.3784,5.3784,5.3784,5.3784,5.3784,5.3784,5.3784,5.3784,5.3784,5.3784,5.3784,5.3784,5.3784,5.3784,5.3784,5.3784,5.3784,5.3784,5.4602,5.6283,5.632,5.71,5.8687,5.8687,5.8687,5.8687,5.8687,5.8687,5.8687,5.8687,5.8687,5.8687,5.8687,5.8687,5.8687,5.8687,5.8687,5.8762,5.9356,5.9728,6.0062,6.1288,6.1993,6.2513,6.307,6.3405,6.359,6.359,6.359,6.359,6.359,6.359,6.359,6.359,6.359,6.359,6.359,6.359,6.359,6.359,6.359,6.359,6.359,6.359,6.359,6.359,6.4015,6.4417,6.4664,6.5129,6.5587,6.5878,6.5904,6.5904,6.5904,6.5904,6.5904,6.5904,6.5904,6.5904,6.5904,6.5904,6.5904,6.5904,6.5904,6.5904,6.5904,6.5667,6.5551,6.5551,6.4045,6.3198,6.2974,6.2974,6.2852,5.3898,5.3784,5.3784,5.3784,0.0,0.0,5.3784,5.3784,5.3784,5.3784,5.3784,5.3784,5.3784,5.3784,5.3784,5.3784,5.3784,5.3784,5.3784,5.3784,5.3784,5.3784,5.3784,5.3784,5.3784,5.3784,5.3784,5.3784,5.3784,5.3784,5.3784,5.3784,5.3784,5.3784,5.3784,5.4602,5.6283,5.632,5.71,5.8687,5.8687,5.8687,5.8687,5.8687,5.8687,5.8687,5.8687,5.8687,5.8687,5.8687,5.8687,5.8687,5.8687,5.8687,5.8799,5.9616,6.0136,6.0619,6.1919,6.2625,6.2959,6.3442,6.359,6.359,6.359,6.359,6.359,6.359,6.359,6.359,6.359,6.359,6.359,6.359,6.359,6.359,6.359,6.359,6.359,6.359,6.359,6.359,6.359,6.391,6.432,6.4646,6.5049,6.5448,6.5865,6.5904,6.5904,6.5904,6.5904,6.5904,6.5904,6.5904,6.5904,6.5904,6.5904,6.5904,6.5904,6.5904,6.5904,6.5904,6.5904,6.5904,6.5904,6.4897,6.4199,6.3814,6.3468,6.3314,5.3963,5.3823,5.3784,5.3784,5.3784,0.0,5.3784,5.3784,5.3784,5.3784,5.3784,5.3784,5.3784,5.3784,5.3784,5.3784,5.3784,5.3784,5.3784,5.3784,5.3784,5.3784,5.3784,5.3784,5.3784,5.3784,5.3784,5.3784,5.3784,5.3784,5.3784,5.3784,5.3784,5.3784,5.3896,5.4713,5.6283,5.6395,5.7212,5.8687,5.8687,5.8687,5.8687,5.8687,5.8687,5.8687,5.8687,5.8687,5.8687,5.8687,5.8687,5.8687,5.8687,5.8762,5.8947,5.9728,6.0582,6.1447,6.2253,6.2996,6.359,6.359,6.359,6.359,6.359,6.359,6.359,6.359,6.359,6.359,6.359,6.359,6.359,6.359,6.359,6.359,6.359,6.359,6.359,6.359,6.359,6.359,6.359,6.3905,6.4251,6.4583,6.4992,6.5397,6.5781,6.5878,6.5904,6.5904,6.5904,6.5904,6.5904,6.5904,6.5904,6.5904,6.5904,6.5904,6.5904,6.5904,6.5904,6.5904,6.5904,6.5904,6.5904,6.5904,6.5513,6.4743,6.3929,6.3583,5.4279,5.3999,5.3784,5.3784,5.3784,0.0,5.3784,5.3784,5.3784,5.3784,5.3784,5.3784,5.3784,5.3784,5.3784,5.3784,5.3784,5.3784,5.3784,5.3784,5.3784,5.3784,5.3784,5.3784,5.3784,5.3784,5.3784,5.3784,5.3784,5.3784,5.3784,5.3784,5.3784,5.3784,5.4416,5.527,5.6283,5.6952,5.7769,5.8687,5.8687,5.8687,5.8687,5.8687,5.8687,5.8687,5.8687,5.8687,5.8687,5.8687,5.8687,5.8687,5.8687,5.9096,5.9765,6.0619,6.1473,6.229,6.307,6.3479,6.359,6.359,6.359,6.359,6.359,6.359,6.359,6.359,6.359,6.359,6.359,6.359,6.359,6.359,6.359,6.359,6.359,6.359,6.359,6.359,6.359,6.359,6.359,6.3669,6.3862,6.4231,6.4603,6.4938,6.539,6.5683,6.5904,6.5904,6.5904,6.5904,6.5904,6.5904,6.5904,6.5904,6.5904,6.5904,6.5904,6.5904,6.5904,6.5904,6.5904,6.5904,6.5904,6.5904,6.582,6.5628,6.5474,6.5397,5.4599,5.4422,5.4288,5.4288,5.4288,0.0,0.0,5.4044,5.399,5.3832,5.3784,5.3784,5.3784,5.3784,5.3784,5.3784,5.3784,5.3784,5.3784,5.3784,5.3784,5.3784,5.3784,5.3784,5.3784,5.3784,5.3784,5.3784,5.3784,5.3784,5.3784,5.4193,5.4416,5.4416,5.5196,5.605,5.6878,5.7286,5.7918,5.8687,5.8687,5.8687,5.8687,5.8687,5.8687,5.8687,5.8687,5.8687,5.8687,5.8687,5.8947,5.9282,5.9282,5.9542,6.0062,6.1325,6.203,6.2513,6.333,6.359,6.359,6.359,6.359,6.359,6.359,6.359,6.359,6.359,6.359,6.359,6.359,6.359,6.359,6.359,6.359,6.359,6.359,6.359,6.359,6.359,6.359,6.3669,6.3873,6.3915,6.4098,6.4648,6.4892,6.5129,6.5566,6.5775,6.5904,6.5904,6.5904,6.5904,6.5904,6.5904,6.5904,6.5904,6.5904,6.5904,6.5904,6.5904,6.5904,6.5904,6.5904,6.5904,6.5904,6.5904,6.5904,6.5904,6.5904,6.5904,5.5836,5.5807,5.5762,5.5762,5.5762,5.5677,0.0,0.0,0.0,5.4614,5.449,5.4453,5.4314,5.4277,5.4203,5.3859,5.3933,5.3933,5.3599,5.371,5.3784,5.3784,5.3784,5.3784,5.3784,5.3784,5.3784,5.3784,5.3933,5.4044,5.4044,5.4825,5.5233,5.5233,5.6087,5.684,5.7499,5.7647,5.8056,5.8687,5.8687,5.8687,5.8687,5.8687,5.8687,5.8687,5.8687,5.8687,5.8725,5.8873,5.9319,5.9913,5.9913,6.0099,6.0545,6.1882,6.2513,6.2736,6.3368,6.359,6.359,6.359,6.359,6.359,6.359,6.359,6.359,6.359,6.359,6.359,6.359,6.359,6.359,6.359,6.359,6.359,6.359,6.359,6.359,6.359,6.359,6.3747,6.4138,6.4209,6.4426,6.5073,6.5253,6.5427,6.5755,6.5865,6.5904,6.5904,6.5904,6.5904,6.5904,6.5904,6.5904,6.5904,6.5904,6.5904,6.5904,6.5904,6.5904,6.5904,6.5904,6.5904,6.5904,6.5904,6.5904,6.5904,6.5904,6.5904,5.9591,5.9443,5.9229,0.0,5.9237,5.9133,5.8787,0.0,5.8428,5.7302,0.0,5.6878,5.6134,0.0,0.0,5.4044,5.4416,5.4379,5.294,5.3348,5.3784,5.3784,5.3784,5.3784,5.3784,5.3784,5.3784,5.3784,5.4453,5.4862,5.4862,5.5679,5.6134,5.6134,5.6952,5.7398,5.7509,5.8205,5.8613,5.8687,5.8687,5.8687,5.8687,5.8687,5.8687,5.8687,5.8687,5.8687,5.8762,5.9467,5.9802,5.9913,5.9913,6.0805,6.2142,6.2328,6.2848,6.3479,6.3553,6.359,6.359,6.359,6.359,6.359,6.359,6.359,6.359,6.359,6.359,6.359,6.359,6.359,6.359,6.359,6.359,6.359,6.359,6.359,6.359,6.359,6.359,6.3747,6.4138,6.4209,6.4339,6.4708,6.5073,6.5306,6.5344,6.567,6.5904,6.5904,6.5904,6.5904,6.5904,6.5904,6.5904,6.5904,6.5904,6.5904,6.5904,6.5904,6.5904,6.5904,6.5904,6.5904,6.5904,6.5904,6.5904,6.5904,6.5904,6.5904,6.0565,6.0482,0.0,0.0,0.0,0.0,5.9977,0.0,5.9633,5.8719,0.0,0.0,0.0,0.0,0.0,0.0,5.6942,5.6905,5.6236,5.6023,5.5429,5.397,5.3784,5.397,5.4453,5.449,5.4713,5.5206,5.5085,5.5233,5.5726,5.6533,5.6989,5.6989,5.7769,5.8205,5.8205,5.8539,5.8687,5.8687,5.8687,5.8687,5.8687,5.8687,5.8687,5.8687,5.8687,5.8687,5.8762,5.9579,6.021,6.0693,6.1176,6.177,6.2439,6.2922,6.3293,6.359,6.359,6.359,6.359,6.359,6.359,6.359,6.359,6.359,6.359,6.359,6.359,6.359,6.359,6.359,6.359,6.359,6.359,6.359,6.359,6.359,6.359,6.359,6.3775,6.4077,6.4426,6.4501,6.471,6.5306,6.5527,6.5642,6.5642,6.5788,6.5904,6.5904,6.5904,6.5904,6.5904,6.5904,6.5904,6.5904,6.5904,6.5904,6.5904,6.5904,6.5904,6.5904,6.5904,6.5904,6.5904,6.5904,6.5904,6.5904,6.5904,6.5904,6.1991,0.0,0.0,0.0,0.0,0.0,0.0,0.0,0.0,0.0,6.0441,0.0,0.0,0.0,0.0,0.0,0.0,5.8925,5.8574,5.8148,5.709,5.5047,5.4611,5.4713,5.5307,5.5345,5.5605,5.6246,5.5902,5.5939,5.6617,5.7398,5.7833,5.7833,5.839,5.8687,5.8687,5.8687,5.8687,5.8687,5.8687,5.8687,5.8687,5.8687,5.8687,5.8687,5.8687,5.8836,5.9096,5.9913,6.0768,6.1622,6.2402,6.2736,6.281,6.3368,6.359,6.359,6.359,6.359,6.359,6.359,6.359,6.359,6.359,6.359,6.359,6.359,6.359,6.359,6.359,6.359,6.359,6.359,6.359,6.359,6.359,6.359,6.359,6.359,6.3899,6.431,6.4637,6.4794,6.5097,6.5795,6.5904,6.5904,6.5904,6.5904,6.5904,6.5904,6.5904,6.5904,6.5904,6.5904,6.5904,6.5904,6.5904,6.5904,6.5904,6.5904,6.5904,6.5904,6.5904,6.5904,6.5904,6.5904,6.5904,6.5904,6.5904,6.5904,0.0,0.0,0.0,6.5641,0.0,0.0,0.0,0.0,6.4787,0.0,0.0,0.0,0.0,0.0,0.0,0.0,0.0,0.0,0.0,5.8422,5.8353,5.7462,5.6692,5.6246,5.6246,5.6246,5.6283,5.632,5.6989,5.7425,5.7462,5.8205,5.865,5.865,5.8687,5.8687,5.8687,5.8687,5.8687,5.8687,5.8687,5.8687,5.8687,5.8687,5.8687,5.8687,5.8687,5.9133,5.9913,6.0805,6.1622,6.2439,6.3256,6.3553,6.3553,6.359,6.359,6.359,6.359,6.359,6.359,6.359,6.359,6.359,6.359,6.359,6.359,6.359,6.359,6.359,6.359,6.359,6.359,6.359,6.359,6.359,6.359,6.359,6.359,6.359,6.3899,6.431,6.4637,6.5025,6.5434,6.5859,6.5904,6.5904,6.5904,6.5904,6.5904,6.5904,6.5904,6.5904,6.5904,6.5904,6.5904,6.5904,6.5904,6.5904,6.5904,6.5904,6.5904,6.5904,6.5904,6.5904,6.5904,6.5904,6.5904,6.5904,6.5904,6.5904,0.0,0.0,6.5742,6.5878,0.0,0.0,0.0,0.0,0.0,0.0,0.0,0.0,0.0,0.0,0.0,0.0,0.0,0.0,0.0,6.1558,6.0842,6.0025,5.9207,5.8687,5.8687,5.8205,5.8093,5.865,5.7945,5.7722,5.8279,5.8539,5.8687,5.8687,5.8687,5.8687,5.8687,5.8687,5.8687,5.8687,5.8687,5.8687,5.8687,5.8687,5.8687,5.8725,5.9245,5.9653,6.0025,6.1399,6.2142,6.2476,6.3293,6.359,6.359,6.359,6.359,6.359,6.359,6.359,6.359,6.359,6.359,6.359,6.359,6.359,6.359,6.359,6.359,6.359,6.359,6.359,6.359,6.359,6.359,6.359,6.359,6.359,6.3691,6.3958,6.43,6.4637,6.5033,6.5441,6.5755,6.5885,6.5904,6.5904,6.5904,6.5904,6.5904,6.5904,6.5904,6.5904,6.5904,6.5904,6.5904,6.5904,6.5904,6.5904,6.5904,6.5904,6.5904,6.5904,6.5904,6.5904,6.5904,6.5904,6.5904,6.5904,6.5904,6.5904,6.4479,6.4681,0.0,6.48,6.5103,0.0,6.5051,0.0,6.5705,0.0,0.0,0.0,0.0,0.0,0.0,0.0,0.0,0.0,0.0,6.3414,6.2625,6.2105,6.1028,6.0248,5.9913,5.943,5.9207,5.9467,5.8502,5.813,5.865,5.8687,5.8687,5.8687,5.8687,5.8687,5.8687,5.8687,5.8687,5.8687,5.8687,5.8687,5.8687,5.8687,5.8873,5.917,5.9653,6.0248,6.0879,6.1956,6.255,6.2885,6.3405,6.359,6.359,6.359,6.359,6.359,6.359,6.359,6.359,6.359,6.359,6.359,6.359,6.359,6.3553,6.3256,6.3368,6.3516,6.3256,6.3405,6.359,6.359,6.359,6.359,6.359,6.359,6.3736,6.4128,6.4473,6.482,6.5238,6.5635,6.5904,6.5904,6.5904,6.5904,6.5904,6.5904,6.5904,6.5904,6.5904,6.5904,6.5904,6.5904,6.5904,6.5904,6.5904,6.5904,6.5904,6.5904,6.5904,6.5904,6.5904,6.5904,6.5904,6.5904,6.5904,6.5904,6.5904,6.5904]}]]